[[{"header":{"parameterUnit":"m.s-1","parameterCategory":1,"la1":31.0,"la2":29.5877,"lo1":-88.7671,"lo2":-86.6584,"dy":0.0162,"dx":0.0185,"nx":115,"ny":88,"refTime":"2023-03-05T18:00:00:Z","depth":0,"parameterNumber":2,"parameterNumberName":"U-component_of_WINDS"},"data":[0.0,0.0,0.0,0.0,0.0,0.0,0.0,0.0,0.0,0.0,0.0,0.0,0.0,0.0,0.0,0.0,0.0,0.0,0.0,0.0,0.0,0.0,0.0,0.0,0.0,0.0,0.0,0.0,0.0,0.0,0.0,0.0,0.0,0.0,0.0,0.0,0.0,0.0,0.0,0.0,0.0,0.0,0.0,0.0,0.0,0.0,0.0,0.0,0.0,0.0,0.0,0.0,0.0,0.0,0.0,0.0,0.0,0.0,0.0,0.0,0.0,0.0,0.0,0.0,0.0,0.0,0.0,0.0,0.0,0.0,0.0,0.0,0.0,0.0,0.0,0.0,0.0,0.0,0.0,0.0,0.0,0.0,0.0,0.0,0.0,0.0,0.0,0.0,0.0,0.0,0.0,0.0,0.0,0.0,0.0,0.0,0.0,0.0,0.0,0.0,0.0,0.0,0.0,0.0,0.0,0.0,0.0,0.0,0.0,0.0,0.0,0.0,0.0,0.0,0.0,0.0,0.0,0.0,0.0,0.0,0.0,0.0,0.0,0.0,0.0,0.0,0.0,0.0,0.0,0.0,0.0,0.0,0.0,0.0,0.0,0.0,0.0,0.0,0.0,0.0,0.0,0.0,0.0,0.0,0.0,0.0,0.0,0.0,0.0,0.0,0.0,0.0,0.0,0.0,0.0,0.0,0.0,0.0,0.0,0.0,0.0,0.0,0.0,0.0,0.0,0.0,0.0,0.0,0.0,0.0,0.0,0.0,0.0,0.0,0.0,0.0,0.0,0.0,0.0,0.0,0.0,0.0,0.0,0.0,0.0,0.0,0.0,0.0,0.0,0.0,0.0,0.0,0.0,0.0,0.0,0.0,0.0,0.0,0.0,0.0,0.0,0.0,0.0,0.0,0.0,0.0,0.0,0.0,0.0,0.0,0.0,0.0,0.0,0.0,0.0,0.0,0.0,0.0,0.0,0.0,0.0,0.0,0.0,0.0,0.0,0.0,0.0,0.0,0.0,0.0,0.0,0.0,0.0,0.0,0.0,0.0,0.0,0.0,0.0,0.0,0.0,0.0,0.0,0.0,0.0,0.0,0.0,0.0,0.0,0.0,0.0,0.0,0.0,0.0,0.0,0.0,0.0,0.0,0.0,0.0,0.0,0.0,0.0,0.0,0.0,0.0,0.0,0.0,0.0,0.0,0.0,0.0,0.0,0.0,0.0,0.0,0.0,0.0,0.0,0.0,0.0,0.0,0.0,0.0,0.0,0.0,0.0,0.0,0.0,0.0,0.0,0.0,0.0,0.0,0.0,0.0,0.0,0.0,0.0,0.0,0.0,0.0,0.0,0.0,0.0,0.0,0.0,0.0,0.0,0.0,0.0,0.0,0.0,0.0,0.0,0.0,0.0,0.0,0.0,0.0,0.0,0.0,0.0,0.0,0.0,0.0,0.0,0.0,0.0,0.0,0.0,0.0,0.0,0.0,0.0,0.0,0.0,0.0,0.0,0.0,0.0,0.0,0.0,0.0,0.0,0.0,0.0,0.0,0.0,0.0,0.0,0.0,0.0,0.0,0.0,0.0,0.0,0.0,0.0,0.0,0.0,0.0,0.0,0.0,0.0,0.0,0.0,0.0,0.0,0.0,0.0,0.0,0.0,0.0,0.0,0.0,0.0,0.0,0.0,0.0,0.0,0.0,0.0,0.0,0.0,0.0,0.0,0.0,0.0,0.0,0.0,0.0,0.0,0.0,0.0,0.0,0.0,0.0,0.0,0.0,0.0,0.0,0.0,0.0,0.0,0.0,0.0,0.0,0.0,0.0,0.0,0.0,0.0,0.0,0.0,0.0,0.0,0.0,0.0,0.0,0.0,0.0,0.0,0.0,0.0,0.0,0.0,0.0,0.0,0.0,0.0,0.0,0.0,0.0,0.0,0.0,0.0,0.0,0.0,0.0,0.0,0.0,0.0,0.0,0.0,0.0,0.0,0.0,0.0,0.0,0.0,0.0,0.0,0.0,0.0,0.0,0.0,0.0,0.0,0.0,0.0,0.0,0.0,0.0,0.0,0.0,0.0,0.0,0.0,0.0,0.0,0.0,0.0,0.0,0.0,0.0,0.0,0.0,0.0,0.0,0.0,0.0,0.0,0.0,0.0,0.0,0.0,0.0,0.0,0.0,0.0,0.0,0.0,0.0,0.0,0.0,0.0,0.0,0.0,0.0,0.0,0.0,0.0,0.0,0.0,0.0,0.0,0.0,0.0,0.0,0.0,0.0,0.0,0.0,0.0,0.0,0.0,0.0,0.0,0.0,0.0,0.0,0.0,0.0,0.0,0.0,0.0,0.0,0.0,0.0,0.0,0.0,0.0,0.0,0.0,0.0,0.0,0.0,0.0,0.0,0.0,0.0,0.0,0.0,0.0,0.0,0.0,0.0,0.0,0.0,0.0,0.0,0.0,0.0,0.0,0.0,0.0,0.0,0.0,0.0,0.0,0.0,0.0,0.0,0.0,0.0,0.0,0.0,0.0,0.0,0.0,0.0,0.0,0.0,0.0,0.0,0.0,0.0,0.0,0.0,0.0,0.0,0.0,0.0,0.0,0.0,0.0,0.0,0.0,0.0,0.0,0.0,0.0,0.0,0.0,0.0,0.0,0.0,0.0,0.0,0.0,0.0,0.0,0.0,0.0,0.0,0.0,0.0,0.0,0.0,0.0,0.0,0.0,0.0,0.0,0.0,0.0,0.0,0.0,0.0,0.0,0.0,0.0,0.0,0.0,0.0,0.0,0.0,0.0,0.0,0.0,0.0,0.0,0.0,0.0,0.0,0.0,0.0,0.0,0.0,0.0,0.0,0.0,0.0,0.0,0.0,0.0,0.0,0.0,0.0,0.0,0.0,0.0,0.0,0.0,0.0,0.0,0.0,0.0,0.0,0.0,0.0,0.0,0.0,0.0,0.0,0.0,0.0,0.0,0.0,0.0,0.0,0.0,0.0,0.0,0.0,0.0,0.0,0.0,0.0,0.0,0.0,0.0,0.0,0.0,0.0,0.0,0.0,0.0,0.0,0.0,0.0,0.0,0.0,0.0,0.0,0.0,0.0,0.0,0.0,0.0,0.0,0.0,0.0,0.0,0.0,0.0,0.0,0.0,0.0,0.0,0.0,0.0,0.0,0.0,0.0,0.0,0.0,0.0,0.0,0.0,0.0,0.0,0.0,0.0,0.0,0.0,0.0,0.0,0.0,0.0,0.0,0.0,0.0,0.0,0.0,0.0,0.0,0.0,0.0,0.0,0.0,0.0,0.0,0.0,0.0,0.0,0.0,0.0,0.0,0.0,0.0,0.0,0.0,0.0,0.0,0.0,0.0,0.0,0.0,0.0,0.0,0.0,0.0,0.0,0.0,0.0,0.0,0.0,0.0,0.0,0.0,0.0,0.0,0.0,0.0,0.0,0.0,0.0,0.0,0.0,0.0,0.0,0.0,0.0,0.0,0.0,0.0,0.0,0.0,0.0,0.0,0.0,0.0,0.0,0.0,0.0,0.0,0.0,0.0,0.0,0.0,0.0,0.0,0.0,0.0,0.0,0.0,0.0,0.0,0.0,0.0,0.0,0.0,0.0,0.0,0.0,0.0,0.0,0.0,0.0,0.0,0.0,0.0,0.0,0.0,0.0,0.0,0.0,0.0,0.0,0.0,0.0,0.0,0.0,0.0,0.0,0.0,0.0,0.0,0.0,0.0,0.0,0.0,0.0,0.0,0.0,0.0,0.0,0.0,0.0,0.0,0.0,0.0,0.0,0.0,0.0,0.0,0.0,0.0,0.0,0.0,0.0,0.0,0.0,0.0,0.0,0.0,0.0,0.0,0.0,0.0,0.0,0.0,0.0,0.0,0.0,0.0,0.0,0.0,0.0,0.0,0.0,0.0,0.0,0.0,0.0,0.0,0.0,0.0,0.0,0.0,0.0,0.0,0.0,0.0,0.0,0.0,0.0,0.0,0.0,0.0,0.0,0.0,0.0,0.0,0.0,0.0,0.0,0.0,0.0,0.0,0.0,0.0,0.0,0.0,0.0,0.0,0.0,0.0,0.0,0.0,0.0,0.0,0.0,0.0,0.0,0.0,0.0,0.0,0.0,0.0,0.0,0.0,0.0,0.0,0.0,0.0,0.0,0.0,0.0,0.0,0.0,0.0,0.0,0.0,0.0,0.0,0.0,0.0,0.0,0.0,0.0,0.0,0.0,0.0,0.0,0.0,0.0,0.0,0.0,0.0,0.0,0.0,0.0,0.0,-4.4537,0.0,0.0,0.0,0.0,0.0,0.0,0.0,0.0,0.0,0.0,0.0,0.0,0.0,0.0,0.0,0.0,0.0,0.0,0.0,0.0,0.0,0.0,0.0,0.0,0.0,0.0,0.0,0.0,0.0,0.0,0.0,0.0,0.0,0.0,0.0,0.0,0.0,0.0,0.0,0.0,0.0,0.0,0.0,0.0,0.0,0.0,0.0,0.0,0.0,0.0,0.0,0.0,0.0,0.0,0.0,0.0,0.0,0.0,0.0,0.0,0.0,0.0,0.0,0.0,0.0,0.0,0.0,0.0,0.0,0.0,0.0,0.0,0.0,0.0,0.0,0.0,0.0,0.0,0.0,0.0,0.0,0.0,0.0,0.0,0.0,0.0,0.0,0.0,0.0,0.0,0.0,0.0,0.0,0.0,0.0,0.0,0.0,0.0,0.0,0.0,0.0,0.0,0.0,0.0,0.0,0.0,0.0,0.0,0.0,0.0,-4.4659,-4.4592,-4.4573,-4.4551,-4.444,0.0,0.0,0.0,0.0,0.0,0.0,0.0,0.0,0.0,0.0,0.0,0.0,0.0,0.0,0.0,0.0,0.0,0.0,0.0,0.0,0.0,0.0,0.0,0.0,0.0,0.0,0.0,0.0,0.0,0.0,0.0,0.0,0.0,0.0,0.0,0.0,0.0,0.0,0.0,0.0,0.0,0.0,0.0,0.0,0.0,0.0,0.0,0.0,0.0,0.0,0.0,0.0,0.0,0.0,0.0,0.0,0.0,0.0,0.0,0.0,0.0,0.0,0.0,0.0,0.0,0.0,0.0,0.0,0.0,0.0,0.0,0.0,0.0,0.0,0.0,0.0,0.0,0.0,0.0,0.0,0.0,0.0,0.0,0.0,0.0,0.0,0.0,0.0,0.0,0.0,0.0,0.0,0.0,0.0,0.0,0.0,0.0,0.0,0.0,0.0,0.0,0.0,0.0,0.0,0.0,0.0,0.0,0.0,0.0,0.0,0.0,0.0,-4.434,-4.431,-4.4281,0.0,0.0,0.0,0.0,0.0,0.0,0.0,0.0,0.0,0.0,0.0,0.0,0.0,0.0,0.0,0.0,0.0,0.0,0.0,0.0,0.0,0.0,0.0,0.0,0.0,0.0,0.0,0.0,0.0,0.0,0.0,0.0,0.0,0.0,0.0,0.0,0.0,0.0,0.0,0.0,0.0,0.0,0.0,0.0,0.0,0.0,0.0,0.0,0.0,0.0,0.0,0.0,0.0,0.0,0.0,0.0,0.0,0.0,0.0,0.0,0.0,0.0,0.0,0.0,0.0,0.0,0.0,0.0,0.0,0.0,0.0,0.0,0.0,0.0,0.0,0.0,0.0,0.0,0.0,0.0,0.0,0.0,0.0,0.0,0.0,0.0,0.0,0.0,0.0,0.0,0.0,0.0,0.0,0.0,0.0,0.0,0.0,0.0,0.0,0.0,0.0,0.0,0.0,0.0,0.0,0.0,0.0,0.0,0.0,0.0,-4.4051,-4.4051,-4.4036,0.0,-4.3945,0.0,0.0,0.0,0.0,0.0,0.0,0.0,0.0,0.0,0.0,0.0,0.0,0.0,0.0,0.0,0.0,0.0,0.0,0.0,0.0,0.0,0.0,0.0,0.0,0.0,0.0,0.0,0.0,0.0,0.0,0.0,0.0,0.0,0.0,0.0,0.0,0.0,0.0,0.0,0.0,0.0,0.0,0.0,0.0,0.0,0.0,0.0,0.0,0.0,0.0,0.0,0.0,0.0,0.0,0.0,0.0,0.0,0.0,0.0,0.0,0.0,0.0,0.0,0.0,0.0,0.0,0.0,0.0,0.0,0.0,0.0,0.0,0.0,0.0,0.0,0.0,0.0,0.0,0.0,0.0,0.0,0.0,0.0,0.0,0.0,0.0,0.0,0.0,0.0,0.0,0.0,0.0,0.0,0.0,0.0,0.0,0.0,0.0,0.0,0.0,0.0,0.0,0.0,0.0,0.0,0.0,0.0,0.0,0.0,0.0,-4.3883,-4.3865,-4.3883,-4.3835,0.0,0.0,0.0,0.0,0.0,0.0,0.0,0.0,0.0,0.0,0.0,0.0,0.0,0.0,0.0,0.0,0.0,0.0,0.0,0.0,0.0,0.0,0.0,0.0,0.0,0.0,0.0,0.0,0.0,0.0,0.0,0.0,0.0,0.0,0.0,0.0,0.0,0.0,0.0,0.0,0.0,0.0,0.0,0.0,0.0,0.0,0.0,0.0,0.0,0.0,0.0,0.0,0.0,0.0,0.0,0.0,0.0,0.0,0.0,0.0,0.0,0.0,0.0,0.0,0.0,0.0,0.0,0.0,0.0,0.0,0.0,0.0,0.0,0.0,0.0,0.0,0.0,0.0,0.0,0.0,0.0,0.0,0.0,0.0,0.0,0.0,0.0,0.0,0.0,0.0,0.0,0.0,0.0,0.0,0.0,0.0,0.0,0.0,0.0,0.0,0.0,0.0,0.0,0.0,0.0,0.0,0.0,0.0,0.0,0.0,-4.3719,-4.3721,-4.3703,-4.3703,-4.3686,-4.3582,0.0,0.0,0.0,0.0,0.0,0.0,0.0,0.0,0.0,0.0,0.0,0.0,0.0,0.0,0.0,0.0,0.0,0.0,0.0,0.0,0.0,0.0,0.0,0.0,0.0,0.0,0.0,0.0,0.0,0.0,0.0,0.0,0.0,0.0,0.0,0.0,0.0,0.0,0.0,0.0,0.0,0.0,0.0,0.0,0.0,0.0,0.0,0.0,0.0,0.0,0.0,0.0,0.0,0.0,0.0,0.0,0.0,0.0,0.0,0.0,0.0,0.0,0.0,0.0,0.0,0.0,0.0,0.0,0.0,0.0,0.0,0.0,0.0,0.0,0.0,0.0,0.0,0.0,0.0,0.0,0.0,0.0,0.0,0.0,0.0,0.0,0.0,0.0,0.0,0.0,0.0,0.0,0.0,0.0,0.0,0.0,0.0,0.0,0.0,0.0,0.0,0.0,0.0,0.0,0.0,0.0,0.0,0.0,-4.3599,-4.3548,-4.3515,-4.3496,-4.3515,-4.3515,0.0,0.0,0.0,0.0,0.0,0.0,0.0,0.0,0.0,0.0,0.0,0.0,0.0,0.0,0.0,0.0,0.0,0.0,0.0,0.0,0.0,0.0,0.0,0.0,0.0,0.0,0.0,0.0,0.0,0.0,0.0,0.0,0.0,0.0,0.0,0.0,0.0,0.0,0.0,0.0,0.0,0.0,0.0,0.0,0.0,0.0,0.0,0.0,0.0,0.0,0.0,0.0,0.0,0.0,0.0,0.0,0.0,0.0,0.0,0.0,0.0,0.0,0.0,0.0,0.0,0.0,0.0,0.0,0.0,0.0,0.0,0.0,0.0,0.0,0.0,0.0,0.0,0.0,0.0,0.0,0.0,0.0,0.0,0.0,0.0,0.0,0.0,0.0,0.0,0.0,0.0,0.0,0.0,0.0,0.0,0.0,0.0,0.0,0.0,0.0,0.0,0.0,0.0,0.0,0.0,0.0,0.0,0.0,0.0,-4.3549,-4.3532,-4.3479,-4.3479,-4.3479,-4.3479,0.0,0.0,0.0,0.0,0.0,0.0,0.0,0.0,0.0,0.0,0.0,0.0,0.0,0.0,0.0,0.0,0.0,0.0,0.0,0.0,0.0,0.0,0.0,0.0,0.0,0.0,0.0,0.0,0.0,0.0,0.0,0.0,0.0,0.0,0.0,0.0,0.0,0.0,0.0,0.0,0.0,0.0,0.0,0.0,0.0,0.0,0.0,0.0,0.0,0.0,0.0,0.0,0.0,0.0,0.0,0.0,0.0,0.0,0.0,0.0,0.0,0.0,0.0,0.0,0.0,0.0,0.0,0.0,0.0,0.0,0.0,0.0,0.0,0.0,0.0,0.0,0.0,0.0,0.0,0.0,0.0,0.0,0.0,0.0,0.0,0.0,0.0,0.0,0.0,0.0,0.0,0.0,0.0,0.0,0.0,0.0,0.0,0.0,0.0,0.0,0.0,0.0,0.0,0.0,0.0,0.0,0.0,0.0,0.0,-4.3479,0.0,-4.3463,-4.3481,-4.341,-4.3392,0.0,0.0,0.0,0.0,0.0,0.0,0.0,0.0,0.0,0.0,0.0,0.0,0.0,0.0,0.0,0.0,0.0,0.0,0.0,0.0,0.0,0.0,0.0,0.0,0.0,0.0,0.0,0.0,0.0,0.0,0.0,0.0,0.0,0.0,0.0,0.0,0.0,0.0,0.0,0.0,0.0,0.0,0.0,0.0,0.0,0.0,0.0,0.0,0.0,0.0,0.0,0.0,0.0,0.0,0.0,0.0,0.0,0.0,0.0,0.0,0.0,0.0,0.0,0.0,0.0,0.0,0.0,0.0,0.0,0.0,0.0,0.0,0.0,0.0,0.0,0.0,0.0,0.0,0.0,0.0,0.0,0.0,0.0,0.0,0.0,0.0,0.0,0.0,0.0,0.0,0.0,0.0,0.0,0.0,0.0,0.0,0.0,0.0,0.0,0.0,0.0,0.0,0.0,0.0,0.0,0.0,0.0,0.0,-4.3479,-4.3497,-4.3429,-4.3394,-4.3394,-4.3269,-4.3214,0.0,0.0,0.0,0.0,0.0,0.0,0.0,0.0,0.0,0.0,0.0,0.0,0.0,0.0,0.0,0.0,0.0,0.0,0.0,0.0,0.0,0.0,0.0,0.0,0.0,0.0,0.0,0.0,0.0,0.0,0.0,0.0,0.0,0.0,0.0,0.0,0.0,0.0,0.0,0.0,0.0,0.0,0.0,0.0,0.0,0.0,0.0,0.0,0.0,0.0,0.0,0.0,0.0,0.0,0.0,0.0,0.0,0.0,0.0,0.0,0.0,0.0,0.0,0.0,0.0,0.0,0.0,0.0,0.0,0.0,0.0,0.0,0.0,0.0,0.0,0.0,0.0,0.0,0.0,0.0,0.0,0.0,0.0,0.0,0.0,0.0,0.0,0.0,0.0,0.0,0.0,0.0,0.0,0.0,0.0,0.0,0.0,0.0,0.0,0.0,0.0,0.0,0.0,0.0,0.0,0.0,0.0,0.0,0.0,-4.3429,-4.3412,-4.3358,-4.3269,-4.3233,-4.3214,0.0,0.0,0.0,0.0,0.0,0.0,0.0,0.0,0.0,0.0,0.0,0.0,0.0,0.0,0.0,0.0,0.0,0.0,0.0,0.0,0.0,0.0,0.0,0.0,0.0,0.0,0.0,0.0,0.0,0.0,0.0,0.0,0.0,0.0,0.0,0.0,0.0,0.0,0.0,0.0,0.0,0.0,0.0,0.0,0.0,0.0,0.0,0.0,0.0,0.0,0.0,0.0,0.0,0.0,0.0,0.0,0.0,0.0,0.0,0.0,0.0,0.0,0.0,0.0,0.0,0.0,0.0,0.0,0.0,0.0,0.0,0.0,0.0,0.0,0.0,0.0,0.0,0.0,0.0,0.0,0.0,0.0,0.0,0.0,0.0,0.0,0.0,0.0,0.0,0.0,0.0,0.0,0.0,0.0,0.0,0.0,0.0,0.0,0.0,0.0,0.0,0.0,0.0,0.0,0.0,0.0,0.0,0.0,0.0,-4.3743,-4.3451,-4.3269,-4.316,-4.3123,-4.3087,-4.3105,0.0,0.0,0.0,0.0,0.0,0.0,0.0,0.0,0.0,0.0,0.0,0.0,0.0,0.0,0.0,0.0,0.0,0.0,0.0,0.0,0.0,0.0,0.0,0.0,0.0,0.0,0.0,0.0,0.0,0.0,0.0,0.0,0.0,0.0,0.0,0.0,0.0,0.0,0.0,0.0,0.0,0.0,0.0,0.0,0.0,0.0,0.0,0.0,0.0,0.0,0.0,0.0,0.0,0.0,0.0,0.0,0.0,0.0,0.0,0.0,0.0,0.0,0.0,0.0,0.0,0.0,0.0,0.0,0.0,0.0,0.0,0.0,0.0,0.0,0.0,0.0,0.0,0.0,0.0,0.0,0.0,0.0,0.0,0.0,0.0,0.0,0.0,0.0,0.0,0.0,0.0,0.0,0.0,0.0,0.0,0.0,0.0,0.0,0.0,0.0,0.0,0.0,0.0,0.0,0.0,0.0,0.0,0.0,-4.4399,-4.3632,-4.3213,-4.3159,-4.3029,-4.2937,0.0,0.0,0.0,0.0,0.0,0.0,0.0,0.0,0.0,0.0,0.0,0.0,0.0,0.0,0.0,0.0,0.0,0.0,0.0,0.0,0.0,0.0,0.0,0.0,0.0,0.0,0.0,0.0,0.0,0.0,0.0,0.0,0.0,0.0,0.0,0.0,0.0,0.0,0.0,0.0,0.0,0.0,0.0,0.0,0.0,0.0,0.0,0.0,0.0,0.0,0.0,0.0,0.0,0.0,0.0,0.0,0.0,0.0,0.0,0.0,0.0,0.0,0.0,0.0,0.0,0.0,0.0,0.0,0.0,0.0,0.0,0.0,0.0,0.0,0.0,0.0,0.0,0.0,0.0,0.0,0.0,0.0,0.0,0.0,0.0,0.0,0.0,0.0,0.0,0.0,0.0,0.0,0.0,0.0,0.0,0.0,0.0,0.0,0.0,0.0,0.0,0.0,0.0,0.0,0.0,0.0,0.0,0.0,0.0,-4.4342,-4.4591,-4.4442,-4.3862,-4.3807,-4.3517,0.0,0.0,0.0,0.0,0.0,0.0,0.0,0.0,0.0,0.0,0.0,0.0,0.0,0.0,0.0,0.0,0.0,0.0,0.0,0.0,0.0,0.0,0.0,0.0,0.0,0.0,0.0,0.0,0.0,0.0,0.0,0.0,0.0,0.0,0.0,0.0,0.0,0.0,0.0,0.0,0.0,0.0,0.0,0.0,0.0,0.0,0.0,0.0,0.0,0.0,0.0,0.0,0.0,0.0,0.0,0.0,0.0,0.0,0.0,0.0,0.0,0.0,0.0,0.0,0.0,0.0,0.0,0.0,0.0,0.0,0.0,0.0,0.0,0.0,0.0,0.0,0.0,0.0,0.0,0.0,0.0,0.0,0.0,0.0,0.0,0.0,0.0,0.0,0.0,0.0,0.0,0.0,0.0,0.0,0.0,0.0,0.0,0.0,0.0,0.0,0.0,0.0,0.0,0.0,0.0,0.0,0.0,0.0,-4.4506,-4.4814,-4.5459,-4.558,-4.5128,-4.4458,-4.3878,0.0,0.0,0.0,0.0,0.0,0.0,0.0,0.0,0.0,0.0,0.0,0.0,0.0,0.0,0.0,0.0,0.0,0.0,0.0,0.0,0.0,0.0,0.0,0.0,0.0,0.0,0.0,0.0,0.0,0.0,0.0,0.0,0.0,0.0,0.0,0.0,0.0,0.0,0.0,0.0,0.0,0.0,0.0,0.0,0.0,0.0,0.0,0.0,0.0,0.0,0.0,0.0,0.0,0.0,0.0,0.0,0.0,0.0,0.0,0.0,0.0,0.0,0.0,0.0,0.0,0.0,0.0,0.0,0.0,0.0,0.0,0.0,0.0,0.0,0.0,0.0,0.0,0.0,0.0,0.0,0.0,0.0,0.0,0.0,0.0,0.0,0.0,0.0,0.0,0.0,0.0,0.0,0.0,0.0,0.0,0.0,0.0,0.0,0.0,0.0,0.0,0.0,0.0,0.0,0.0,0.0,0.0,0.0,-4.4794,-4.5574,-4.6273,-4.6631,-4.6556,-4.5055,-4.4186,0.0,0.0,0.0,0.0,0.0,0.0,0.0,0.0,0.0,0.0,0.0,0.0,0.0,0.0,0.0,0.0,0.0,0.0,0.0,0.0,0.0,0.0,0.0,0.0,0.0,0.0,0.0,0.0,0.0,0.0,0.0,0.0,0.0,0.0,0.0,0.0,0.0,0.0,0.0,0.0,0.0,0.0,0.0,0.0,0.0,0.0,0.0,0.0,0.0,0.0,0.0,0.0,0.0,0.0,0.0,0.0,0.0,0.0,0.0,0.0,0.0,0.0,0.0,0.0,0.0,0.0,0.0,0.0,0.0,0.0,0.0,0.0,0.0,0.0,0.0,0.0,0.0,0.0,0.0,0.0,0.0,0.0,0.0,0.0,0.0,0.0,0.0,0.0,0.0,0.0,0.0,0.0,0.0,0.0,0.0,0.0,0.0,0.0,0.0,0.0,0.0,0.0,0.0,0.0,0.0,0.0,0.0,0.0,-4.5573,-4.6273,-4.7029,-4.7383,-4.7262,-4.583,-4.4708,0.0,0.0,0.0,0.0,0.0,0.0,0.0,0.0,0.0,0.0,0.0,0.0,0.0,0.0,0.0,0.0,0.0,0.0,0.0,0.0,0.0,0.0,0.0,0.0,0.0,0.0,0.0,0.0,0.0,0.0,0.0,0.0,0.0,0.0,0.0,0.0,0.0,0.0,0.0,0.0,0.0,0.0,0.0,0.0,0.0,0.0,0.0,0.0,-4.4598,0.0,0.0,0.0,0.0,0.0,0.0,0.0,0.0,0.0,0.0,0.0,0.0,0.0,0.0,0.0,0.0,0.0,0.0,0.0,0.0,0.0,0.0,0.0,0.0,0.0,0.0,0.0,0.0,0.0,0.0,0.0,0.0,0.0,0.0,0.0,0.0,0.0,0.0,0.0,0.0,0.0,0.0,0.0,0.0,0.0,0.0,0.0,0.0,0.0,0.0,0.0,0.0,0.0,0.0,0.0,0.0,0.0,0.0,0.0,-4.5651,-4.6403,-4.7117,-4.7468,-4.7323,-4.5873,-4.4888,0.0,0.0,0.0,0.0,0.0,0.0,0.0,0.0,0.0,0.0,0.0,0.0,0.0,0.0,0.0,0.0,0.0,0.0,0.0,0.0,0.0,0.0,0.0,0.0,0.0,0.0,0.0,0.0,0.0,0.0,0.0,0.0,0.0,0.0,0.0,0.0,0.0,0.0,0.0,0.0,0.0,0.0,0.0,0.0,0.0,0.0,0.0,0.0,0.0,0.0,0.0,0.0,0.0,0.0,0.0,0.0,0.0,0.0,0.0,0.0,0.0,0.0,0.0,0.0,0.0,0.0,0.0,0.0,0.0,0.0,0.0,0.0,0.0,0.0,0.0,0.0,0.0,0.0,0.0,0.0,0.0,0.0,0.0,0.0,0.0,0.0,0.0,0.0,0.0,0.0,0.0,0.0,0.0,0.0,0.0,0.0,0.0,0.0,0.0,0.0,0.0,0.0,0.0,0.0,0.0,0.0,0.0,-4.4909,-4.5542,-4.6419,-4.7,-4.7249,-4.7116,-4.5573,-4.4754,-4.4839,0.0,0.0,0.0,0.0,0.0,0.0,0.0,0.0,0.0,0.0,0.0,0.0,0.0,0.0,0.0,0.0,0.0,0.0,0.0,0.0,0.0,0.0,0.0,0.0,0.0,0.0,0.0,0.0,0.0,0.0,0.0,0.0,0.0,0.0,0.0,0.0,0.0,0.0,-4.4598,-4.4598,0.0,0.0,0.0,0.0,0.0,0.0,0.0,0.0,-4.4598,0.0,0.0,0.0,0.0,0.0,0.0,0.0,0.0,0.0,0.0,0.0,0.0,0.0,0.0,0.0,0.0,0.0,0.0,0.0,0.0,0.0,0.0,0.0,0.0,0.0,0.0,0.0,0.0,0.0,0.0,0.0,0.0,0.0,0.0,0.0,0.0,0.0,0.0,0.0,0.0,0.0,0.0,0.0,0.0,0.0,0.0,0.0,0.0,0.0,0.0,0.0,0.0,0.0,0.0,0.0,0.0,-4.5131,-4.5118,-4.5729,-4.7012,-4.7169,-4.7111,-4.6829,-4.5262,-4.4338,-4.4218,0.0,0.0,0.0,0.0,0.0,0.0,0.0,0.0,0.0,0.0,0.0,0.0,0.0,0.0,0.0,0.0,0.0,0.0,0.0,0.0,0.0,0.0,0.0,0.0,0.0,0.0,0.0,0.0,0.0,0.0,0.0,0.0,0.0,0.0,0.0,0.0,0.0,0.0,0.0,-4.4598,-4.4598,0.0,0.0,0.0,0.0,0.0,0.0,0.0,0.0,-4.4598,0.0,0.0,0.0,0.0,0.0,0.0,0.0,0.0,0.0,0.0,0.0,0.0,0.0,0.0,0.0,0.0,0.0,0.0,0.0,0.0,0.0,0.0,0.0,0.0,0.0,0.0,0.0,0.0,0.0,0.0,0.0,0.0,0.0,0.0,0.0,0.0,0.0,0.0,0.0,0.0,0.0,0.0,0.0,0.0,0.0,0.0,0.0,0.0,0.0,0.0,0.0,0.0,0.0,0.0,0.0,-4.52,-4.4988,-4.557,-4.7017,-4.6888,-4.6702,-4.6442,-4.4877,-4.3886,0.0,0.0,0.0,0.0,0.0,0.0,0.0,0.0,0.0,0.0,0.0,0.0,0.0,0.0,0.0,0.0,0.0,0.0,0.0,0.0,0.0,0.0,0.0,0.0,0.0,0.0,0.0,0.0,0.0,0.0,0.0,0.0,0.0,0.0,0.0,0.0,0.0,0.0,0.0,0.0,-4.4598,-4.4598,-4.4598,0.0,0.0,0.0,0.0,0.0,0.0,-4.4598,-4.4598,0.0,0.0,0.0,0.0,0.0,0.0,0.0,0.0,0.0,0.0,0.0,0.0,0.0,0.0,0.0,0.0,0.0,0.0,0.0,0.0,0.0,0.0,0.0,0.0,0.0,0.0,0.0,0.0,0.0,0.0,0.0,0.0,0.0,0.0,0.0,0.0,0.0,0.0,0.0,0.0,0.0,0.0,0.0,0.0,0.0,0.0,0.0,0.0,0.0,0.0,0.0,0.0,0.0,0.0,0.0,-4.5136,-4.4778,-4.5285,-4.6753,-4.6471,-4.6211,-4.6052,-4.4412,-4.3416,0.0,0.0,0.0,0.0,0.0,0.0,0.0,0.0,0.0,0.0,0.0,0.0,0.0,0.0,0.0,0.0,0.0,0.0,0.0,0.0,0.0,0.0,0.0,0.0,0.0,0.0,0.0,0.0,0.0,0.0,0.0,0.0,0.0,0.0,0.0,0.0,0.0,0.0,0.0,0.0,0.0,-4.4598,-4.4598,-4.4598,0.0,0.0,0.0,0.0,-4.4801,-4.4716,0.0,0.0,0.0,0.0,0.0,0.0,0.0,0.0,0.0,0.0,0.0,0.0,0.0,0.0,0.0,0.0,0.0,0.0,0.0,0.0,0.0,0.0,0.0,0.0,0.0,0.0,0.0,0.0,0.0,0.0,0.0,0.0,0.0,0.0,0.0,0.0,0.0,0.0,0.0,0.0,0.0,0.0,0.0,0.0,0.0,0.0,0.0,0.0,0.0,0.0,0.0,0.0,0.0,0.0,0.0,0.0,-4.4806,-4.4563,-4.502,-4.6196,-4.5995,-4.5794,-4.5641,-4.3931,-4.2987,0.0,0.0,0.0,0.0,0.0,0.0,0.0,0.0,0.0,0.0,0.0,0.0,0.0,0.0,0.0,0.0,0.0,0.0,0.0,0.0,0.0,0.0,0.0,0.0,0.0,0.0,0.0,0.0,0.0,0.0,0.0,0.0,0.0,0.0,0.0,0.0,0.0,0.0,0.0,0.0,0.0,-4.4598,-4.4598,-4.4598,-4.4598,0.0,0.0,-4.4823,-4.5466,-4.5026,0.0,0.0,0.0,0.0,0.0,0.0,0.0,0.0,0.0,0.0,0.0,0.0,0.0,0.0,0.0,0.0,0.0,0.0,0.0,0.0,0.0,0.0,0.0,0.0,0.0,0.0,0.0,0.0,0.0,0.0,0.0,0.0,0.0,0.0,0.0,0.0,0.0,0.0,0.0,0.0,0.0,0.0,0.0,0.0,0.0,0.0,0.0,0.0,0.0,0.0,0.0,0.0,0.0,0.0,0.0,-4.3755,-4.4528,-4.461,-4.5045,-4.5935,-4.5632,-4.5441,-4.5389,-4.37,-4.2757,0.0,0.0,0.0,0.0,0.0,0.0,0.0,0.0,0.0,0.0,0.0,0.0,0.0,0.0,0.0,0.0,0.0,0.0,0.0,0.0,0.0,0.0,0.0,0.0,0.0,0.0,0.0,0.0,0.0,0.0,0.0,0.0,0.0,0.0,0.0,0.0,0.0,0.0,0.0,0.0,0.0,0.0,-4.4598,-4.4942,0.0,0.0,0.0,-4.5466,-4.621,0.0,0.0,0.0,0.0,0.0,0.0,0.0,0.0,0.0,0.0,0.0,0.0,0.0,0.0,0.0,0.0,0.0,0.0,0.0,0.0,0.0,0.0,0.0,0.0,0.0,0.0,0.0,0.0,0.0,0.0,0.0,0.0,0.0,0.0,0.0,0.0,0.0,0.0,0.0,0.0,0.0,0.0,0.0,0.0,0.0,0.0,0.0,0.0,0.0,0.0,0.0,0.0,0.0,0.0,0.0,0.0,0.0,-4.433,-4.46,-4.507,-4.5649,-4.531,-4.5113,-4.5079,-4.367,0.0,0.0,0.0,0.0,0.0,0.0,0.0,0.0,0.0,0.0,0.0,0.0,0.0,0.0,0.0,0.0,0.0,0.0,0.0,0.0,0.0,0.0,0.0,0.0,0.0,0.0,0.0,-4.0578,0.0,0.0,0.0,0.0,0.0,0.0,0.0,0.0,0.0,0.0,0.0,0.0,0.0,0.0,-4.4598,-4.4598,-4.5213,-4.5635,0.0,0.0,-4.5957,-4.6667,-4.5703,-4.5111,0.0,0.0,0.0,0.0,0.0,0.0,0.0,0.0,0.0,0.0,0.0,0.0,0.0,0.0,0.0,0.0,0.0,0.0,0.0,0.0,0.0,0.0,0.0,0.0,0.0,0.0,0.0,0.0,0.0,0.0,0.0,0.0,0.0,0.0,0.0,0.0,0.0,0.0,0.0,0.0,0.0,0.0,0.0,0.0,0.0,0.0,0.0,0.0,0.0,0.0,0.0,0.0,0.0,0.0,0.0,-4.4213,-4.448,-4.4894,-4.539,-4.5032,-4.4848,-4.4831,-4.3885,-4.3041,0.0,0.0,0.0,0.0,0.0,0.0,0.0,0.0,0.0,0.0,0.0,0.0,0.0,0.0,0.0,0.0,0.0,0.0,0.0,0.0,0.0,0.0,0.0,0.0,0.0,0.0,0.0,0.0,0.0,0.0,0.0,0.0,0.0,0.0,0.0,0.0,0.0,0.0,0.0,0.0,0.0,-4.4598,-4.4598,-4.5229,-4.5466,0.0,0.0,-4.5957,-4.6684,-4.6143,-4.5889,-4.6599,0.0,0.0,0.0,0.0,0.0,0.0,0.0,0.0,0.0,0.0,0.0,0.0,0.0,0.0,0.0,0.0,0.0,0.0,0.0,0.0,0.0,0.0,0.0,0.0,0.0,0.0,0.0,0.0,0.0,0.0,0.0,0.0,0.0,0.0,0.0,0.0,0.0,0.0,0.0,0.0,0.0,0.0,0.0,0.0,0.0,0.0,0.0,0.0,0.0,0.0,0.0,0.0,0.0,-4.3952,-4.3921,-4.4599,-4.5026,-4.515,-4.4831,-4.4682,-4.4699,-4.3853,-4.3257,0.0,0.0,0.0,0.0,0.0,0.0,0.0,0.0,0.0,0.0,0.0,0.0,0.0,0.0,0.0,0.0,0.0,0.0,0.0,0.0,0.0,0.0,0.0,0.0,0.0,0.0,0.0,0.0,-4.3081,-4.3578,-4.4062,0.0,0.0,0.0,0.0,0.0,0.0,0.0,0.0,0.0,0.0,-4.4767,-4.5196,-4.5906,0.0,0.0,-4.687,-4.7327,-4.8037,-4.7158,-4.6633,-4.7361,-4.687,0.0,0.0,0.0,0.0,0.0,0.0,0.0,0.0,0.0,0.0,0.0,0.0,0.0,0.0,0.0,0.0,0.0,0.0,0.0,0.0,0.0,0.0,0.0,0.0,0.0,0.0,0.0,0.0,0.0,0.0,0.0,0.0,0.0,0.0,0.0,0.0,0.0,0.0,0.0,0.0,0.0,0.0,0.0,0.0,0.0,0.0,0.0,0.0,0.0,0.0,0.0,0.0,-4.402,-4.3703,-4.4682,-4.5123,-4.5022,-4.472,-4.4598,-4.4581,-4.4045,-4.3656,0.0,0.0,0.0,0.0,0.0,0.0,0.0,0.0,0.0,0.0,0.0,0.0,0.0,0.0,0.0,0.0,0.0,0.0,0.0,0.0,0.0,0.0,0.0,0.0,0.0,0.0,0.0,0.0,-4.3623,-4.3978,-4.4547,0.0,0.0,0.0,0.0,0.0,0.0,0.0,0.0,0.0,0.0,-4.4869,-4.5602,-4.6329,-4.6989,-4.7513,-4.7784,-4.8105,-4.8612,-4.7817,-4.731,-4.7804,0.0,0.0,0.0,0.0,0.0,0.0,0.0,0.0,0.0,0.0,0.0,0.0,0.0,0.0,0.0,0.0,0.0,0.0,0.0,0.0,0.0,0.0,0.0,0.0,0.0,0.0,0.0,0.0,0.0,0.0,-4.3479,0.0,0.0,0.0,0.0,0.0,0.0,0.0,0.0,0.0,0.0,0.0,0.0,0.0,0.0,0.0,0.0,0.0,0.0,0.0,0.0,0.0,0.0,-4.3962,-4.3703,-4.4699,-4.5123,-4.5005,-4.4737,-4.4598,-4.4598,-4.4581,-4.4198,-4.3426,0.0,0.0,0.0,0.0,0.0,0.0,0.0,0.0,0.0,0.0,0.0,0.0,0.0,0.0,0.0,0.0,0.0,0.0,0.0,0.0,0.0,0.0,0.0,0.0,0.0,0.0,-4.3426,-4.4096,-4.4564,0.0,0.0,0.0,0.0,0.0,0.0,0.0,0.0,0.0,0.0,-4.4598,-4.4857,-4.5618,-4.6329,-4.6819,-4.687,-4.7479,-4.7922,-4.7973,-4.7906,-4.7889,0.0,0.0,0.0,0.0,0.0,0.0,0.0,0.0,0.0,0.0,0.0,0.0,0.0,0.0,0.0,0.0,0.0,0.0,0.0,0.0,0.0,0.0,0.0,0.0,0.0,0.0,0.0,-4.3479,-4.3479,0.0,0.0,0.0,0.0,0.0,0.0,0.0,0.0,0.0,0.0,0.0,-4.4986,-4.4781,0.0,0.0,0.0,0.0,0.0,0.0,0.0,0.0,0.0,0.0,0.0,0.0,-4.3685,-4.3513,-4.4526,-4.5032,-4.4995,-4.472,-4.4598,-4.4598,-4.4598,-4.4215,-4.3436,0.0,0.0,0.0,0.0,0.0,0.0,0.0,0.0,0.0,0.0,0.0,0.0,0.0,0.0,0.0,0.0,0.0,0.0,0.0,0.0,0.0,0.0,0.0,0.0,0.0,-4.3595,0.0,0.0,0.0,0.0,0.0,0.0,0.0,0.0,0.0,0.0,0.0,-4.4598,-4.4598,-4.4598,-4.5055,-4.6261,-4.6633,-4.7141,0.0,0.0,0.0,0.0,0.0,0.0,0.0,0.0,0.0,0.0,0.0,0.0,0.0,0.0,-4.5049,-4.459,-4.4428,-4.4251,-4.4022,0.0,0.0,0.0,0.0,0.0,0.0,0.0,0.0,0.0,0.0,0.0,0.0,0.0,0.0,-4.4323,0.0,-4.403,0.0,0.0,0.0,0.0,0.0,0.0,0.0,0.0,-4.559,-4.5753,-4.5659,-4.5409,-4.5231,0.0,-4.4944,-4.4381,0.0,0.0,0.0,0.0,0.0,0.0,0.0,0.0,-4.3614,-4.3737,-4.4559,-4.5022,-4.4995,-4.472,-4.4598,-4.4598,-4.4598,-4.435,-4.3842,-4.3544,-4.298,0.0,0.0,0.0,0.0,0.0,0.0,0.0,0.0,0.0,0.0,0.0,0.0,0.0,0.0,0.0,0.0,0.0,0.0,0.0,0.0,0.0,0.0,0.0,-4.4012,0.0,0.0,0.0,0.0,0.0,0.0,0.0,0.0,0.0,-4.4598,-4.4598,-4.4598,-4.4598,-4.4835,-4.5415,-4.6616,0.0,0.0,0.0,0.0,0.0,0.0,0.0,-4.9055,-4.9246,-4.9203,-4.9129,-4.9074,-4.8429,-4.7753,-4.7024,0.0,0.0,-4.4813,-4.4456,-4.4322,-4.4306,-4.4322,-4.4322,-4.4322,-4.4188,-4.4068,0.0,0.0,0.0,0.0,0.0,0.0,0.0,0.0,-4.5865,-4.5847,0.0,-4.5057,0.0,0.0,0.0,0.0,0.0,-4.5571,0.0,0.0,-4.592,-4.5732,-4.5503,-4.5439,-4.5199,-4.4886,-4.4753,-4.4525,-4.4218,-4.3832,0.0,0.0,0.0,0.0,0.0,0.0,-4.3719,-4.4464,-4.4816,-4.5022,-4.4995,-4.4765,-4.4598,-4.4598,-4.4598,-4.4598,-4.4564,-4.3859,-4.3409,-4.3386,-4.204,0.0,0.0,0.0,0.0,0.0,0.0,0.0,0.0,0.0,0.0,0.0,0.0,0.0,0.0,0.0,0.0,0.0,0.0,0.0,0.0,-4.413,0.0,0.0,0.0,0.0,0.0,0.0,0.0,0.0,0.0,0.0,-4.4733,-4.4682,-4.4632,-4.4649,0.0,0.0,0.0,0.0,-4.8173,-4.89,-4.9035,-4.9052,-4.9052,-4.9086,-4.9277,-4.9746,0.0,0.0,-5.0039,-4.9461,-4.8929,-4.8941,-4.8206,-4.6977,-4.4529,-4.4028,-4.3857,-4.3841,-4.3905,-4.3763,-4.3747,-4.3976,-4.3788,-4.6948,0.0,0.0,0.0,0.0,-4.5902,-4.5902,-4.5902,-4.5902,-4.5902,-4.5883,-4.5645,0.0,0.0,0.0,0.0,0.0,0.0,-4.6745,-4.6725,-4.716,-4.7257,-4.7052,-4.678,-4.6564,-4.6364,-4.6033,-4.5517,-4.4841,-4.4636,-4.4097,-4.3272,0.0,0.0,0.0,0.0,-4.4231,-4.4371,-4.4852,-4.5113,-4.5022,-4.4831,-4.4726,-4.4598,-4.4598,-4.4598,-4.4598,-4.4395,-4.3995,-4.3409,-4.2987,0.0,0.0,0.0,0.0,0.0,0.0,0.0,0.0,0.0,0.0,0.0,0.0,0.0,0.0,0.0,0.0,0.0,0.0,0.0,-4.4181,-4.4451,-4.4598,0.0,0.0,0.0,0.0,0.0,0.0,0.0,0.0,0.0,-4.6075,-4.5703,-4.5382,0.0,0.0,-4.6752,-4.7496,-4.7753,-4.8142,-4.89,-4.9441,0.0,-4.9779,-5.0236,-5.0627,-5.0766,-5.049,-5.0126,-4.9795,-4.9229,-4.8687,-4.8445,-4.7814,-4.7035,-4.6303,-4.6106,-4.6128,-4.6182,-4.6182,-4.6197,-4.616,-4.616,-4.6015,-4.7737,-4.6856,-4.6838,-4.6856,-4.6856,-4.6856,-4.6856,-4.6874,-4.6856,-4.6856,-4.6819,-4.6507,-4.6379,-4.6379,-4.6397,0.0,0.0,0.0,-4.7513,-4.7492,-4.7733,-4.7765,-4.7533,-4.7267,-4.6957,-4.6684,-4.6447,-4.5958,-4.5309,-4.5217,-4.4916,-4.4371,0.0,0.0,-4.3788,-4.4213,-4.4518,-4.4734,-4.5033,-4.5167,-4.5069,-4.4913,-4.4748,-4.4682,-4.4643,-4.4598,-4.4598,-4.4598,-4.4367,-4.3893,-4.3301,-4.2557,0.0,0.0,0.0,0.0,0.0,0.0,0.0,0.0,0.0,0.0,0.0,-4.0967,-4.1999,0.0,0.0,0.0,-4.4147,-4.4536,-4.4993,-4.5309,0.0,0.0,0.0,0.0,0.0,0.0,0.0,-4.6092,-4.6143,-4.6295,-4.6735,-4.6667,-4.6464,-4.6177,-4.6769,-4.7411,-4.7821,0.0,-4.8951,-4.9373,-5.0067,-5.0524,-5.0524,-5.0913,-5.1221,-5.1311,-5.1142,-5.0789,-5.0308,-4.9798,-4.9315,-4.8882,-4.838,-4.7948,-4.778,-4.7765,-4.7532,-4.7052,-4.6943,-4.6943,-4.6943,-4.6928,-4.6904,-4.8306,-4.8324,-4.8306,-4.8306,-4.8324,-4.8324,-4.8306,-4.8324,-4.8306,-4.8324,-4.8251,-4.7516,-4.7204,-4.7186,-4.7186,0.0,-4.7223,-4.7897,-4.8187,-4.8168,-4.7845,-4.7533,-4.7258,-4.707,-4.6702,-4.6211,-4.6161,-4.5955,-4.5615,-4.5607,-4.5511,-4.5363,-4.4111,-4.3833,-4.4533,-4.4448,-4.4716,-4.538,-4.5274,-4.5203,-4.5194,-4.4899,-4.4735,-4.4718,-4.4529,-4.4412,-4.4412,-4.4412,-4.4429,-4.4378,-4.3047,-4.2252,-4.2168,0.0,0.0,0.0,0.0,0.0,0.0,0.0,0.0,0.0,0.0,0.0,0.0,0.0,0.0,0.0,-4.5348,0.0,-4.5759,-4.638,0.0,0.0,0.0,-4.6786,-4.6786,-4.6786,-4.6819,-4.687,0.0,0.0,-4.6955,-4.7581,-4.775,-4.7056,-4.7564,-4.799,-4.8041,-4.9221,-5.0101,-5.0168,-5.0828,-5.1269,-5.1269,-5.1388,-5.1495,-5.1577,-5.1696,-5.159,-5.1199,-5.0723,-5.0347,-4.9876,-4.9541,-4.9163,-4.8965,-4.8666,-4.8235,-4.7034,-4.6819,-4.6803,-4.6889,-4.6905,-4.6936,-4.8382,-4.8324,-4.8324,-4.8324,-4.8324,-4.8324,-4.8324,-4.8324,-4.8324,-4.8324,-4.8288,-4.8085,-4.8012,-4.7993,-4.8012,-4.7993,-4.803,-4.8135,-4.809,-4.7893,-4.7765,-4.7486,-4.707,-4.6819,-4.6518,-4.6186,-4.5879,-4.5693,-4.5589,-4.5502,-4.5423,-4.538,-4.5044,-4.5001,-4.5174,-4.5147,-4.5225,-4.5414,-4.5353,-4.53,-4.5203,-4.4485,-4.4078,-4.3953,-4.3338,-4.2952,-4.2871,-4.2828,-4.2855,-4.2855,-4.2489,-4.2033,-4.1474,-4.1136,0.0,0.0,0.0,0.0,0.0,0.0,0.0,0.0,0.0,-4.2422,-4.3308,0.0,-4.3978,0.0,-4.6109,-4.6456,-4.6321,-4.6473,0.0,0.0,-4.6574,-4.665,-4.6786,-4.6786,-4.7005,-4.7581,-4.7618,-4.7851,-4.8392,-4.8629,-4.868,-4.8511,-4.8629,-4.8951,-4.9492,-4.983,-5.0304,-5.0879,-5.1572,-5.2029,-5.2047,-5.2421,-5.2538,-5.2167,-5.1869,-5.1582,-5.1258,-5.0557,-4.9971,-4.9717,-4.9331,-4.9021,-4.8759,-4.862,-4.8527,-4.8204,-4.8127,-4.8142,-4.8127,-4.8127,-4.8127,-4.8457,-4.8382,-4.8343,-4.8324,-4.8324,-4.8324,-4.8324,-4.8324,-4.8324,-4.8324,-4.8324,-4.8324,-4.8324,-4.8324,-4.8324,-4.8267,-4.8247,-4.8168,-4.799,-4.7747,-4.7572,-4.7227,-4.6819,-4.6525,-4.6235,-4.5912,-4.5718,-4.5563,-4.5485,-4.545,-4.5414,-4.5414,-4.5414,-4.5414,-4.5414,-4.5414,-4.5414,-4.5414,-4.5414,-4.5371,-4.5283,-4.4446,-4.3964,-4.3868,-4.3055,-4.2541,-4.2409,-4.2383,-4.2356,-4.2269,-4.1982,-4.1627,-4.1221,-4.0899,-4.0679,0.0,0.0,0.0,0.0,0.0,0.0,0.0,0.0,0.0,0.0,0.0,-4.4749,-4.5858,-4.6615,-4.7036,-4.6898,-4.7183,-4.7429,-4.7524,-4.7524,-4.7585,-4.7784,-4.7767,-4.7936,-4.8359,-4.8409,-4.8562,-4.8951,-4.9018,-4.9018,-4.9018,-4.9272,-4.9627,-5.005,-5.0625,-5.1234,-5.1657,-5.235,-5.2808,-5.2724,-5.2892,-5.2868,-5.2288,-5.1855,-5.1466,-5.0994,-5.0363,-4.9797,-4.9517,-4.9225,-4.8898,-4.8676,-4.8604,-4.8604,-4.8604,-4.8604,-4.8604,-4.8604,-4.8604,-4.8604,-4.8531,-4.8494,-4.8382,-4.8306,-4.8324,-4.8324,-4.8324,-4.8324,-4.8324,-4.8324,-4.8324,-4.8324,-4.8324,-4.8324,-4.8324,-4.8267,-4.8187,-4.807,-4.7888,-4.7675,-4.7352,-4.6998,-4.6548,-4.6308,-4.598,-4.5607,-4.5581,-4.5502,-4.5414,-4.5414,-4.5414,-4.5414,-4.5414,-4.5414,-4.5414,-4.5414,-4.5414,-4.5414,-4.5414,-4.5414,-4.5397,-4.4475,-4.3967,-4.3932,-4.2997,-4.2381,-4.2243,-4.2217,-4.2147,-4.2008,-4.139,-4.1102,-4.1204,-4.0578,-4.0578,0.0,-4.1339,0.0,0.0,0.0,0.0,0.0,0.0,0.0,0.0,-4.5652,-4.5857,-4.6347,-4.7096,-4.7515,-4.7483,-4.8084,-4.8515,-4.8707,-4.8738,-4.8832,-4.8923,-4.9001,-4.9018,-4.9018,-4.9018,-4.9001,-4.9001,-4.9018,-4.9018,-4.9069,-4.9729,-5.0236,-5.0355,-5.1369,-5.2232,-5.2401,-5.2994,-5.3281,-5.3111,-5.2956,-5.2624,-5.2089,-5.1668,-5.1237,-5.0705,-5.0168,-4.9733,-4.9356,-4.9103,-4.8857,-4.862,-4.8604,-4.8604,-4.8604,-4.8604,-4.8604,-4.8604,-4.8604,-4.8604,-4.8661,-4.8494,-4.8457,-4.8419,-4.8324,-4.8324,-4.8324,-4.8324,-4.8324,-4.8324,-4.8324,-4.8324,-4.8324,-4.8324,-4.8324,-4.8248,-4.8187,-4.807,-4.7829,-4.7533,-4.7312,-4.6934,-4.6447,-4.6144,-4.5879,-4.5607,-4.5502,-4.5423,-4.5414,-4.5414,-4.5414,-4.5414,-4.5414,-4.5414,-4.5414,0.0,0.0,0.0,-4.5414,-4.5414,-4.5363,-4.4053,-4.3313,-4.3177,-4.1805,0.0,-4.0755,-4.0713,-4.0662,-4.0519,-4.0383,0.0,0.0,0.0,0.0,0.0,0.0,0.0,0.0,0.0,0.0,0.0,-4.5263,-4.5324,-4.5467,-4.6411,-4.6996,-4.7008,-4.7753,-4.8204,-4.7932,-4.8129,-4.826,-4.8292,-4.8452,-4.861,-4.8801,-4.8909,-4.9018,-4.9018,-4.9001,-4.9001,-4.9001,-4.9018,-4.9001,-4.9069,-5.0152,-5.0947,-5.098,-5.1742,-5.2536,-5.3145,-5.3247,-5.3179,-5.2972,-5.2642,-5.2288,-5.1871,-5.1371,-5.095,-5.0628,-4.9931,-4.9437,-4.9275,-4.8934,-4.8661,-4.862,-4.8604,-4.8604,-4.8604,-4.8604,-4.8604,-4.8604,-4.8604,-4.8604,-4.8715,0.0,-4.8531,-4.842,0.0,-4.8324,-4.8324,-4.8324,-4.8324,-4.8324,-4.8324,-4.8324,-4.8324,-4.8324,-4.8324,-4.8247,-4.809,-4.805,-4.777,-4.7385,-4.7183,-4.6865,-4.6381,-4.6038,-4.5778,-4.5589,-4.5476,-4.5414,-4.5414,-4.5414,-4.5414,-4.5414,-4.5414,-4.5414,-4.5414,-4.5414,-4.5414,-4.5414,-4.5414,-4.5414,-4.5345,-4.3983,-4.3139,-4.3055,-4.1626,0.0,0.0,0.0,0.0,0.0,0.0,0.0,0.0,0.0,0.0,-4.2794,-4.2844,-4.3183,-4.3927,-4.435,-4.4863,-4.5652,-4.6233,-4.6488,-4.6411,-4.7187,-4.7631,-4.7404,-4.7752,-4.7919,-4.777,-4.7886,-4.8017,-4.8082,-4.8227,-4.842,-4.8627,-4.8721,-4.8736,-4.8753,-4.8736,-4.8753,-4.8753,-4.8863,-4.8894,-4.8962,-5.016,-5.1105,-5.1206,-5.2049,-5.2876,-5.3145,-5.3041,-5.2852,-5.2607,-5.2288,-5.1891,-5.1503,-5.1054,-5.065,-5.0285,-4.9717,-4.9291,-4.9169,-4.8841,-4.862,-4.8604,-4.8604,-4.8604,-4.8604,-4.8604,-4.8604,-4.8604,-4.8604,-4.8604,-4.8715,-4.8587,-4.855,-4.842,-4.8324,-4.8324,-4.8324,-4.8324,0.0,0.0,0.0,-4.8324,-4.8324,-4.8324,-4.8324,-4.8228,-4.8032,-4.8012,-4.7749,-4.7341,-4.7116,-4.6801,-4.6381,-4.6005,-4.5727,-4.5607,-4.5476,-4.5414,-4.5414,-4.5414,-4.5414,-4.5414,-4.5414,-4.5414,-4.5414,-4.5414,-4.5414,-4.5414,-4.5414,-4.5414,-4.5363,-4.4078,-4.3396,-4.3379,-4.205,-4.1254,-4.1091,-4.0994,-4.087,-4.0696,-4.1172,-4.1484,-4.161,-4.2168,-4.2828,-4.3555,-4.3623,-4.3961,-4.475,-4.5348,-4.5793,-4.6,-4.6996,-4.7565,-4.7565,-4.7782,-4.7853,-4.7654,-4.7521,-4.747,-4.742,-4.7604,-4.7721,-4.7902,-4.8049,-4.8178,-4.8324,-4.8388,-4.842,-4.842,-4.842,-4.8452,-4.8452,-4.8627,-4.8738,-4.8923,-5.0016,-5.1076,-5.1346,-5.2252,-5.2957,-5.2886,-5.2661,-5.2414,-5.2183,-5.1858,-5.1524,-5.1205,-5.0771,-5.0347,-4.9955,-4.9557,-4.925,-4.9037,-4.8759,-4.8604,-4.8604,-4.8604,-4.8604,-4.8604,-4.8604,-4.8604,-4.8604,-4.8604,-4.8604,-4.8715,-4.8569,-4.8587,-4.8476,-4.8324,-4.8324,-4.8324,-4.8324,-4.8324,-4.8324,-4.8324,-4.8324,-4.8324,-4.8324,-4.8324,-4.8267,-4.8168,-4.807,-4.7809,-4.7468,-4.7249,-4.6888,-4.6398,-4.6087,-4.5854,-4.5607,-4.5459,-4.5414,-4.5414,-4.5414,-4.5414,-4.5414,-4.5414,-4.5414,-4.5414,-4.5414,-4.5414,-4.5414,-4.5414,-4.5414,-4.538,-4.4578,-4.4156,-4.4121,-4.331,-4.2787,-4.2679,-4.2636,-4.2492,-4.2201,-4.226,-4.2555,-4.3064,-4.32,-4.3606,-4.4361,-4.4429,-4.4739,-4.5483,-4.5652,-4.6157,-4.7252,-4.7941,-4.8253,-4.8094,-4.7869,-4.7605,-4.7302,-4.7403,-4.7436,-4.7301,-4.7386,-4.7537,-4.7587,-4.7688,-4.7787,-4.7836,-4.8001,-4.8066,-4.8066,-4.8163,-4.8227,-4.8227,-4.8388,-4.8515,-4.8716,-4.974,-5.1028,-5.1838,-5.2441,-5.2644,-5.259,-5.2307,-5.202,-5.1802,-5.1487,-5.1183,-5.0972,-5.0573,-5.0207,-4.9892,-4.9517,-4.921,-4.9037,-4.8759,-4.8604,-4.8604,-4.8604,-4.8604,-4.8604,-4.8604,-4.8604,-4.8604,-4.8604,-4.8604,-4.8697,-4.855,-4.8587,-4.8476,-4.8324,-4.8324,-4.8324,-4.8324,-4.8324,-4.8324,-4.8324,-4.8324,-4.8324,-4.8324,-4.8324,-4.8267,-4.8187,-4.807,-4.785,-4.7575,-4.7312,-4.698,-4.6613,-4.6168,-4.5905,-4.571,-4.5502,-4.5414,-4.5414,-4.5414,-4.5414,-4.5414,-4.5414,-4.5414,-4.5414,-4.5414,-4.5414,-4.5414,-4.5414,-4.5414,-4.5397,-4.4682,-4.4311,-4.4294,-4.3586,-4.3164,-4.3131,-4.303,-4.2911,-4.2792,-4.3107,-4.335,-4.3556,-4.3936,-4.4281,-4.4581,-4.4598,-4.4908,-4.5652,-4.6359,-4.7164,-4.8164,-4.8236,-4.813,-4.7935,-4.7605,-4.7319,-4.7064,-4.6943,-4.6858,-4.6876,-4.708,-4.7233,-4.7335,-4.7487,-4.7604,-4.7604,-4.7654,-4.7704,-4.7737,-4.7754,-4.782,-4.7836,-4.7968,-4.8065,-4.8182,-4.9343,-5.0615,-5.1678,-5.1818,-5.1891,-5.1944,-5.1635,-5.1392,-5.128,-5.0956,-5.065,-5.0402,-5.0129,-4.9797,-4.9493,-4.921,-4.9047,-4.8841,-4.8676,-4.8604,-4.8604,-4.8604,-4.8604,-4.8604,-4.8604,-4.8604,-4.8604,-4.8604,-4.8604,-4.8808,-4.8513,-4.855,-4.8476,-4.8324,-4.8324,-4.8324,-4.8324,-4.8324,-4.8324,-4.8324,-4.8324,-4.8324,-4.8324,-4.8324,-4.8267,-4.8208,-4.811,-4.7929,-4.7702,-4.7381,-4.7111,-4.6795,-4.6308,-4.6005,-4.5795,-4.5554,-4.5441,-4.5414,-4.5414,-4.5414,-4.5414,-4.5414,-4.5414,-4.5414,-4.5414,-4.5414,-4.5414,-4.5414,-4.5414,-4.538,-4.4837,-4.4544,-4.4518,-4.3992,-4.3682,-4.3682,-4.3605,-4.3529,-4.352,-4.3948,-4.4124,-4.4041,-4.4524,-4.4793,-4.4654,-4.4654,-4.5049,-4.5923,-4.716,-4.8116,-4.8656,-4.8293,-4.7886,-4.7654,-4.7268,-4.6996,-4.6807,-4.6545,-4.6404,-4.6528,-4.6668,-4.6823,-4.6996,-4.7115,-4.7183,-4.7233,-4.7217,-4.7233,-4.7233,-4.7267,-4.7301,-4.7319,-4.7404,-4.7668,-4.816,-4.8962,-5.0033,-5.0992,-5.107,-5.0994,-5.0978,-5.088,-5.0727,-5.0612,-5.0379,-5.0089,-4.9797,-4.9637,-4.9412,-4.9144,-4.9052,-4.8914,-4.8718,-4.8604,-4.8604,-4.8604,-4.8604,-4.8604,-4.8604,-4.8604,-4.8604,-4.8604,-4.8604,-4.8604,-4.9233,-4.8643,-4.8569,-4.842,-4.8306,-4.8324,-4.8324,-4.8324,-4.8324,-4.8324,-4.8324,-4.8324,-4.8324,-4.8324,-4.8324,-4.8287,-4.8286,-4.8226,-4.8032,-4.779,-4.7578,-4.7232,-4.6801,-4.6495,-4.6179,-4.5821,-4.5658,-4.5502,-4.5397,-4.5414,-4.5414,-4.5414,-4.5414,-4.5414,-4.5414,-4.5414,-4.5414,-4.5414,-4.5414,-4.5414,-4.5414,-4.5345,-4.5294,-4.5294,-4.5225,-4.519,-4.5104,-4.519,-4.5094,-4.5014,-4.4988,-4.502,-4.4903,-4.4944,-4.4923,-4.4793,-4.481,-4.5331,-4.6599,-4.7936,-4.8606,-4.8498,-4.8196,-4.7836,-4.7537,-4.6979,-4.6668,-4.6563,-4.6388,-4.6298,-4.6333,-4.6349,-4.6369,-4.6439,-4.6455,-4.642,-4.6455,-4.6404,-4.6404,-4.642,-4.6615,-4.6668,-4.6738,-4.6876,-4.7464,-4.8499,-4.8715,-4.9312,-5.0336,-5.0347,-5.005,-4.9955,-5.0018,-5.0113,-4.9876,-4.9717,-4.9597,-4.9437,-4.9356,-4.921,-4.9037,-4.8955,-4.8898,-4.8661,-4.8604,-4.8604,-4.8604,-4.8604,-4.8604,-4.8604,-4.8604,-4.8604,-4.8604,-4.8604,-4.8604,-4.9892,-4.9251,-4.927,-4.8918,-4.8437,-4.8343,-4.8324,-4.8324,-4.8324,-4.8324,-4.8324,-4.8324,-4.8324,-4.8324,-4.8324,-4.8324,-4.8305,-4.8246,-4.809,-4.7893,-4.7621,-4.7276,-4.6911,-4.6471,-4.6087,-4.5795,-4.5581,-4.5432,-4.5397,-4.5414,-4.5414,-4.5414,-4.5414,-4.5414,-4.5414,-4.5414,-4.5414,-4.5414,-4.5414,-4.5414,-4.5414,-4.5414,-4.5414,-4.5414,-4.5414,-4.5414,-4.5414,-4.5414,-4.5371,-4.5327,-4.5327,-4.5264,-4.514,-4.5123,-4.5059,-4.4975,-4.5682,-4.6316,-4.6781,-4.7959,-4.8532,-4.8324,-4.7919,-4.7571,-4.7183,-4.6703,-4.6333,-4.6136,-4.6028,-4.6044,-4.6152,-4.608,-4.6028,-4.6136,-4.61,-4.6012,-4.6012,-4.6012,-4.6012,-4.6012,-4.6068,-4.6175,-4.6282,-4.6439,-4.7084,-4.8166,-4.8408,-4.8801,-4.9749,-4.9836,-4.9597,-4.9331,-4.9396,-4.9477,-4.9396,-4.9437,-4.9331,-4.9184,-4.9144,-4.9037,-4.8841,-4.8759,-4.8718,-4.862,-4.8604,-4.8604,-4.8604,-4.8604,-4.8604,-4.8604,-4.8604,-4.8604,-4.8604,-4.8604,-4.8604,-5.064,-5.0098,-4.9916,-4.9473,-4.8788,-4.8493,-4.8325,-4.8324,-4.8324,-4.8324,-4.8324,-4.8324,-4.8324,-4.8324,-4.8324,-4.8324,-4.8305,-4.8247,-4.8149,-4.7972,-4.7702,-4.7359,-4.6998,-4.6525,-4.613,-4.5821,-4.5615,-4.5476,-4.5441,-4.5414,-4.5414,-4.5414,-4.5414,-4.5414,-4.5414,-4.5414,-4.5414,-4.5414,-4.5414,-4.5414,-4.5414,-4.5414,-4.5414,-4.5414,-4.5414,-4.5414,-4.5414,-4.5414,-4.5414,-4.5414,-4.5414,-4.5353,-4.5274,-4.5247,-4.5167,-4.5125,-4.6255,-4.6944,-4.6832,-4.7849,-4.842,-4.8195,-4.7721,-4.7267,-4.6876,-4.6439,-4.6064,-4.5844,-4.5714,-4.5698,-4.5807,-4.5735,-4.5719,-4.5812,-4.5703,-4.563,-4.563,-4.5646,-4.563,-4.563,-4.5614,-4.5703,-4.5848,-4.5968,-4.6443,-4.7551,-4.7861,-4.8275,-4.9157,-4.9412,-4.9291,-4.8939,-4.8898,-4.8965,-4.9072,-4.9072,-4.9047,-4.8965,-4.8898,-4.8816,-4.862,-4.862,-4.862,-4.8604,-4.8604,-4.8604,-4.8604,-4.8604,-4.8604,-4.8604,-4.8604,-4.8604,-4.8604,-4.8604,-4.8604,-5.1483,-5.095,-5.0306,-4.9899,-4.9599,-4.888,-4.8437,-4.8398,-4.8361,-4.8324,-4.8324,-4.8324,-4.8324,-4.8324,-4.8324,-4.8324,-4.8324,-4.8287,-4.819,-4.7992,-4.7783,-4.7443,-4.7002,-4.6708,-4.6301,-4.5821,-4.5718,-4.5607,-4.5414,-4.5414,-4.5414,-4.5414,-4.5414,-4.5414,-4.5414,-4.5414,-4.5414,-4.5414,-4.5414,-4.5414,-4.5414,-4.5414,-4.5414,-4.5414,-4.5414,-4.5414,-4.5414,-4.5414,-4.5414,-4.5414,-4.5414,-4.5397,-4.5397,-4.5414,-4.5247,-4.5193,-4.6255,-4.6961,-4.6989,-4.7866,-4.8388,-4.8163,-4.7605,-4.7115,-4.6823,-4.6243,-4.5844,-4.5771,-4.5442,-4.5241,-4.5257,-4.5278,-4.5257,-4.5294,-4.5241,-4.522,-4.5204,-4.5241,-4.5204,-4.5241,-4.5241,-4.5278,-4.5278,-4.5257,-4.5956,-4.6887,-4.727,-4.7692,-4.873,-4.9037,-4.8939,-4.8744,-4.8646,-4.8604,-4.8646,-4.8728,-4.8702,-4.8661,-4.8702,-4.862,-4.862,-4.8604,-4.8604,-4.8604,-4.8604,-4.8604,-4.8604,-4.8604,-4.8604,-4.8604,-4.8604,-4.8604,-4.8604,-4.8604,-4.8604,-5.2229,-5.1782,-5.1083,-5.0694,-5.0561,-5.019,-4.9707,-4.9151,-4.9132,-4.882,-4.8361,-4.8324,-4.8324,-4.8324,-4.8324,-4.8324,-4.8324,-4.8324,-4.819,-4.7992,-4.7804,-4.7443,-4.6998,-4.6566,-4.6154,-4.5821,-4.5615,-4.5502,-4.5423,-4.5414,-4.5414,-4.5414,-4.5414,-4.5414,-4.5414,-4.5414,-4.5414,-4.5414,-4.5414,-4.5414,-4.5414,-4.5414,-4.5414,-4.5414,-4.5414,-4.5414,-4.5414,-4.5414,-4.5414,-4.5414,-4.5414,-4.5414,-4.5414,-4.5414,-4.5488,-4.5757,-4.6595,-4.7177,-4.7376,-4.8039,-4.8324,-4.7886,-4.7471,-4.6996,-4.6561,-4.608,-4.5714,-4.5442,-4.5167,-4.498,-4.4852,-4.4927,-4.5002,-4.5002,-4.4889,-4.4814,-4.4814,-4.4814,-4.4814,-4.4867,-4.4927,-4.5002,-4.5039,-4.5145,-4.569,-4.6726,-4.7021,-4.7524,-4.8399,-4.8744,-4.8702,-4.8604,-4.8604,-4.8604,-4.8604,-4.8604,-4.8604,-4.8604,-4.8604,-4.8604,-4.8604,-4.8604,-4.8604,-4.8604,-4.8604,-4.8604,-4.8604,-4.8604,-4.8604,-4.8604,-4.8604,-4.8604,-4.8604,-4.8604,-4.8604,-5.2881,-5.2594,-5.1935,-5.1583,-5.1449,-5.1113,-5.0592,-5.0014,-4.9978,-4.9646,-4.9169,-4.9114,-4.9114,-4.9058,-4.8857,-4.871,-4.8673,-4.8453,-4.819,-4.7992,-4.7804,-4.7464,-4.6998,-4.6542,-4.6154,-4.5795,-4.5528,-4.5414,-4.5414,-4.5414,-4.5414,-4.5414,-4.5414,-4.5414,-4.5414,-4.5414,-4.5414,-4.5414,-4.5414,-4.5414,-4.5414,-4.5414,-4.5414,-4.5414,-4.5414,-4.5414,-4.5414,-4.5414,-4.5414,-4.5414,-4.5414,-4.5414,-4.5414,-4.5638,-4.5866,-4.6167,-4.7033,-4.7593,-4.7639,-4.8159,-4.826,-4.7737,-4.7352,-4.6858,-4.6333,-4.5864,-4.5515,-4.5204,-4.4964,-4.4723,-4.4648,-4.4723,-4.4799,-4.4799,-4.4701,-4.461,-4.461,-4.461,-4.461,-4.4648,-4.4723,-4.4799,-4.4799,-4.4927,-4.5432,-4.6377,-4.6655,-4.7201,-4.8045,-4.8496,-4.8604,-4.8604,-4.8604,-4.8604,-4.8604,-4.8604,-4.8604,-4.8604,-4.8604,-4.8604,-4.8604,-4.8604,-4.8604,-4.8604,-4.8604,-4.8604,-4.8604,-4.8604,-4.8604,-4.8604,-4.8604,-4.8604,-4.8604,-4.8604,-4.8604,-5.3481,-5.3354,-5.2845,-5.2473,-5.2226,-5.1596,-5.1074,-5.0841,-5.0802,-5.0692,-5.0472,-5.0655,-5.0545,-5.0545,-4.9848,-4.9592,-4.9462,-4.8874,-4.8336,-4.801,-4.7785,-4.7464,-4.6998,-4.6661,-4.6228,-4.577,-4.5511,-4.5414,-4.5414,-4.5414,-4.5414,-4.5414,-4.5414,-4.5414,-4.5414,-4.5414,-4.5414,-4.5414,-4.5414,-4.5414,-4.5414,-4.5414,-4.5414,-4.5414,-4.5414,-4.5414,-4.5414,-4.5414,-4.5414,-4.5414,-4.5414,-4.5414,-4.5569,-4.6104,-4.646,-4.6492,-4.7574,-4.8039,-4.7774,-4.8193,-4.826,-4.7704,-4.7218,-4.6738,-4.6298,-4.5667,-4.5241,-4.5167,-4.4852,-4.461,-4.461,-4.461,-4.4625,-4.4625,-4.461,-4.461,-4.461,-4.461,-4.461,-4.461,-4.461,-4.461,-4.461,-4.4648,-4.5002,-4.5665,-4.6273,-4.6905,-4.765,-4.8235,-4.8558,-4.8604,-4.8604,-4.8604,-4.8604,-4.8604,-4.8604,-4.8604,-4.8604,-4.8604,-4.8604,-4.8604,-4.8604,-4.8604,-4.8604,-4.8604,-4.8604,-4.8604,-4.8604,-4.8604,-4.8604,-4.8604,-4.8604,-4.8604,-4.8604,-5.342,-5.3501,-5.3398,-5.3267,-5.3113,-5.2853,-5.2346,-5.1667,-5.161,-5.1316,-5.0875,-5.082,-5.082,-5.0784,-5.0508,-5.0417,-5.038,-4.9988,-4.9228,-4.8154,-4.7822,-4.7461,-4.698,-4.6542,-4.6038,-4.5589,-4.545,-4.5414,-4.5414,-4.5414,-4.5414,-4.5414,-4.5414,-4.5414,-4.5414,-4.5414,-4.5414,-4.5414,-4.5414,-4.5414,-4.5414,-4.5414,-4.5414,-4.5414,-4.5414,-4.5414,-4.5414,-4.5414,-4.5414,-4.5414,-4.5414,-4.5638,-4.6138,-4.6431,-4.6942,-4.7632,-4.8087,-4.8367,-4.8286,-4.8348,-4.8227,-4.7654,-4.7149,-4.6738,-4.6298,-4.563,-4.522,-4.5182,-4.4867,-4.461,-4.461,-4.461,-4.461,-4.461,-4.461,-4.461,-4.461,-4.461,-4.461,-4.461,-4.461,-4.461,-4.461,-4.461,-4.4833,-4.5488,-4.6157,-4.6834,-4.7496,-4.8142,-4.8589,-4.8604,-4.8604,-4.8604,-4.8604,-4.8604,-4.8604,-4.8604,-4.8604,-4.8604,-4.8604,-4.8604,-4.8604,-4.8604,-4.8604,-4.8604,-4.8604,-4.8604,-4.8604,-4.8604,-4.8604,-4.8604,-4.8604,-4.8604,-4.8604,-5.338,-5.3481,-5.3598,-5.3578,-5.3499,-5.344,-5.306,-5.2493,-5.2454,-5.2142,-5.1756,-5.172,-5.1701,-5.1628,-5.1389,-5.1261,-5.1185,-5.0829,-4.9953,-4.8839,-4.8249,-4.7705,-4.6987,-4.635,-4.5897,-4.5528,-4.5423,-4.5414,-4.5414,-4.5414,-4.5414,-4.5414,-4.5414,-4.5414,-4.5414,-4.5414,-4.5414,-4.5414,-4.5414,-4.5414,-4.5414,-4.5414,-4.5414,-4.5414,-4.5414,-4.5414,-4.5414,-4.5414,-4.5414,-4.5414,-4.5414,-4.5793,-4.65,-4.6862,-4.7468,-4.8266,-4.8651,-4.877,-4.8606,-4.8513,-4.8195,-4.7588,-4.7183,-4.6789,-4.6333,-4.5719,-4.5405,-4.5167,-4.4927,-4.4685,-4.461,-4.461,-4.461,-4.461,-4.461,-4.461,-4.461,-4.461,-4.461,-4.461,-4.461,-4.461,-4.461,-4.4625,-4.4726,-4.5234,-4.6003,-4.6665,-4.7311,-4.8019,-4.8373,-4.8604,-4.8604,-4.8604,-4.8604,-4.8604,-4.8604,-4.8604,-4.8604,-4.8604,-4.8604,-4.8604,-4.8604,-4.8604,-4.8604,-4.8604,-4.8604,-4.8604,-4.8604,-4.8604,-4.8604,-4.8604,-4.8604,-4.8604,-4.8604,-5.3378,-5.3499,-5.3481,-5.3499,-5.3479,-5.3359,-5.3238,-5.317,-5.313,-5.3075,-5.3057,-5.2947,-5.3038,-5.2947,-5.2325,-5.2068,-5.1919,-5.1282,-5.0696,-5.0064,-4.9336,-4.8371,-4.7299,-4.6452,-4.597,-4.5754,-4.5519,-4.5414,-4.5414,-4.5414,-4.5414,-4.5414,-4.5414,-4.5414,-4.5414,-4.5414,-4.5414,-4.5414,-4.5414,-4.5414,-4.5414,-4.5414,-4.5414,-4.5414,-4.5414,-4.5414,-4.5414,-4.5414,-4.5414,-4.5414,-4.55,-4.5949,-4.6638,-4.7362,-4.8064,-4.8684,-4.9201,-4.9093,-4.8813,-4.8562,-4.8212,-4.7571,-4.7285,-4.6927,-4.6385,-4.5936,-4.5589,-4.5204,-4.5017,-4.4799,-4.4648,-4.461,-4.461,-4.461,-4.461,-4.461,-4.461,-4.461,-4.461,-4.461,-4.461,-4.461,-4.461,-4.461,-4.4641,-4.4902,-4.5757,-4.6511,-4.6927,-4.765,-4.8404,-4.8604,-4.8604,-4.8604,-4.8604,-4.8604,-4.8604,-4.8604,-4.8604,-4.8604,-4.8604,-4.8604,-4.8604,-4.8604,-4.8604,-4.8604,-4.8604,-4.8604,-4.8604,-4.8604,-4.8604,-4.8604,-4.8604,-4.8604,-4.8604,-5.3274,-5.3359,-5.3359,-5.3341,-5.3359,-5.3318,-5.3274,-5.3206,-5.3185,-5.3185,-5.3185,-5.3185,-5.3185,-5.3148,-5.2986,-5.2894,-5.2724,-5.237,-5.1824,-5.1202,-5.0606,-4.9472,-4.8166,-4.7132,-4.656,-4.6314,-4.582,-4.5414,-4.5414,-4.5483,-4.5449,-4.5414,-4.5432,-4.5414,-4.5414,-4.5414,-4.5414,-4.5414,-4.5414,-4.5414,-4.5414,-4.5414,-4.5414,-4.5414,-4.5414,-4.5414,-4.5414,-4.5414,-4.5414,-4.5449,-4.6027,-4.6631,-4.7338,-4.8051,-4.8718,-4.9262,-4.9406,-4.926,-4.8813,-4.8562,-4.8195,-4.7571,-4.7335,-4.6943,-4.6349,-4.6008,-4.5609,-4.5241,-4.5002,-4.4836,-4.4648,-4.461,-4.461,-4.461,-4.461,-4.461,-4.461,-4.461,-4.461,-4.461,-4.461,-4.461,-4.461,-4.461,-4.461,-4.4787,-4.5649,-4.6603,-4.6865,-4.7681,-4.8604,-4.8604,-4.8604,-4.8604,-4.8604,-4.8604,-4.8604,-4.8604,-4.8604,-4.8604,-4.8604,-4.8604,-4.8604,-4.8604,-4.8604,-4.8604,-4.8604,-4.8604,-4.8604,-4.8604,-4.8604,-4.8604,-4.8604,-4.8604,-4.8604,-5.3251,-5.3279,-5.3274,-5.3295,-5.3279,-5.3274,-5.323,-5.3206,-5.3185,-5.3185,-5.3185,-5.3185,-5.3185,-5.3185,-5.3185,-5.3185,-5.3164,-5.2912,-5.2466,-5.1919,-5.1299,-5.0087,-4.8678,-4.7727,-4.7341,-4.7054,-4.6569,-4.6431,-4.6328,-4.6096,-4.5941,-4.5845,-4.5569,-4.5414,-4.5414,-4.5414,-4.5414,-4.5414,-4.5414,-4.5414,-4.5414,-4.5414,-4.5414,-4.5414,-4.5414,-4.5414,-4.5414,-4.5414,-4.5414,-4.5552,-4.6155,-4.6958,-4.7655,-4.8379,-4.9091,-4.9744,-4.9619,-4.932,-4.8968,-4.8673,-4.8227,-4.7688,-4.742,-4.703,-4.6545,-4.6171,-4.5828,-4.5515,-4.5204,-4.4964,-4.4761,-4.4648,-4.461,-4.461,-4.461,-4.461,-4.461,-4.461,-4.461,-4.461,-4.461,-4.461,-4.461,-4.461,-4.461,-4.4856,-4.5726,-4.6326,-4.6742,-4.7835,-4.8604,-4.8604,-4.8604,-4.8604,-4.8604,-4.8604,-4.8604,-4.8604,-4.8604,-4.8604,-4.8604,-4.8604,-4.8604,-4.8604,-4.8604,-4.8604,-4.8604,-4.8604,-4.8604,-4.8604,-4.8604,-4.8604,-4.8604,-4.8604,-4.8604,-5.3212,-5.3277,-5.323,-5.323,-5.3256,-5.3209,-5.3206,-5.3185,-5.3185,-5.3185,-5.3185,-5.3185,-5.3185,-5.3185,-5.3185,-5.3185,-5.3185,-5.2912,-5.2608,-5.2154,-5.1551,-5.0442,-4.9118,-4.8495,-4.8095,-4.7814,-4.7769,-4.7579,-4.7355,-4.6924,-4.6751,-4.6613,-4.6052,-4.5742,-4.5845,-4.5707,-4.5535,-4.5587,-4.5466,-4.5414,-4.5414,-4.5414,-4.5414,-4.5414,-4.5414,-4.5414,-4.5414,-4.5414,-4.5449,-4.5552,-4.6286,-4.7086,-4.781,-4.8517,-4.9206,-4.9734,-4.9666,-4.9381,-4.9152,-4.8736,-4.8292,-4.7803,-4.7604,-4.7267,-4.6754,-4.6404,-4.6116,-4.5771,-4.5442,-4.5092,-4.4836,-4.4685,-4.461,-4.461,-4.461,-4.461,-4.461,-4.461,-4.461,-4.461,-4.461,-4.461,-4.461,-4.461,-4.461,-4.4718,-4.5649,-4.6372,-4.6927,-4.7804,-4.8389,-4.8604,-4.8604,-4.8604,-4.8604,-4.8604,-4.8604,-4.8604,-4.8604,-4.8604,-4.8604,-4.8604,-4.8604,-4.8604,-4.8604,-4.8604,-4.8604,-4.8604,-4.8604,-4.8604,-4.8604,-4.8604,-4.8604,-4.8604,-4.8604,-5.3188,-5.3227,-5.3206,-5.3206,-5.3227,-5.3206,-5.3185,-5.3185,-5.3185,-5.3185,-5.3185,-5.3185,-5.3185,-5.3185,-5.3185,-5.3185,-5.3164,-5.2912,-5.2581,-5.2132,-5.169,-5.1105,-5.018,-4.9437,-4.8875,-4.8549,-4.7948,-4.7741,-4.7683,-4.7665,-4.7448,-4.7396,-4.7189,-4.7172,-4.7079,-4.6562,-4.6355,-4.6224,-4.5742,-4.5449,-4.5414,-4.5414,-4.5414,-4.5414,-4.5414,-4.5414,-4.5414,-4.5414,-4.5707,-4.6355,-4.7017,-4.7689,-4.843,-4.9252,-4.9752,-4.9849,-4.9683,-4.9411,-4.9168,-4.8798,-4.8324,-4.7984,-4.7637,-4.7319,-4.6892,-4.6509,-4.6171,-4.5792,-4.5442,-4.5092,-4.4761,-4.4663,-4.461,-4.461,-4.461,-4.461,-4.461,-4.461,-4.461,-4.461,-4.461,-4.461,-4.461,-4.461,-4.4671,-4.481,-4.5449,-4.6403,-4.7111,-4.7788,-4.8204,-4.8527,-4.8604,-4.8604,-4.8604,-4.8604,-4.8604,-4.8604,-4.8604,-4.8604,-4.8604,-4.8604,-4.8604,-4.8604,-4.8604,-4.8604,-4.8604,-4.8604,-4.8604,-4.8604,-4.8604,-4.8604,-4.8604,-4.8604,-4.8604,-5.3185,-5.3185,-5.3185,-5.3185,-5.3185,-5.3185,-5.3185,-5.3185,-5.3185,-5.3185,-5.3185,-5.3185,-5.3185,-5.3185,-5.3185,-5.3185,-5.3103,-5.285,-5.249,-5.2084,-5.1683,-5.1255,-5.0785,-5.0188,-4.9656,-4.9332,-4.8999,-4.8803,-4.8717,-4.8407,-4.8189,-4.8137,-4.7924,-4.7631,-4.7717,-4.732,-4.6896,-4.6596,-4.6217,-4.5811,-4.5466,-4.5414,-4.5414,-4.5414,-4.5414,-4.5414,-4.5414,-4.5414,-4.6035,-4.6879,-4.7482,-4.8017,-4.8758,-4.9562,-4.9959,-4.9935,-4.9772,-4.9518,-4.9307,-4.8892,-4.8435,-4.8115,-4.7737,-4.7386,-4.703,-4.6684,-4.6333,-4.6028,-4.5682,-4.5278,-4.4814,-4.461,-4.461,-4.461,-4.461,-4.461,-4.461,-4.461,-4.461,-4.461,-4.461,-4.461,-4.461,-4.461,-4.461,-4.4718,-4.5257,-4.6126,-4.6773,-4.7434,-4.8081,-4.8419,-4.8543,-4.8604,-4.8604,-4.8604,-4.8604,-4.8604,-4.8604,-4.8604,-4.8604,-4.8604,-4.8604,-4.8604,-4.8604,-4.8604,-4.8604,-4.8604,-4.8604,-4.8604,-4.8604,-4.8604,-4.8604,-4.8604,-4.8604,-5.3185,-5.3185,-5.3185,-5.3185,-5.3185,-5.3185,-5.3185,-5.3185,-5.3185,-5.3185,-5.3185,-5.3185,-5.3185,-5.3185,-5.3185,-5.3185,-5.3039,-5.2761,-5.2397,-5.2102,-5.1658,-5.1228,-5.0785,-5.0467,-5.0159,-5.0022,-4.9838,-4.9838,-4.9666,-4.9378,-4.8999,-4.8879,-4.8413,-4.8338,-4.8165,-4.7862,-4.7534,-4.6975,-4.6613,-4.6104,-4.5535,-4.5414,-4.5414,-4.5414,-4.5414,-4.5414,-4.5414,-4.5518,-4.6086,-4.7562,-4.7717,-4.8172,-4.8913,-4.9516,-5.0011,-4.9964,-4.9784,-4.9637,-4.9411,-4.8998,-4.8562,-4.826,-4.7754,-4.747,-4.7217,-4.6858,-4.6493,-4.6227,-4.5884,-4.5478,-4.5002,-4.4761,-4.4648,-4.461,-4.461,-4.461,-4.461,-4.461,-4.461,-4.461,-4.461,-4.461,-4.461,-4.461,-4.461,-4.4702,-4.5218,-4.5818,-4.6496,-4.7157,-4.785,-4.8389,-4.8543,-4.8604,-4.8604,-4.8604,-4.8604,-4.8604,-4.8604,-4.8604,-4.8604,-4.8604,-4.8604,-4.8604,-4.8604,-4.8604,-4.8604,-4.8604,-4.8604,-4.8604,-4.8604,-4.8604,-4.8604,-4.8604,-4.8604,-5.3185,-5.3185,-5.3185,-5.3185,-5.3185,-5.3185,-5.3185,-5.3185,-5.3185,-5.3185,-5.3185,-5.3185,-5.3185,-5.3185,-5.3185,-5.3082,-5.289,-5.2608,-5.2333,-5.2036,-5.1607,-5.1176,-5.0793,-5.0519,-5.0246,-5.0051,-5.0011,-5.0011,-4.9993,-4.9855,-4.9683,-4.9735,-4.9579,-4.9476,-4.9252,-4.8947,-4.8137,-4.7389,-4.6872,-4.6217,-4.5587,-4.5414,-4.5414,-4.5414,-4.5414,-4.5414,-4.5414,-4.5466,-4.6104,-4.7482,-4.77,-4.8465,-4.9424,-4.9907,-4.9993,-4.9964,-4.983,-4.9696,-4.9441,-4.9029,-4.8688,-4.8339,-4.7853,-4.7537,-4.7319,-4.6977,-4.6563,-4.6262,-4.5848,-4.5405,-4.4949,-4.4874,-4.4761,-4.4685,-4.461,-4.461,-4.461,-4.461,-4.461,-4.461,-4.461,-4.461,-4.461,-4.461,-4.461,-4.4702,-4.5056,-4.5741,-4.6496,-4.7127,-4.7773,-4.8219,-4.8589,-4.8604,-4.8604,-4.8604,-4.8604,-4.8604,-4.8604,-4.8604,-4.8604,-4.8604,-4.8604,-4.8604,-4.8604,-4.8604,-4.8604,-4.8604,-4.8604,-4.8604,-4.8604,-4.8604,-4.8604,-4.8604,-4.8604,-5.3185,-5.3185,-5.3185,-5.3185,-5.3185,-5.3185,-5.3185,-5.3185,-5.3185,-5.3185,-5.3185,-5.3185,-5.3185,-5.3185,-5.3185,-5.3039,-5.2824,-5.2608,-5.2309,-5.1963,-5.1582,-5.1132,-5.0721,-5.0481,-5.0246,-5.0051,-5.0011,-5.0011,-4.9993,-4.9993,-5.0011,-4.9993,-5.0011,-5.0011,-4.9821,-4.9166,-4.8413,-4.7689,-4.6975,-4.6234,-4.5466,-4.5414,-4.5414,-4.5414,-4.5414,-4.5414,-4.5414,-4.5414,-4.6155,-4.7372,-4.7717,-4.8579,-4.951,-5.0011,-5.0011,-4.9964,-4.9906,-4.9742,-4.9488,-4.9107,-4.8767,-4.8452,-4.7886,-4.7537,-4.7386,-4.7064,-4.6633,-4.6298,-4.5972,-4.5552,-4.5278,-4.5039,-4.4874,-4.4761,-4.4648,-4.461,-4.461,-4.461,-4.461,-4.461,-4.461,-4.461,-4.461,-4.461,-4.461,-4.4748,-4.4949,-4.5626,-4.6403,-4.6957,-4.7511,-4.8235,-4.8604,-4.8604,-4.8604,-4.8604,-4.8604,-4.8604,-4.8604,-4.8604,-4.8604,-4.8604,-4.8604,-4.8604,-4.8604,-4.8604,-4.8604,-4.8604,-4.8604,-4.8604,-4.8604,-4.8604,-4.8604,-4.8604,-4.8604,-5.3185,-5.3185,-5.3185,-5.3185,-5.3185,-5.3185,-5.3185,-5.3185,-5.3185,-5.3185,-5.3185,-5.3185,-5.3185,-5.3185,-5.3164,-5.306,-5.2802,-5.2631,-5.2304,-5.1932,-5.1582,-5.1132,-5.0712,-5.0453,-5.0263,-5.0022,-5.0011,-5.0011,-5.0011,-5.0011,-5.0011,-5.0011,-5.0011,-4.9873,-4.9597,-4.9068,-4.8344,-4.7517,-4.6931,-4.619,-4.5604,-4.5414,-4.5414,-4.5414,-4.5414,-4.5414,-4.5414,-4.5414,-4.6207,-4.7207,-4.7855,-4.8396,-4.9683,-5.0011,-5.0011,-5.0011,-5.0011,-4.9801,-4.9518,-4.9185,-4.8846,-4.8515,-4.7853,-4.7571,-4.7352,-4.7064,-4.6684,-4.6369,-4.6044,-4.5787,-4.5552,-4.5241,-4.5039,-4.4874,-4.4761,-4.4648,-4.461,-4.461,-4.461,-4.461,-4.461,-4.461,-4.461,-4.461,-4.461,-4.461,-4.481,-4.5241,-4.5988,-4.6511,-4.7157,-4.8127,-4.8604,-4.8604,-4.8604,-4.8604,-4.8604,-4.8604,-4.8604,-4.8604,-4.8604,-4.8604,-4.8604,-4.8604,-4.8604,-4.8604,-4.8604,-4.8604,-4.8604,-4.8604,-4.8604,-4.8604,-4.8604,-4.8604,-4.8604,-5.3185,-5.3185,-5.3185,-5.3185,-5.3185,-5.3185,-5.3185,-5.3185,-5.3185,-5.3185,-5.3185,-5.3185,-5.3185,-5.3185,-5.3185,-5.3039,-5.2783,-5.254,-5.2239,-5.1882,-5.1505,-5.1079,-5.0612,-5.0481,-5.0263,-5.0022,-5.0011,-5.0011,-5.0011,-5.0011,-5.0011,-5.0011,-4.9873,-4.97,-4.9131,-4.8654,-4.8086,-4.6993,-4.6648,-4.6173,-4.5552,-4.5414,-4.5414,-4.5414,-4.5414,-4.5414,-4.5414,-4.5466,-4.6155,-4.7476,-4.7717,-4.8476,-4.9683,-5.0011,-5.0011,-5.0011,-4.9964,-4.9848,-4.9518,-4.9216,-4.8877,-4.8483,-4.7886,-4.7571,-4.7319,-4.703,-4.6668,-4.6598,-4.6243,-4.5988,-4.5771,-4.5536,-4.5262,-4.5039,-4.4874,-4.4723,-4.4648,-4.461,-4.461,-4.461,-4.461,-4.461,-4.461,-4.461,-4.461,-4.461,-4.4702,-4.5149,-4.5695,-4.6342,-4.7111,-4.8158,-4.8604,-4.8604,-4.8604,-4.8604,-4.8604,-4.8604,-4.8604,-4.8604,-4.8604,-4.8604,-4.8604,-4.8604,-4.8604,-4.8604,-4.8604,-4.8604,-4.8604,-4.8604,-4.8604,-4.8604,-4.8604,-4.8604,-4.8604,-5.3185,-5.3185,-5.3185,-5.3185,-5.3185,-5.3185,-5.3185,-5.3185,-5.3185,-5.3185,-5.3185,-5.3185,-5.3185,-5.3185,-5.3185,-5.3039,-5.2802,-5.2518,-5.2168,-5.179,-5.1436,-5.0999,-5.0592,-5.0425,-5.0246,-5.0051,-5.0011,-5.0011,-4.9993,-4.9993,-4.9993,-4.9924,-4.9579,-4.9172,-4.8551,-4.7958,-4.732,-4.6631,-4.6155,-4.5759,-4.55,-4.5414,-4.5414,-4.5414,-4.5414,-4.5414,-4.5414,-4.5432,-4.6173,-4.7345,-4.7717,-4.8441,-4.9579,-5.0011,-5.0011,-5.0011,-5.0011,-4.983,-4.9518,-4.926,-4.8923,-4.8483,-4.7984,-4.7521,-4.7217,-4.6961,-4.6703,-4.6582,-4.6369,-4.6152,-4.5952,-4.5662,-4.5389,-4.5151,-4.5002,-4.4799,-4.4648,-4.461,-4.461,-4.461,-4.461,-4.461,-4.461,-4.461,-4.461,-4.461,-4.4702,-4.5026,-4.5757,-4.665,-4.7481,-4.8404,-4.8604,-4.8604,-4.8604,-4.8604,-4.8604,-4.8604,-4.8604,-4.8604,-4.8604,-4.8604,-4.8604,-4.8604,-4.8604,-4.8604,-4.8604,-4.8604,-4.8604,-4.8604,-4.8604,-4.8604,-4.8604,-4.8604,-4.8604,-5.3185,-5.3185,-5.3185,-5.3185,-5.3185,-5.3185,-5.3185,-5.3185,-5.3185,-5.3185,-5.3185,-5.3185,-5.3185,-5.3185,-5.3185,-5.306,-5.2783,-5.2518,-5.212,-5.1747,-5.1376,-5.0936,-5.0554,-5.0359,-5.0235,-5.0011,-5.0011,-5.0011,-4.9942,-4.9786,-4.9614,-4.97,-4.92,-4.8551,-4.8,-4.732,-4.6596,-4.619,-4.5725,-4.5483,-4.5414,-4.5414,-4.5414,-4.5414,-4.5414,-4.5414,-4.5414,-4.5414,-4.6138,-4.7362,-4.7717,-4.8424,-4.9717,-5.0011,-5.0011,-5.0011,-5.0011,-4.9848,-4.9547,-4.9277,-4.8954,-4.8515,-4.7968,-4.7454,-4.7098,-4.6911,-4.6842,-4.6703,-4.6439,-4.6278,-4.6116,-4.5792,-4.5478,-4.5257,-4.5092,-4.4852,-4.4648,-4.461,-4.461,-4.461,-4.461,-4.461,-4.461,-4.461,-4.461,-4.461,-4.4748,-4.4949,-4.568,-4.6634,-4.7373,-4.8142,-4.8527,-4.8558,-4.8604,-4.8604,-4.8604,-4.8604,-4.8604,-4.8604,-4.8604,-4.8604,-4.8604,-4.8604,-4.8604,-4.8604,-4.8604,-4.8604,-4.8604,-4.8604,-4.8604,-4.8604,-4.8604,-4.8604,-4.8604,-5.3185,-5.3185,-5.3185,-5.3185,-5.3185,-5.3185,-5.3185,-5.3185,-5.3185,-5.3185,-5.3185,-5.3185,-5.3185,-5.3185,-5.3164,-5.306,-5.2783,-5.2518,-5.212,-5.1715,-5.1298,-5.0873,-5.0499,-5.0274,-5.0149,-5.0022,-4.9993,-4.9993,-4.9821,-4.9304,-4.9034,-4.881,-4.8482,-4.7793,-4.7207,-4.6682,-4.613,-4.5776,-4.5449,-4.5414,-4.5414,-4.5414,-4.5414,-4.5414,-4.5414,-4.5414,-4.5414,-4.5414,-4.6104,-4.7579,-4.7717,-4.8441,-4.9683,-4.9976,-5.0011,-5.0011,-5.0011,-4.9848,-4.9577,-4.932,-4.8968,-4.8467,-4.7802,-4.7158,-4.6937,-4.6914,-4.686,-4.6791,-4.6509,-4.6333,-4.6171,-4.5956,-4.5589,-4.5331,-4.5092,-4.4927,-4.4739,-4.461,-4.461,-4.461,-4.461,-4.461,-4.461,-4.461,-4.461,-4.461,-4.4656,-4.4856,-4.5403,-4.6265,-4.6927,-4.7619,-4.825,-4.8481,-4.8589,-4.8604,-4.8604,-4.8604,-4.8604,-4.8604,-4.8604,-4.8604,-4.8604,-4.8604,-4.8604,-4.8604,-4.8604,-4.8604,-4.8604,-4.8604,-4.8604,-4.8604,-4.8604,-4.8604,-4.8604,-5.3185,-5.3185,-5.3185,-5.3185,-5.3185,-5.3185,-5.3185,-5.3185,-5.3185,-5.3185,-5.3185,-5.3185,-5.3185,-5.3185,-5.3185,-5.306,-5.2783,-5.254,-5.212,-5.1715,-5.1272,-5.0846,-5.0499,-5.0274,-5.0149,-5.0022,-4.9976,-4.9648,-4.9172,-4.881,-4.812,-4.7758,-4.7534,-4.7189,-4.6648,-4.6165,-4.5707,-4.5552,-4.5414,-4.5414,-4.5414,-4.5414,-4.5414,-4.5414,-4.5414,-4.5414,-4.5414,-4.5414,-4.6328,-4.7269,-4.7648,-4.8648,-4.9717,-4.9942,-5.0011,-5.0011,-5.0011,-4.9877,-4.9649,-4.9359,-4.8873,-4.7636,-4.6797,-4.629,-4.6549,-4.6363,-4.6554,-4.6579,-4.6528,-4.6298,-4.6243,-4.6008,-4.5662,-4.5331,-4.5092,-4.4927,-4.4776,-4.4648,-4.461,-4.461,-4.461,-4.461,-4.461,-4.461,-4.461,-4.461,-4.4671,-4.4825,-4.5326,-4.5834,-4.6465,-4.7142,-4.7773,-4.8281,-4.8404,-4.8496,-4.8589,-4.8604,-4.8604,-4.8604,-4.8604,-4.8604,-4.8604,-4.8604,-4.8604,-4.8604,-4.8604,-4.8604,-4.8604,-4.8604,-4.8604,-4.8604,-4.8604,-4.8604,-4.8604,-5.3185,-5.3185,-5.3185,-5.3185,-5.3185,-5.3185,-5.3185,-5.3185,-5.3185,-5.3185,-5.3185,-5.3185,-5.3185,-5.3185,-5.3185,-5.306,-5.2783,-5.2518,-5.2138,-5.1715,-5.1272,-5.0846,-5.0499,-5.0274,-5.0149,-4.9988,-4.9666,-4.9286,-4.8879,-4.8407,-4.7631,-4.6879,-4.6345,-4.6242,-4.6086,-4.5759,-4.5414,-4.5414,-4.5414,-4.5414,-4.5414,-4.5414,-4.5414,-4.5414,-4.5414,-4.5414,-4.5414,-4.5483,-4.6207,-4.7182,-4.7872,-4.8545,-4.9407,-5.0011,-5.0011,-5.0011,-4.9964,-4.9906,-4.9708,-4.9044,-4.8457,-4.7385,-4.6104,-4.5865,-4.5946,-4.5958,-4.6196,-4.6761,-4.6545,-4.6298,-4.6278,-4.5936,-4.5589,-4.5257,-4.5092,-4.4927,-4.4723,-4.461,-4.461,-4.461,-4.461,-4.461,-4.461,-4.461,-4.461,-4.461,-4.4625,-4.4733,-4.501,-4.5464,-4.5972,-4.665,-4.7311,-4.7788,-4.8189,-4.8373,-4.8543,-4.8604,-4.8604,-4.8604,-4.8604,-4.8604,-4.8604,-4.8604,-4.8604,-4.8604,-4.8604,-4.8604,-4.8604,-4.8604,-4.8604,-4.8604,-4.8604,-4.8604,-4.8604,-5.3148,-5.3185,-5.3185,-5.3185,-5.3185,-5.3185,-5.3185,-5.3185,-5.3185,-5.3185,-5.3185,-5.3185,-5.3185,-5.3185,-5.3185,-5.3039,-5.2783,-5.254,-5.2168,-5.174,-5.1324,-5.0855,-5.0526,-5.0257,-5.0045,-4.9815,-4.939,-4.893,-4.8551,-4.7551,-4.6793,-4.6362,-4.5897,-4.5587,-4.5466,-4.5449,-4.5414,-4.5414,-4.5414,-4.5414,-4.5414,-4.5414,-4.5414,-4.5414,-4.5414,-4.5414,-4.5414,-4.5414,-4.6173,-4.7379,-4.77,-4.8493,-4.9769,-4.9976,-5.0011,-5.0011,-5.0011,-4.9889,-4.9691,-4.8425,-4.7639,-4.708,-4.5801,-4.5339,-4.593,-4.6026,-4.5936,-4.6435,-4.6429,-4.6298,-4.6136,-4.5848,-4.5499,-4.5257,-4.5092,-4.4889,-4.4685,-4.461,-4.461,-4.461,-4.461,-4.461,-4.461,-4.461,-4.461,-4.461,-4.461,-4.4702,-4.4841,-4.5103,-4.5526,-4.6049,-4.6726,-4.7311,-4.7773,-4.825,-4.8481,-4.8558,-4.8604,-4.8604,-4.8604,-4.8604,-4.8604,-4.8604,-4.8604,-4.8604,-4.8604,-4.8604,-4.8604,-4.8604,-4.8604,-4.8604,-4.8604,-4.8604,-4.8604,-5.2399,-5.2454,-5.2986,-5.3185,-5.3185,-5.3185,-5.3185,-5.3185,-5.3185,-5.3185,-5.3185,-5.3185,-5.3185,-5.3185,-5.3164,-5.306,-5.2806,-5.2631,-5.2286,-5.1833,-5.1384,-5.0955,-5.0557,-5.0209,-4.9855,-4.9298,-4.881,-4.8103,-4.7258,-4.6672,-4.6242,-4.5811,-4.5621,-4.5449,-4.5414,-4.5414,-4.5414,-4.5414,-4.5414,-4.5414,-4.5414,-4.5414,-4.5414,-4.5414,-4.5414,-4.5414,-4.5414,-4.5414,-4.619,-4.7448,-4.77,-4.8476,-4.9683,-5.0011,-5.0011,-5.0011,-4.9982,-4.9906,-4.9335,-4.8298,-4.7175,-4.6462,-4.5374,-4.4547,-4.4833,-4.5098,-4.5451,-4.5993,-4.6266,-4.6198,-4.6116,-4.5771,-4.5442,-4.522,-4.5055,-4.4852,-4.4685,-4.461,-4.461,-4.461,-4.461,-4.461,-4.461,-4.461,-4.461,-4.461,-4.461,-4.461,-4.4718,-4.4779,-4.5033,-4.5495,-4.608,-4.6742,-4.7311,-4.7681,-4.8189,-4.8404,-4.8512,-4.8604,-4.8604,-4.8604,-4.8604,-4.8604,-4.8604,-4.8604,-4.8604,-4.8604,-4.8604,-4.8604,-4.8604,-4.8604,-4.8604,-4.8604,-4.8604,-5.1738,-5.2032,-5.2564,-5.2968,-5.3167,-5.3185,-5.3185,-5.3185,-5.3185,-5.3185,-5.3185,-5.3185,-5.3185,-5.3185,-5.3164,-5.306,-5.2824,-5.2654,-5.2374,-5.1907,-5.1495,-5.107,-5.0642,-5.0102,-4.9569,-4.8871,-4.8165,-4.7431,-4.6751,-4.6372,-4.5931,-4.5569,-4.5414,-4.5414,-4.5414,-4.5414,-4.5414,-4.5414,-4.5414,-4.5414,-4.5414,-4.5414,-4.5414,-4.5414,-4.5414,-4.5414,-4.5414,-4.5638,-4.6104,-4.7189,-4.7924,-4.8459,-4.9493,-5.0011,-5.0011,-5.0011,-4.9964,-4.9935,-4.9457,-4.8128,-4.7206,-4.6752,-4.466,-4.3864,-4.4176,-4.4691,-4.5144,-4.5636,-4.6022,-4.6131,-4.6044,-4.5698,-4.5368,-4.5145,-4.4942,-4.4723,-4.4648,-4.461,-4.461,-4.461,-4.461,-4.461,-4.461,-4.461,-4.461,-4.461,-4.461,-4.461,-4.461,-4.4671,-4.4733,-4.5103,-4.5495,-4.608,-4.6603,-4.6988,-4.7527,-4.8158,-4.8312,-4.8358,-4.8604,-4.8604,-4.8604,-4.8604,-4.8604,-4.8604,-4.8604,-4.8604,-4.8604,-4.8604,-4.8604,-4.8604,-4.8604,-4.8604,-4.8604,-5.1224,-5.1885,-5.1958,-5.2454,-5.3078,-5.3148,-5.3185,-5.3185,-5.3185,-5.3185,-5.3185,-5.3185,-5.3185,-5.3185,-5.3185,-5.3039,-5.2828,-5.2676,-5.2351,-5.1963,-5.1615,-5.1184,-5.0514,-4.9821,-4.9149,-4.8429,-4.7679,-4.6924,-4.6475,-4.5949,-4.5535,-4.5432,-4.5414,-4.5414,-4.5414,-4.5414,-4.5414,-4.5414,-4.5414,-4.5414,-4.5414,-4.5414,-4.5414,-4.5414,-4.5414,-4.5414,-4.5414,-4.55,-4.631,-4.7121,-4.7751,-4.8683,-4.9441,-4.9976,-5.0011,-5.0011,-5.0011,-4.9964,-4.9694,-4.8243,-4.7312,-4.6712,-4.4884,-4.4227,-4.4092,-4.4429,-4.482,-4.5296,-4.5715,-4.592,-4.6008,-4.5609,-4.5204,-4.5017,-4.4814,-4.4685,-4.461,-4.461,-4.461,-4.461,-4.461,-4.461,-4.461,-4.461,-4.461,-4.461,-4.461,-4.461,-4.461,-4.461,-4.4671,-4.4718,-4.5133,-4.5464,-4.5911,-4.6357,-4.685,-4.7465,-4.7804,-4.7942,-4.825,-4.8558,-4.8604,-4.8604,-4.8604,-4.8604,-4.8604,-4.8604,-4.8604,-4.8604,-4.8604,-4.8604,-4.8604,-4.8604,-4.8604,-5.0088,-5.04,-5.1538,-5.2142,-5.2417,-5.2968,-5.3185,-5.3185,-5.3185,-5.3185,-5.3185,-5.3185,-5.3185,-5.3185,-5.3185,-5.3039,-5.289,-5.2717,-5.2439,-5.209,-5.1651,-5.0977,-5.0259,-4.9466,-4.863,-4.7694,-4.6867,-4.6286,-4.5845,-4.5414,-4.5414,-4.5414,-4.5414,-4.5414,-4.5414,-4.5414,-4.5414,-4.5414,-4.5414,-4.5414,-4.5414,-4.5414,-4.5414,-4.5414,-4.5414,-4.5414,-4.5414,-4.5414,-4.6224,-4.7362,-4.7665,-4.8459,-4.9821,-5.0011,-5.0011,-5.0011,-5.0011,-4.9947,-4.9677,-4.8306,-4.7233,-4.6697,-4.5076,-4.4022,-4.3864,-4.4067,-4.4448,-4.4876,-4.5291,-4.5543,-4.5701,-4.5426,-4.5129,-4.4964,-4.4776,-4.4648,-4.461,-4.461,-4.461,-4.461,-4.461,-4.461,-4.461,-4.461,-4.461,-4.461,-4.461,-4.461,-4.461,-4.461,-4.461,-4.4656,-4.4779,-4.511,-4.5403,-4.5818,-4.628,-4.6726,-4.705,-4.7465,-4.7881,-4.8189,-4.8466,-4.8604,-4.8604,-4.8604,-4.8604,-4.8604,-4.8604,-4.8604,-4.8604,-4.8604,-4.8604,-4.8604,-4.8604,-4.9298,-4.9721,-5.0582,-5.1353,-5.2013,-5.2527,-5.2876,-5.3148,-5.3185,-5.3185,-5.3185,-5.3185,-5.3185,-5.3185,-5.3185,-5.306,-5.2806,-5.2761,-5.2554,-5.2054,-5.1511,-5.0784,-4.9976,-4.8907,-4.7874,-4.7002,-4.6358,-4.5828,-4.5483,-4.5414,-4.5414,-4.5414,-4.5414,-4.5414,-4.5414,-4.5414,-4.5414,-4.5414,-4.5414,-4.5414,-4.5414,-4.5414,-4.5414,-4.5414,-4.5414,-4.5414,-4.5414,-4.5414,-4.6224,-4.7414,-4.77,-4.8441,-4.9683,-5.0011,-5.0011,-5.0011,-5.0011,-5.0011,-4.9694,-4.8363,-4.7529,-4.6686,-4.5346,-4.424,-4.3817,-4.3914,-4.4091,-4.4388,-4.4788,-4.5147,-4.5232,-4.5241,-4.5092,-4.4927,-4.4761,-4.461,-4.461,-4.461,-4.461,-4.461,-4.461,-4.461,-4.461,-4.461,-4.461,-4.461,-4.461,-4.461,-4.461,-4.461,-4.461,-4.4625,-4.4671,-4.481,-4.5103,-4.5311,-4.5634,-4.6003,-4.6265,-4.6711,-4.7327,-4.785,-4.8158,-4.8404,-4.8604,-4.8604,-4.8604,-4.8604,-4.8604,-4.8604,-4.8604,-4.8604,-4.8604,-4.8604,-4.8604,-4.8765,-4.9482,-4.9499,-5.051,-5.1793,-5.2016,-5.2435,-5.3093,-5.313,-5.3185,-5.3185,-5.3185,-5.3185,-5.3185,-5.3164,-5.302,-5.2846,-5.2757,-5.2345,-5.1958,-5.1057,-5.0268,-4.9197,-4.8075,-4.7248,-4.6621,-4.6109,-4.5569,-4.5466,-4.5414,-4.5414,-4.5414,-4.5414,-4.5414,-4.5414,-4.5414,-4.5414,-4.5414,-4.5414,-4.5414,-4.5414,-4.5414,-4.5414,-4.5414,-4.5414,-4.5414,-4.5414,-4.5638,-4.6069,-4.7052,-4.7889,-4.8476,-4.9459,-5.0011,-5.0011,-5.0011,-5.0011,-5.0011,-4.9642,-4.8564,-4.7746,-4.68,-4.554,-4.4498,-4.4029,-4.3678,-4.3734,-4.3955,-4.4357,-4.4673,-4.482,-4.4995,-4.4949,-4.4836,-4.4685,-4.461,-4.461,-4.461,-4.461,-4.461,-4.461,-4.461,-4.461,-4.461,-4.461,-4.461,-4.461,-4.461,-4.461,-4.461,-4.461,-4.461,-4.4625,-4.4656,-4.4718,-4.4895,-4.5018,-4.5295,-4.5603,-4.6034,-4.6696,-4.7281,-4.7865,-4.8235,-4.8604,-4.8604,-4.8604,-4.8604,-4.8604,-4.8604,-4.8604,-4.8604,-4.8604,-4.8604,-4.8604,-4.8416,-4.8673,-4.9317,-5.016,-5.1114,-5.1756,-5.2068,-5.2344,-5.2968,-5.3148,-5.3185,-5.3185,-5.3185,-5.3185,-5.3103,-5.2955,-5.2806,-5.2481,-5.1971,-5.1305,-5.0508,-4.9454,-4.8498,-4.7463,-4.669,-4.61,-4.565,-4.5414,-4.5414,-4.5414,-4.5414,-4.5414,-4.5414,-4.5414,-4.5414,-4.5414,-4.5414,-4.5414,-4.5414,-4.5414,-4.5414,-4.5414,-4.5414,-4.5414,-4.5414,-4.5414,-4.5414,-4.5466,-4.5966,-4.6734,-4.7424,-4.8476,-4.9855,-4.9959,-5.0011,-5.0011,-5.0011,-5.0011,-4.9706,-4.8948,-4.8117,-4.7199,-4.6067,-4.4966,-4.4114,-4.3572,-4.3422,-4.3669,-4.3906,-4.4189,-4.4507,-4.4719,-4.4821,-4.4723,-4.4648,-4.461,-4.461,-4.461,-4.461,-4.461,-4.461,-4.461,-4.461,-4.461,-4.461,-4.461,-4.461,-4.461,-4.461,-4.461,-4.461,-4.461,-4.461,-4.461,-4.461,-4.4641,-4.4772,-4.4941,-4.5249,-4.568,-4.6142,-4.6988,-4.7804,-4.8281,-4.8604,-4.8604,-4.8604,-4.8604,-4.8604,-4.8604,-4.8604,-4.8604,-4.8604,-4.8604,-4.8604,-4.8324,-4.8342,-4.8802,-4.9499,-5.0251,-5.0747,-5.1114,-5.1573,-5.2325,-5.2674,-5.2747,-5.3023,-5.3185,-5.3164,-5.306,-5.2875,-5.2652,-5.2159,-5.1576,-5.0821,-4.9685,-4.8664,-4.7706,-4.6862,-4.629,-4.5736,-4.5546,-4.5414,-4.5414,-4.5414,-4.5414,-4.5414,-4.5414,-4.5414,-4.5414,-4.5414,-4.5414,-4.5414,-4.5414,-4.5414,-4.5414,-4.5414,-4.5414,-4.5414,-4.5414,-4.5414,-4.5414,-4.5449,-4.5897,-4.6707,-4.7603,-4.8327,-4.939,-4.9786,-4.9976,-5.0011,-5.0011,-4.9993,-4.974,-4.9235,-4.8455,-4.762,-4.6482,-4.5296,-4.4608,-4.4101,-4.3712,-4.3879,-4.364,-4.3851,-4.4539,-4.4887,-4.4761,-4.4663,-4.461,-4.461,-4.461,-4.461,-4.461,-4.461,-4.461,-4.461,-4.461,-4.461,-4.461,-4.461,-4.461,-4.461,-4.461,-4.461,-4.461,-4.461,-4.461,-4.461,-4.461,-4.461,-4.4656,-4.4787,-4.4957,-4.5557,-4.6172,-4.7019,-4.7773,-4.8296,-4.8604,-4.8604,-4.8604,-4.8604,-4.8604,-4.8604,-4.8604,-4.8604,-4.8604,-4.8604,-4.8604,-4.8287,-4.8287,-4.8305,-4.8689,-4.9351,-4.9533,-4.9955,-5.065,-5.144,-5.1789,-5.1878,-5.2593,-5.2981,-5.3124,-5.2999,-5.2799,-5.2381,-5.161,-5.0993,-4.9913,-4.8692,-4.7809,-4.7046,-4.6288,-4.5875,-4.5615,-4.545,-4.5423,-4.5414,-4.5414,-4.5414,-4.5414,-4.5414,-4.5414,-4.5414,-4.5414,-4.5414,-4.5414,-4.5414,-4.5414,-4.5414,-4.5414,-4.5414,-4.5414,-4.5414,-4.5414,-4.5414,-4.5518,-4.5862,-4.65,-4.7431,-4.812,-4.8758,-4.9286,-4.9585,-4.9671,-4.9924,-4.9959,-4.9844,-4.9447,-4.8861,-4.814,-4.6857,-4.5947,-4.5324,-4.4765,-4.4375,-4.4138,-4.3899,-4.378,-4.4465,-4.4843,-4.4723,-4.4625,-4.461,-4.461,-4.461,-4.461,-4.461,-4.461,-4.461,-4.461,-4.461,-4.461,-4.461,-4.461,-4.461,-4.461,-4.461,-4.461,-4.461,-4.461,-4.461,-4.461,-4.461,-4.461,-4.461,-4.4641,-4.4849,-4.5511,-4.6157,-4.6834,-4.7573,-4.8373,-4.8604,-4.8604,-4.8604,-4.8604,-4.8604,-4.8604,-4.8604,-4.8604,-4.8604,-4.8604,-4.8604,-4.8248,-4.8226,-4.8226,-4.8279,-4.8419,-4.8983,-4.9385,-4.9622,-5.0355,-5.0702,-5.0921,-5.156,-5.2258,-5.3002,-5.2783,-5.2336,-5.1452,-5.0806,-4.9621,-4.8431,-4.7822,-4.7051,-4.6407,-4.5943,-4.5615,-4.5476,-4.5423,-4.5397,-4.5414,-4.5414,-4.5414,-4.5414,-4.5414,-4.5414,-4.5414,-4.5414,-4.5414,-4.5414,-4.5414,-4.5414,-4.5414,-4.5414,-4.5414,-4.5414,-4.5414,-4.5414,-4.5414,-4.5414,-4.5483,-4.5862,-4.6579,-4.7345,-4.7965,-4.8586,-4.8965,-4.9327,-4.9568,-4.989,-4.9769,-4.9717,-4.9303,-4.8607,-4.7578,-4.7102,-4.6404,-4.5632,-4.5336,-4.5228,-4.4829,-4.4087,-4.4434,-4.4673,-4.4648,-4.461,-4.461,-4.461,-4.461,-4.461,-4.461,-4.461,-4.461,-4.461,-4.461,-4.461,-4.461,-4.461,-4.461,-4.461,-4.461,-4.461,-4.461,-4.461,-4.461,-4.461,-4.461,-4.461,-4.461,-4.461,-4.4741,-4.5418,-4.5988,-4.6465,-4.7219,-4.8266,-4.8589,-4.8604,-4.8604,-4.8604,-4.8604,-4.8604,-4.8604,-4.8604,-4.8604,-4.8604,-4.8604]},{"header":{"parameterUnit":"m.s-1","parameterCategory":1,"la1":31.0,"la2":29.5877,"lo1":-88.7671,"lo2":-86.6584,"dy":0.0162,"dx":0.0185,"nx":115,"ny":88,"refTime":"2023-03-05T18:00:00:Z","depth":0,"parameterNumber":3,"parameterNumberName":"V-component_of_WINDS"},"data":[0.0,0.0,0.0,0.0,0.0,0.0,0.0,0.0,0.0,0.0,0.0,0.0,0.0,0.0,0.0,0.0,0.0,0.0,0.0,0.0,0.0,0.0,0.0,0.0,0.0,0.0,0.0,0.0,0.0,0.0,0.0,0.0,0.0,0.0,0.0,0.0,0.0,0.0,0.0,0.0,0.0,0.0,0.0,0.0,0.0,0.0,0.0,0.0,0.0,0.0,0.0,0.0,0.0,0.0,0.0,0.0,0.0,0.0,0.0,0.0,0.0,0.0,0.0,0.0,0.0,0.0,0.0,0.0,0.0,0.0,0.0,0.0,0.0,0.0,0.0,0.0,0.0,0.0,0.0,0.0,0.0,0.0,0.0,0.0,0.0,0.0,0.0,0.0,0.0,0.0,0.0,0.0,0.0,0.0,0.0,0.0,0.0,0.0,0.0,0.0,0.0,0.0,0.0,0.0,0.0,0.0,0.0,0.0,0.0,0.0,0.0,0.0,0.0,0.0,0.0,0.0,0.0,0.0,0.0,0.0,0.0,0.0,0.0,0.0,0.0,0.0,0.0,0.0,0.0,0.0,0.0,0.0,0.0,0.0,0.0,0.0,0.0,0.0,0.0,0.0,0.0,0.0,0.0,0.0,0.0,0.0,0.0,0.0,0.0,0.0,0.0,0.0,0.0,0.0,0.0,0.0,0.0,0.0,0.0,0.0,0.0,0.0,0.0,0.0,0.0,0.0,0.0,0.0,0.0,0.0,0.0,0.0,0.0,0.0,0.0,0.0,0.0,0.0,0.0,0.0,0.0,0.0,0.0,0.0,0.0,0.0,0.0,0.0,0.0,0.0,0.0,0.0,0.0,0.0,0.0,0.0,0.0,0.0,0.0,0.0,0.0,0.0,0.0,0.0,0.0,0.0,0.0,0.0,0.0,0.0,0.0,0.0,0.0,0.0,0.0,0.0,0.0,0.0,0.0,0.0,0.0,0.0,0.0,0.0,0.0,0.0,0.0,0.0,0.0,0.0,0.0,0.0,0.0,0.0,0.0,0.0,0.0,0.0,0.0,0.0,0.0,0.0,0.0,0.0,0.0,0.0,0.0,0.0,0.0,0.0,0.0,0.0,0.0,0.0,0.0,0.0,0.0,0.0,0.0,0.0,0.0,0.0,0.0,0.0,0.0,0.0,0.0,0.0,0.0,0.0,0.0,0.0,0.0,0.0,0.0,0.0,0.0,0.0,0.0,0.0,0.0,0.0,0.0,0.0,0.0,0.0,0.0,0.0,0.0,0.0,0.0,0.0,0.0,0.0,0.0,0.0,0.0,0.0,0.0,0.0,0.0,0.0,0.0,0.0,0.0,0.0,0.0,0.0,0.0,0.0,0.0,0.0,0.0,0.0,0.0,0.0,0.0,0.0,0.0,0.0,0.0,0.0,0.0,0.0,0.0,0.0,0.0,0.0,0.0,0.0,0.0,0.0,0.0,0.0,0.0,0.0,0.0,0.0,0.0,0.0,0.0,0.0,0.0,0.0,0.0,0.0,0.0,0.0,0.0,0.0,0.0,0.0,0.0,0.0,0.0,0.0,0.0,0.0,0.0,0.0,0.0,0.0,0.0,0.0,0.0,0.0,0.0,0.0,0.0,0.0,0.0,0.0,0.0,0.0,0.0,0.0,0.0,0.0,0.0,0.0,0.0,0.0,0.0,0.0,0.0,0.0,0.0,0.0,0.0,0.0,0.0,0.0,0.0,0.0,0.0,0.0,0.0,0.0,0.0,0.0,0.0,0.0,0.0,0.0,0.0,0.0,0.0,0.0,0.0,0.0,0.0,0.0,0.0,0.0,0.0,0.0,0.0,0.0,0.0,0.0,0.0,0.0,0.0,0.0,0.0,0.0,0.0,0.0,0.0,0.0,0.0,0.0,0.0,0.0,0.0,0.0,0.0,0.0,0.0,0.0,0.0,0.0,0.0,0.0,0.0,0.0,0.0,0.0,0.0,0.0,0.0,0.0,0.0,0.0,0.0,0.0,0.0,0.0,0.0,0.0,0.0,0.0,0.0,0.0,0.0,0.0,0.0,0.0,0.0,0.0,0.0,0.0,0.0,0.0,0.0,0.0,0.0,0.0,0.0,0.0,0.0,0.0,0.0,0.0,0.0,0.0,0.0,0.0,0.0,0.0,0.0,0.0,0.0,0.0,0.0,0.0,0.0,0.0,0.0,0.0,0.0,0.0,0.0,0.0,0.0,0.0,0.0,0.0,0.0,0.0,0.0,0.0,0.0,0.0,0.0,0.0,0.0,0.0,0.0,0.0,0.0,0.0,0.0,0.0,0.0,0.0,0.0,0.0,0.0,0.0,0.0,0.0,0.0,0.0,0.0,0.0,0.0,0.0,0.0,0.0,0.0,0.0,0.0,0.0,0.0,0.0,0.0,0.0,0.0,0.0,0.0,0.0,0.0,0.0,0.0,0.0,0.0,0.0,0.0,0.0,0.0,0.0,0.0,0.0,0.0,0.0,0.0,0.0,0.0,0.0,0.0,0.0,0.0,0.0,0.0,0.0,0.0,0.0,0.0,0.0,0.0,0.0,0.0,0.0,0.0,0.0,0.0,0.0,0.0,0.0,0.0,0.0,0.0,0.0,0.0,0.0,0.0,0.0,0.0,0.0,0.0,0.0,0.0,0.0,0.0,0.0,0.0,0.0,0.0,0.0,0.0,0.0,0.0,0.0,0.0,0.0,0.0,0.0,0.0,0.0,0.0,0.0,0.0,0.0,0.0,0.0,0.0,0.0,0.0,0.0,0.0,0.0,0.0,0.0,0.0,0.0,0.0,0.0,0.0,0.0,0.0,0.0,0.0,0.0,0.0,0.0,0.0,0.0,0.0,0.0,0.0,0.0,0.0,0.0,0.0,0.0,0.0,0.0,0.0,0.0,0.0,0.0,0.0,0.0,0.0,0.0,0.0,0.0,0.0,0.0,0.0,0.0,0.0,0.0,0.0,0.0,0.0,0.0,0.0,0.0,0.0,0.0,0.0,0.0,0.0,0.0,0.0,0.0,0.0,0.0,0.0,0.0,0.0,0.0,0.0,0.0,0.0,0.0,0.0,0.0,0.0,0.0,0.0,0.0,0.0,0.0,0.0,0.0,0.0,0.0,0.0,0.0,0.0,0.0,0.0,0.0,0.0,0.0,0.0,0.0,0.0,0.0,0.0,0.0,0.0,0.0,0.0,0.0,0.0,0.0,0.0,0.0,0.0,0.0,0.0,0.0,0.0,0.0,0.0,0.0,0.0,0.0,0.0,0.0,0.0,0.0,0.0,0.0,0.0,0.0,0.0,0.0,0.0,0.0,0.0,0.0,0.0,0.0,0.0,0.0,0.0,0.0,0.0,0.0,0.0,0.0,0.0,0.0,0.0,0.0,0.0,0.0,0.0,0.0,0.0,0.0,0.0,0.0,0.0,0.0,0.0,0.0,0.0,0.0,0.0,0.0,0.0,0.0,0.0,0.0,0.0,0.0,0.0,0.0,0.0,0.0,0.0,0.0,0.0,0.0,0.0,0.0,0.0,0.0,0.0,0.0,0.0,0.0,0.0,0.0,0.0,0.0,0.0,0.0,0.0,0.0,0.0,0.0,0.0,0.0,0.0,0.0,0.0,0.0,0.0,0.0,0.0,0.0,0.0,0.0,0.0,0.0,0.0,0.0,0.0,0.0,0.0,0.0,0.0,0.0,0.0,0.0,0.0,0.0,0.0,0.0,0.0,0.0,0.0,0.0,0.0,0.0,0.0,0.0,0.0,0.0,0.0,0.0,0.0,0.0,0.0,0.0,0.0,0.0,0.0,0.0,0.0,0.0,0.0,0.0,0.0,0.0,0.0,0.0,0.0,0.0,0.0,0.0,0.0,0.0,0.0,0.0,0.0,0.0,0.0,0.0,0.0,0.0,0.0,0.0,0.0,0.0,0.0,0.0,0.0,0.0,0.0,0.0,0.0,0.0,0.0,0.0,0.0,0.0,0.0,0.0,0.0,0.0,0.0,0.0,0.0,0.0,0.0,0.0,0.0,0.0,0.0,0.0,0.0,0.0,0.0,0.0,0.0,0.0,0.0,0.0,0.0,0.0,0.0,0.0,0.0,0.0,0.0,0.0,0.0,0.0,0.0,0.0,0.0,0.0,0.0,0.0,0.0,0.0,0.0,0.0,0.0,0.0,0.0,0.0,0.0,0.0,0.0,0.0,0.0,0.0,0.0,0.0,0.0,0.0,0.0,0.0,0.0,0.0,0.0,0.0,1.2613,0.0,0.0,0.0,0.0,0.0,0.0,0.0,0.0,0.0,0.0,0.0,0.0,0.0,0.0,0.0,0.0,0.0,0.0,0.0,0.0,0.0,0.0,0.0,0.0,0.0,0.0,0.0,0.0,0.0,0.0,0.0,0.0,0.0,0.0,0.0,0.0,0.0,0.0,0.0,0.0,0.0,0.0,0.0,0.0,0.0,0.0,0.0,0.0,0.0,0.0,0.0,0.0,0.0,0.0,0.0,0.0,0.0,0.0,0.0,0.0,0.0,0.0,0.0,0.0,0.0,0.0,0.0,0.0,0.0,0.0,0.0,0.0,0.0,0.0,0.0,0.0,0.0,0.0,0.0,0.0,0.0,0.0,0.0,0.0,0.0,0.0,0.0,0.0,0.0,0.0,0.0,0.0,0.0,0.0,0.0,0.0,0.0,0.0,0.0,0.0,0.0,0.0,0.0,0.0,0.0,0.0,0.0,0.0,0.0,0.0,1.2175,1.2419,1.2414,1.2565,1.2953,0.0,0.0,0.0,0.0,0.0,0.0,0.0,0.0,0.0,0.0,0.0,0.0,0.0,0.0,0.0,0.0,0.0,0.0,0.0,0.0,0.0,0.0,0.0,0.0,0.0,0.0,0.0,0.0,0.0,0.0,0.0,0.0,0.0,0.0,0.0,0.0,0.0,0.0,0.0,0.0,0.0,0.0,0.0,0.0,0.0,0.0,0.0,0.0,0.0,0.0,0.0,0.0,0.0,0.0,0.0,0.0,0.0,0.0,0.0,0.0,0.0,0.0,0.0,0.0,0.0,0.0,0.0,0.0,0.0,0.0,0.0,0.0,0.0,0.0,0.0,0.0,0.0,0.0,0.0,0.0,0.0,0.0,0.0,0.0,0.0,0.0,0.0,0.0,0.0,0.0,0.0,0.0,0.0,0.0,0.0,0.0,0.0,0.0,0.0,0.0,0.0,0.0,0.0,0.0,0.0,0.0,0.0,0.0,0.0,0.0,0.0,0.0,1.3292,1.3389,1.3485,0.0,0.0,0.0,0.0,0.0,0.0,0.0,0.0,0.0,0.0,0.0,0.0,0.0,0.0,0.0,0.0,0.0,0.0,0.0,0.0,0.0,0.0,0.0,0.0,0.0,0.0,0.0,0.0,0.0,0.0,0.0,0.0,0.0,0.0,0.0,0.0,0.0,0.0,0.0,0.0,0.0,0.0,0.0,0.0,0.0,0.0,0.0,0.0,0.0,0.0,0.0,0.0,0.0,0.0,0.0,0.0,0.0,0.0,0.0,0.0,0.0,0.0,0.0,0.0,0.0,0.0,0.0,0.0,0.0,0.0,0.0,0.0,0.0,0.0,0.0,0.0,0.0,0.0,0.0,0.0,0.0,0.0,0.0,0.0,0.0,0.0,0.0,0.0,0.0,0.0,0.0,0.0,0.0,0.0,0.0,0.0,0.0,0.0,0.0,0.0,0.0,0.0,0.0,0.0,0.0,0.0,0.0,0.0,0.0,0.0,1.4154,1.4154,1.4202,0.0,1.4544,0.0,0.0,0.0,0.0,0.0,0.0,0.0,0.0,0.0,0.0,0.0,0.0,0.0,0.0,0.0,0.0,0.0,0.0,0.0,0.0,0.0,0.0,0.0,0.0,0.0,0.0,0.0,0.0,0.0,0.0,0.0,0.0,0.0,0.0,0.0,0.0,0.0,0.0,0.0,0.0,0.0,0.0,0.0,0.0,0.0,0.0,0.0,0.0,0.0,0.0,0.0,0.0,0.0,0.0,0.0,0.0,0.0,0.0,0.0,0.0,0.0,0.0,0.0,0.0,0.0,0.0,0.0,0.0,0.0,0.0,0.0,0.0,0.0,0.0,0.0,0.0,0.0,0.0,0.0,0.0,0.0,0.0,0.0,0.0,0.0,0.0,0.0,0.0,0.0,0.0,0.0,0.0,0.0,0.0,0.0,0.0,0.0,0.0,0.0,0.0,0.0,0.0,0.0,0.0,0.0,0.0,0.0,0.0,0.0,0.0,1.479,1.4783,1.479,1.4933,0.0,0.0,0.0,0.0,0.0,0.0,0.0,0.0,0.0,0.0,0.0,0.0,0.0,0.0,0.0,0.0,0.0,0.0,0.0,0.0,0.0,0.0,0.0,0.0,0.0,0.0,0.0,0.0,0.0,0.0,0.0,0.0,0.0,0.0,0.0,0.0,0.0,0.0,0.0,0.0,0.0,0.0,0.0,0.0,0.0,0.0,0.0,0.0,0.0,0.0,0.0,0.0,0.0,0.0,0.0,0.0,0.0,0.0,0.0,0.0,0.0,0.0,0.0,0.0,0.0,0.0,0.0,0.0,0.0,0.0,0.0,0.0,0.0,0.0,0.0,0.0,0.0,0.0,0.0,0.0,0.0,0.0,0.0,0.0,0.0,0.0,0.0,0.0,0.0,0.0,0.0,0.0,0.0,0.0,0.0,0.0,0.0,0.0,0.0,0.0,0.0,0.0,0.0,0.0,0.0,0.0,0.0,0.0,0.0,0.0,1.5267,1.5322,1.5315,1.5315,1.5363,1.554,0.0,0.0,0.0,0.0,0.0,0.0,0.0,0.0,0.0,0.0,0.0,0.0,0.0,0.0,0.0,0.0,0.0,0.0,0.0,0.0,0.0,0.0,0.0,0.0,0.0,0.0,0.0,0.0,0.0,0.0,0.0,0.0,0.0,0.0,0.0,0.0,0.0,0.0,0.0,0.0,0.0,0.0,0.0,0.0,0.0,0.0,0.0,0.0,0.0,0.0,0.0,0.0,0.0,0.0,0.0,0.0,0.0,0.0,0.0,0.0,0.0,0.0,0.0,0.0,0.0,0.0,0.0,0.0,0.0,0.0,0.0,0.0,0.0,0.0,0.0,0.0,0.0,0.0,0.0,0.0,0.0,0.0,0.0,0.0,0.0,0.0,0.0,0.0,0.0,0.0,0.0,0.0,0.0,0.0,0.0,0.0,0.0,0.0,0.0,0.0,0.0,0.0,0.0,0.0,0.0,0.0,0.0,0.0,1.5493,1.5635,1.5784,1.5778,1.5784,1.5784,0.0,0.0,0.0,0.0,0.0,0.0,0.0,0.0,0.0,0.0,0.0,0.0,0.0,0.0,0.0,0.0,0.0,0.0,0.0,0.0,0.0,0.0,0.0,0.0,0.0,0.0,0.0,0.0,0.0,0.0,0.0,0.0,0.0,0.0,0.0,0.0,0.0,0.0,0.0,0.0,0.0,0.0,0.0,0.0,0.0,0.0,0.0,0.0,0.0,0.0,0.0,0.0,0.0,0.0,0.0,0.0,0.0,0.0,0.0,0.0,0.0,0.0,0.0,0.0,0.0,0.0,0.0,0.0,0.0,0.0,0.0,0.0,0.0,0.0,0.0,0.0,0.0,0.0,0.0,0.0,0.0,0.0,0.0,0.0,0.0,0.0,0.0,0.0,0.0,0.0,0.0,0.0,0.0,0.0,0.0,0.0,0.0,0.0,0.0,0.0,0.0,0.0,0.0,0.0,0.0,0.0,0.0,0.0,0.0,1.5689,1.5737,1.5825,1.5825,1.5825,1.5825,0.0,0.0,0.0,0.0,0.0,0.0,0.0,0.0,0.0,0.0,0.0,0.0,0.0,0.0,0.0,0.0,0.0,0.0,0.0,0.0,0.0,0.0,0.0,0.0,0.0,0.0,0.0,0.0,0.0,0.0,0.0,0.0,0.0,0.0,0.0,0.0,0.0,0.0,0.0,0.0,0.0,0.0,0.0,0.0,0.0,0.0,0.0,0.0,0.0,0.0,0.0,0.0,0.0,0.0,0.0,0.0,0.0,0.0,0.0,0.0,0.0,0.0,0.0,0.0,0.0,0.0,0.0,0.0,0.0,0.0,0.0,0.0,0.0,0.0,0.0,0.0,0.0,0.0,0.0,0.0,0.0,0.0,0.0,0.0,0.0,0.0,0.0,0.0,0.0,0.0,0.0,0.0,0.0,0.0,0.0,0.0,0.0,0.0,0.0,0.0,0.0,0.0,0.0,0.0,0.0,0.0,0.0,0.0,0.0,1.5825,0.0,1.5927,1.5933,1.6015,1.6062,0.0,0.0,0.0,0.0,0.0,0.0,0.0,0.0,0.0,0.0,0.0,0.0,0.0,0.0,0.0,0.0,0.0,0.0,0.0,0.0,0.0,0.0,0.0,0.0,0.0,0.0,0.0,0.0,0.0,0.0,0.0,0.0,0.0,0.0,0.0,0.0,0.0,0.0,0.0,0.0,0.0,0.0,0.0,0.0,0.0,0.0,0.0,0.0,0.0,0.0,0.0,0.0,0.0,0.0,0.0,0.0,0.0,0.0,0.0,0.0,0.0,0.0,0.0,0.0,0.0,0.0,0.0,0.0,0.0,0.0,0.0,0.0,0.0,0.0,0.0,0.0,0.0,0.0,0.0,0.0,0.0,0.0,0.0,0.0,0.0,0.0,0.0,0.0,0.0,0.0,0.0,0.0,0.0,0.0,0.0,0.0,0.0,0.0,0.0,0.0,0.0,0.0,0.0,0.0,0.0,0.0,0.0,0.0,1.5825,1.5832,1.6076,1.617,1.6224,1.6447,1.6588,0.0,0.0,0.0,0.0,0.0,0.0,0.0,0.0,0.0,0.0,0.0,0.0,0.0,0.0,0.0,0.0,0.0,0.0,0.0,0.0,0.0,0.0,0.0,0.0,0.0,0.0,0.0,0.0,0.0,0.0,0.0,0.0,0.0,0.0,0.0,0.0,0.0,0.0,0.0,0.0,0.0,0.0,0.0,0.0,0.0,0.0,0.0,0.0,0.0,0.0,0.0,0.0,0.0,0.0,0.0,0.0,0.0,0.0,0.0,0.0,0.0,0.0,0.0,0.0,0.0,0.0,0.0,0.0,0.0,0.0,0.0,0.0,0.0,0.0,0.0,0.0,0.0,0.0,0.0,0.0,0.0,0.0,0.0,0.0,0.0,0.0,0.0,0.0,0.0,0.0,0.0,0.0,0.0,0.0,0.0,0.0,0.0,0.0,0.0,0.0,0.0,0.0,0.0,0.0,0.0,0.0,0.0,0.0,0.0,1.6076,1.6177,1.6265,1.6501,1.6541,1.6588,0.0,0.0,0.0,0.0,0.0,0.0,0.0,0.0,0.0,0.0,0.0,0.0,0.0,0.0,0.0,0.0,0.0,0.0,0.0,0.0,0.0,0.0,0.0,0.0,0.0,0.0,0.0,0.0,0.0,0.0,0.0,0.0,0.0,0.0,0.0,0.0,0.0,0.0,0.0,0.0,0.0,0.0,0.0,0.0,0.0,0.0,0.0,0.0,0.0,0.0,0.0,0.0,0.0,0.0,0.0,0.0,0.0,0.0,0.0,0.0,0.0,0.0,0.0,0.0,0.0,0.0,0.0,0.0,0.0,0.0,0.0,0.0,0.0,0.0,0.0,0.0,0.0,0.0,0.0,0.0,0.0,0.0,0.0,0.0,0.0,0.0,0.0,0.0,0.0,0.0,0.0,0.0,0.0,0.0,0.0,0.0,0.0,0.0,0.0,0.0,0.0,0.0,0.0,0.0,0.0,0.0,0.0,0.0,0.0,1.6518,1.6516,1.6555,1.673,1.6824,1.6864,1.6871,0.0,0.0,0.0,0.0,0.0,0.0,0.0,0.0,0.0,0.0,0.0,0.0,0.0,0.0,0.0,0.0,0.0,0.0,0.0,0.0,0.0,0.0,0.0,0.0,0.0,0.0,0.0,0.0,0.0,0.0,0.0,0.0,0.0,0.0,0.0,0.0,0.0,0.0,0.0,0.0,0.0,0.0,0.0,0.0,0.0,0.0,0.0,0.0,0.0,0.0,0.0,0.0,0.0,0.0,0.0,0.0,0.0,0.0,0.0,0.0,0.0,0.0,0.0,0.0,0.0,0.0,0.0,0.0,0.0,0.0,0.0,0.0,0.0,0.0,0.0,0.0,0.0,0.0,0.0,0.0,0.0,0.0,0.0,0.0,0.0,0.0,0.0,0.0,0.0,0.0,0.0,0.0,0.0,0.0,0.0,0.0,0.0,0.0,0.0,0.0,0.0,0.0,0.0,0.0,0.0,0.0,0.0,0.0,1.7099,1.7077,1.7077,1.7055,1.7221,1.7293,0.0,0.0,0.0,0.0,0.0,0.0,0.0,0.0,0.0,0.0,0.0,0.0,0.0,0.0,0.0,0.0,0.0,0.0,0.0,0.0,0.0,0.0,0.0,0.0,0.0,0.0,0.0,0.0,0.0,0.0,0.0,0.0,0.0,0.0,0.0,0.0,0.0,0.0,0.0,0.0,0.0,0.0,0.0,0.0,0.0,0.0,0.0,0.0,0.0,0.0,0.0,0.0,0.0,0.0,0.0,0.0,0.0,0.0,0.0,0.0,0.0,0.0,0.0,0.0,0.0,0.0,0.0,0.0,0.0,0.0,0.0,0.0,0.0,0.0,0.0,0.0,0.0,0.0,0.0,0.0,0.0,0.0,0.0,0.0,0.0,0.0,0.0,0.0,0.0,0.0,0.0,0.0,0.0,0.0,0.0,0.0,0.0,0.0,0.0,0.0,0.0,0.0,0.0,0.0,0.0,0.0,0.0,0.0,0.0,1.73,1.7734,1.7843,1.761,1.7644,1.7527,0.0,0.0,0.0,0.0,0.0,0.0,0.0,0.0,0.0,0.0,0.0,0.0,0.0,0.0,0.0,0.0,0.0,0.0,0.0,0.0,0.0,0.0,0.0,0.0,0.0,0.0,0.0,0.0,0.0,0.0,0.0,0.0,0.0,0.0,0.0,0.0,0.0,0.0,0.0,0.0,0.0,0.0,0.0,0.0,0.0,0.0,0.0,0.0,0.0,0.0,0.0,0.0,0.0,0.0,0.0,0.0,0.0,0.0,0.0,0.0,0.0,0.0,0.0,0.0,0.0,0.0,0.0,0.0,0.0,0.0,0.0,0.0,0.0,0.0,0.0,0.0,0.0,0.0,0.0,0.0,0.0,0.0,0.0,0.0,0.0,0.0,0.0,0.0,0.0,0.0,0.0,0.0,0.0,0.0,0.0,0.0,0.0,0.0,0.0,0.0,0.0,0.0,0.0,0.0,0.0,0.0,0.0,0.0,1.7363,1.7596,1.8194,1.8416,1.8233,1.7962,1.7728,0.0,0.0,0.0,0.0,0.0,0.0,0.0,0.0,0.0,0.0,0.0,0.0,0.0,0.0,0.0,0.0,0.0,0.0,0.0,0.0,0.0,0.0,0.0,0.0,0.0,0.0,0.0,0.0,0.0,0.0,0.0,0.0,0.0,0.0,0.0,0.0,0.0,0.0,0.0,0.0,0.0,0.0,0.0,0.0,0.0,0.0,0.0,0.0,0.0,0.0,0.0,0.0,0.0,0.0,0.0,0.0,0.0,0.0,0.0,0.0,0.0,0.0,0.0,0.0,0.0,0.0,0.0,0.0,0.0,0.0,0.0,0.0,0.0,0.0,0.0,0.0,0.0,0.0,0.0,0.0,0.0,0.0,0.0,0.0,0.0,0.0,0.0,0.0,0.0,0.0,0.0,0.0,0.0,0.0,0.0,0.0,0.0,0.0,0.0,0.0,0.0,0.0,0.0,0.0,0.0,0.0,0.0,0.0,1.7645,1.801,1.8578,1.884,1.8869,1.8203,1.7852,0.0,0.0,0.0,0.0,0.0,0.0,0.0,0.0,0.0,0.0,0.0,0.0,0.0,0.0,0.0,0.0,0.0,0.0,0.0,0.0,0.0,0.0,0.0,0.0,0.0,0.0,0.0,0.0,0.0,0.0,0.0,0.0,0.0,0.0,0.0,0.0,0.0,0.0,0.0,0.0,0.0,0.0,0.0,0.0,0.0,0.0,0.0,0.0,0.0,0.0,0.0,0.0,0.0,0.0,0.0,0.0,0.0,0.0,0.0,0.0,0.0,0.0,0.0,0.0,0.0,0.0,0.0,0.0,0.0,0.0,0.0,0.0,0.0,0.0,0.0,0.0,0.0,0.0,0.0,0.0,0.0,0.0,0.0,0.0,0.0,0.0,0.0,0.0,0.0,0.0,0.0,0.0,0.0,0.0,0.0,0.0,0.0,0.0,0.0,0.0,0.0,0.0,0.0,0.0,0.0,0.0,0.0,0.0,1.8067,1.8578,1.9001,1.9324,1.9516,1.8633,1.8177,0.0,0.0,0.0,0.0,0.0,0.0,0.0,0.0,0.0,0.0,0.0,0.0,0.0,0.0,0.0,0.0,0.0,0.0,0.0,0.0,0.0,0.0,0.0,0.0,0.0,0.0,0.0,0.0,0.0,0.0,0.0,0.0,0.0,0.0,0.0,0.0,0.0,0.0,0.0,0.0,0.0,0.0,0.0,0.0,0.0,0.0,0.0,0.0,2.5684,0.0,0.0,0.0,0.0,0.0,0.0,0.0,0.0,0.0,0.0,0.0,0.0,0.0,0.0,0.0,0.0,0.0,0.0,0.0,0.0,0.0,0.0,0.0,0.0,0.0,0.0,0.0,0.0,0.0,0.0,0.0,0.0,0.0,0.0,0.0,0.0,0.0,0.0,0.0,0.0,0.0,0.0,0.0,0.0,0.0,0.0,0.0,0.0,0.0,0.0,0.0,0.0,0.0,0.0,0.0,0.0,0.0,0.0,0.0,1.8502,1.8984,1.9456,1.9783,2.0027,1.9295,1.8765,0.0,0.0,0.0,0.0,0.0,0.0,0.0,0.0,0.0,0.0,0.0,0.0,0.0,0.0,0.0,0.0,0.0,0.0,0.0,0.0,0.0,0.0,0.0,0.0,0.0,0.0,0.0,0.0,0.0,0.0,0.0,0.0,0.0,0.0,0.0,0.0,0.0,0.0,0.0,0.0,0.0,0.0,0.0,0.0,0.0,0.0,0.0,0.0,0.0,0.0,0.0,0.0,0.0,0.0,0.0,0.0,0.0,0.0,0.0,0.0,0.0,0.0,0.0,0.0,0.0,0.0,0.0,0.0,0.0,0.0,0.0,0.0,0.0,0.0,0.0,0.0,0.0,0.0,0.0,0.0,0.0,0.0,0.0,0.0,0.0,0.0,0.0,0.0,0.0,0.0,0.0,0.0,0.0,0.0,0.0,0.0,0.0,0.0,0.0,0.0,0.0,0.0,0.0,0.0,0.0,0.0,0.0,1.8201,1.8922,1.9406,1.989,2.03,2.0609,1.9993,1.9576,1.938,0.0,0.0,0.0,0.0,0.0,0.0,0.0,0.0,0.0,0.0,0.0,0.0,0.0,0.0,0.0,0.0,0.0,0.0,0.0,0.0,0.0,0.0,0.0,0.0,0.0,0.0,0.0,0.0,0.0,0.0,0.0,0.0,0.0,0.0,0.0,0.0,0.0,0.0,2.5684,2.5684,0.0,0.0,0.0,0.0,0.0,0.0,0.0,0.0,2.5684,0.0,0.0,0.0,0.0,0.0,0.0,0.0,0.0,0.0,0.0,0.0,0.0,0.0,0.0,0.0,0.0,0.0,0.0,0.0,0.0,0.0,0.0,0.0,0.0,0.0,0.0,0.0,0.0,0.0,0.0,0.0,0.0,0.0,0.0,0.0,0.0,0.0,0.0,0.0,0.0,0.0,0.0,0.0,0.0,0.0,0.0,0.0,0.0,0.0,0.0,0.0,0.0,0.0,0.0,0.0,0.0,1.812,1.8516,1.9234,2.0259,2.0388,2.0668,2.1157,2.0687,2.0499,2.0619,0.0,0.0,0.0,0.0,0.0,0.0,0.0,0.0,0.0,0.0,0.0,0.0,0.0,0.0,0.0,0.0,0.0,0.0,0.0,0.0,0.0,0.0,0.0,0.0,0.0,0.0,0.0,0.0,0.0,0.0,0.0,0.0,0.0,0.0,0.0,0.0,0.0,0.0,0.0,2.5684,2.5684,0.0,0.0,0.0,0.0,0.0,0.0,0.0,0.0,2.5684,0.0,0.0,0.0,0.0,0.0,0.0,0.0,0.0,0.0,0.0,0.0,0.0,0.0,0.0,0.0,0.0,0.0,0.0,0.0,0.0,0.0,0.0,0.0,0.0,0.0,0.0,0.0,0.0,0.0,0.0,0.0,0.0,0.0,0.0,0.0,0.0,0.0,0.0,0.0,0.0,0.0,0.0,0.0,0.0,0.0,0.0,0.0,0.0,0.0,0.0,0.0,0.0,0.0,0.0,0.0,1.8262,1.8981,1.9755,2.0688,2.1121,2.153,2.1903,2.1465,2.1405,0.0,0.0,0.0,0.0,0.0,0.0,0.0,0.0,0.0,0.0,0.0,0.0,0.0,0.0,0.0,0.0,0.0,0.0,0.0,0.0,0.0,0.0,0.0,0.0,0.0,0.0,0.0,0.0,0.0,0.0,0.0,0.0,0.0,0.0,0.0,0.0,0.0,0.0,0.0,0.0,2.5684,2.5684,2.5684,0.0,0.0,0.0,0.0,0.0,0.0,2.5684,2.5684,0.0,0.0,0.0,0.0,0.0,0.0,0.0,0.0,0.0,0.0,0.0,0.0,0.0,0.0,0.0,0.0,0.0,0.0,0.0,0.0,0.0,0.0,0.0,0.0,0.0,0.0,0.0,0.0,0.0,0.0,0.0,0.0,0.0,0.0,0.0,0.0,0.0,0.0,0.0,0.0,0.0,0.0,0.0,0.0,0.0,0.0,0.0,0.0,0.0,0.0,0.0,0.0,0.0,0.0,0.0,1.8523,1.947,2.04,2.1183,2.1979,2.2476,2.271,2.2325,2.2301,0.0,0.0,0.0,0.0,0.0,0.0,0.0,0.0,0.0,0.0,0.0,0.0,0.0,0.0,0.0,0.0,0.0,0.0,0.0,0.0,0.0,0.0,0.0,0.0,0.0,0.0,0.0,0.0,0.0,0.0,0.0,0.0,0.0,0.0,0.0,0.0,0.0,0.0,0.0,0.0,0.0,2.5684,2.5684,2.5684,0.0,0.0,0.0,0.0,2.5801,2.5752,0.0,0.0,0.0,0.0,0.0,0.0,0.0,0.0,0.0,0.0,0.0,0.0,0.0,0.0,0.0,0.0,0.0,0.0,0.0,0.0,0.0,0.0,0.0,0.0,0.0,0.0,0.0,0.0,0.0,0.0,0.0,0.0,0.0,0.0,0.0,0.0,0.0,0.0,0.0,0.0,0.0,0.0,0.0,0.0,0.0,0.0,0.0,0.0,0.0,0.0,0.0,0.0,0.0,0.0,0.0,0.0,1.9308,1.9957,2.0933,2.2282,2.287,2.327,2.3569,2.3297,2.3158,0.0,0.0,0.0,0.0,0.0,0.0,0.0,0.0,0.0,0.0,0.0,0.0,0.0,0.0,0.0,0.0,0.0,0.0,0.0,0.0,0.0,0.0,0.0,0.0,0.0,0.0,0.0,0.0,0.0,0.0,0.0,0.0,0.0,0.0,0.0,0.0,0.0,0.0,0.0,0.0,0.0,2.5684,2.5684,2.5684,2.5684,0.0,0.0,2.5879,2.625,2.5996,0.0,0.0,0.0,0.0,0.0,0.0,0.0,0.0,0.0,0.0,0.0,0.0,0.0,0.0,0.0,0.0,0.0,0.0,0.0,0.0,0.0,0.0,0.0,0.0,0.0,0.0,0.0,0.0,0.0,0.0,0.0,0.0,0.0,0.0,0.0,0.0,0.0,0.0,0.0,0.0,0.0,0.0,0.0,0.0,0.0,0.0,0.0,0.0,0.0,0.0,0.0,0.0,0.0,0.0,0.0,1.8686,1.9941,2.098,2.197,2.2902,2.3628,2.4035,2.4134,2.3727,2.3579,0.0,0.0,0.0,0.0,0.0,0.0,0.0,0.0,0.0,0.0,0.0,0.0,0.0,0.0,0.0,0.0,0.0,0.0,0.0,0.0,0.0,0.0,0.0,0.0,0.0,0.0,0.0,0.0,0.0,0.0,0.0,0.0,0.0,0.0,0.0,0.0,0.0,0.0,0.0,0.0,0.0,0.0,2.5684,2.5947,0.0,0.0,0.0,2.625,2.668,0.0,0.0,0.0,0.0,0.0,0.0,0.0,0.0,0.0,0.0,0.0,0.0,0.0,0.0,0.0,0.0,0.0,0.0,0.0,0.0,0.0,0.0,0.0,0.0,0.0,0.0,0.0,0.0,0.0,0.0,0.0,0.0,0.0,0.0,0.0,0.0,0.0,0.0,0.0,0.0,0.0,0.0,0.0,0.0,0.0,0.0,0.0,0.0,0.0,0.0,0.0,0.0,0.0,0.0,0.0,0.0,0.0,2.0378,2.1813,2.2841,2.3511,2.4282,2.4686,2.4667,2.4269,0.0,0.0,0.0,0.0,0.0,0.0,0.0,0.0,0.0,0.0,0.0,0.0,0.0,0.0,0.0,0.0,0.0,0.0,0.0,0.0,0.0,0.0,0.0,0.0,0.0,0.0,0.0,2.3428,0.0,0.0,0.0,0.0,0.0,0.0,0.0,0.0,0.0,0.0,0.0,0.0,0.0,0.0,2.5684,2.5684,2.6103,2.6348,0.0,0.0,2.6533,2.6943,2.6387,2.6045,0.0,0.0,0.0,0.0,0.0,0.0,0.0,0.0,0.0,0.0,0.0,0.0,0.0,0.0,0.0,0.0,0.0,0.0,0.0,0.0,0.0,0.0,0.0,0.0,0.0,0.0,0.0,0.0,0.0,0.0,0.0,0.0,0.0,0.0,0.0,0.0,0.0,0.0,0.0,0.0,0.0,0.0,0.0,0.0,0.0,0.0,0.0,0.0,0.0,0.0,0.0,0.0,0.0,0.0,0.0,2.0676,2.2056,2.3184,2.4007,2.4833,2.5245,2.5235,2.5082,2.4787,0.0,0.0,0.0,0.0,0.0,0.0,0.0,0.0,0.0,0.0,0.0,0.0,0.0,0.0,0.0,0.0,0.0,0.0,0.0,0.0,0.0,0.0,0.0,0.0,0.0,0.0,0.0,0.0,0.0,0.0,0.0,0.0,0.0,0.0,0.0,0.0,0.0,0.0,0.0,0.0,0.0,2.5684,2.5684,2.6113,2.625,0.0,0.0,2.6533,2.6953,2.6641,2.6494,2.6904,0.0,0.0,0.0,0.0,0.0,0.0,0.0,0.0,0.0,0.0,0.0,0.0,0.0,0.0,0.0,0.0,0.0,0.0,0.0,0.0,0.0,0.0,0.0,0.0,0.0,0.0,0.0,0.0,0.0,0.0,0.0,0.0,0.0,0.0,0.0,0.0,0.0,0.0,0.0,0.0,0.0,0.0,0.0,0.0,0.0,0.0,0.0,0.0,0.0,0.0,0.0,0.0,0.0,2.0495,2.1422,2.3032,2.4067,2.4578,2.5235,2.5538,2.5547,2.5255,2.5037,0.0,0.0,0.0,0.0,0.0,0.0,0.0,0.0,0.0,0.0,0.0,0.0,0.0,0.0,0.0,0.0,0.0,0.0,0.0,0.0,0.0,0.0,0.0,0.0,0.0,0.0,0.0,0.0,2.4873,2.5223,2.5439,0.0,0.0,0.0,0.0,0.0,0.0,0.0,0.0,0.0,0.0,2.5781,2.6094,2.6504,0.0,0.0,2.706,2.7324,2.7734,2.7226,2.6924,2.7344,2.706,0.0,0.0,0.0,0.0,0.0,0.0,0.0,0.0,0.0,0.0,0.0,0.0,0.0,0.0,0.0,0.0,0.0,0.0,0.0,0.0,0.0,0.0,0.0,0.0,0.0,0.0,0.0,0.0,0.0,0.0,0.0,0.0,0.0,0.0,0.0,0.0,0.0,0.0,0.0,0.0,0.0,0.0,0.0,0.0,0.0,0.0,0.0,0.0,0.0,0.0,0.0,0.0,2.1174,2.1908,2.3633,2.4627,2.4892,2.543,2.5684,2.5674,2.543,2.5205,0.0,0.0,0.0,0.0,0.0,0.0,0.0,0.0,0.0,0.0,0.0,0.0,0.0,0.0,0.0,0.0,0.0,0.0,0.0,0.0,0.0,0.0,0.0,0.0,0.0,0.0,0.0,0.0,2.5185,2.5391,2.5654,0.0,0.0,0.0,0.0,0.0,0.0,0.0,0.0,0.0,0.0,2.584,2.6328,2.6748,2.7129,2.7432,2.7588,2.7773,2.8066,2.7607,2.7314,2.7669,0.0,0.0,0.0,0.0,0.0,0.0,0.0,0.0,0.0,0.0,0.0,0.0,0.0,0.0,0.0,0.0,0.0,0.0,0.0,0.0,0.0,0.0,0.0,0.0,0.0,0.0,0.0,0.0,0.0,0.0,1.5825,0.0,0.0,0.0,0.0,0.0,0.0,0.0,0.0,0.0,0.0,0.0,0.0,0.0,0.0,0.0,0.0,0.0,0.0,0.0,0.0,0.0,0.0,2.1383,2.1908,2.3642,2.4627,2.4883,2.544,2.5684,2.5684,2.5674,2.5518,2.5135,0.0,0.0,0.0,0.0,0.0,0.0,0.0,0.0,0.0,0.0,0.0,0.0,0.0,0.0,0.0,0.0,0.0,0.0,0.0,0.0,0.0,0.0,0.0,0.0,0.0,0.0,2.5135,2.5459,2.5664,0.0,0.0,0.0,0.0,0.0,0.0,0.0,0.0,0.0,0.0,2.5684,2.5898,2.6338,2.6748,2.7031,2.706,2.7412,2.7738,2.7767,2.7728,2.7718,0.0,0.0,0.0,0.0,0.0,0.0,0.0,0.0,0.0,0.0,0.0,0.0,0.0,0.0,0.0,0.0,0.0,0.0,0.0,0.0,0.0,0.0,0.0,0.0,0.0,0.0,0.0,1.5825,1.5825,0.0,0.0,0.0,0.0,0.0,0.0,0.0,0.0,0.0,0.0,0.0,1.6819,1.7358,0.0,0.0,0.0,0.0,0.0,0.0,0.0,0.0,0.0,0.0,0.0,0.0,2.19,2.2411,2.3925,2.4833,2.4941,2.543,2.5684,2.5684,2.5684,2.5527,2.5078,0.0,0.0,0.0,0.0,0.0,0.0,0.0,0.0,0.0,0.0,0.0,0.0,0.0,0.0,0.0,0.0,0.0,0.0,0.0,0.0,0.0,0.0,0.0,0.0,0.0,2.5233,0.0,0.0,0.0,0.0,0.0,0.0,0.0,0.0,0.0,0.0,0.0,2.5684,2.5684,2.5684,2.5947,2.6709,2.6924,2.7217,0.0,0.0,0.0,0.0,0.0,0.0,0.0,0.0,0.0,0.0,0.0,0.0,0.0,0.0,3.003,2.9165,2.9128,2.9219,2.9069,0.0,0.0,0.0,0.0,0.0,0.0,0.0,0.0,0.0,0.0,0.0,0.0,0.0,0.0,1.6132,0.0,1.6025,0.0,0.0,0.0,0.0,0.0,0.0,0.0,0.0,1.6876,1.722,1.7413,1.8002,1.8447,0.0,1.9135,1.901,0.0,0.0,0.0,0.0,0.0,0.0,0.0,0.0,2.2342,2.2828,2.4193,2.4892,2.4941,2.543,2.5684,2.5684,2.5684,2.5605,2.5312,2.5204,2.4814,0.0,0.0,0.0,0.0,0.0,0.0,0.0,0.0,0.0,0.0,0.0,0.0,0.0,0.0,0.0,0.0,0.0,0.0,0.0,0.0,0.0,0.0,0.0,2.541,0.0,0.0,0.0,0.0,0.0,0.0,0.0,0.0,0.0,2.5684,2.5684,2.5684,2.5684,2.582,2.6221,2.6914,0.0,0.0,0.0,0.0,0.0,0.0,0.0,2.8393,2.8648,2.8838,2.9156,2.9779,3.0853,3.1607,3.1644,0.0,0.0,3.0727,3.0626,3.0819,3.0808,3.0819,3.0819,3.0819,3.1012,3.1216,0.0,0.0,0.0,0.0,0.0,0.0,0.0,0.0,1.6693,1.6687,0.0,1.64,0.0,0.0,0.0,0.0,0.0,1.6587,0.0,0.0,1.6998,1.7441,1.7924,1.8243,1.878,1.9517,1.9867,2.0232,2.0619,1.963,0.0,0.0,0.0,0.0,0.0,0.0,2.2819,2.3208,2.4333,2.4892,2.4941,2.5391,2.5684,2.5684,2.5684,2.5684,2.5664,2.5322,2.5125,2.5049,2.4333,0.0,0.0,0.0,0.0,0.0,0.0,0.0,0.0,0.0,0.0,0.0,0.0,0.0,0.0,0.0,0.0,0.0,0.0,0.0,0.0,2.5478,0.0,0.0,0.0,0.0,0.0,0.0,0.0,0.0,0.0,0.0,2.5762,2.5732,2.5703,2.5713,0.0,0.0,0.0,0.0,2.7812,2.8232,2.831,2.832,2.832,2.834,2.8594,2.9302,0.0,0.0,3.1192,3.2351,3.3081,3.3167,3.399,3.413,3.1982,3.1842,3.2011,3.1999,3.2045,3.1941,3.193,3.2245,3.2402,1.7088,0.0,0.0,0.0,0.0,1.6707,1.6707,1.6707,1.6707,1.6707,1.67,1.6613,0.0,0.0,0.0,0.0,0.0,0.0,1.713,1.7354,1.7808,1.8318,1.8891,1.9556,2.0066,2.0522,2.1161,2.1528,2.1629,2.147,2.1329,2.1105,0.0,0.0,0.0,0.0,2.3148,2.3468,2.4226,2.4686,2.4892,2.5235,2.5499,2.5684,2.5684,2.5684,2.5684,2.5567,2.54,2.5125,2.4881,0.0,0.0,0.0,0.0,0.0,0.0,0.0,0.0,0.0,0.0,0.0,0.0,0.0,0.0,0.0,0.0,0.0,0.0,0.0,2.5508,2.5664,2.5684,0.0,0.0,0.0,0.0,0.0,0.0,0.0,0.0,0.0,2.6602,2.6387,2.6201,0.0,0.0,2.6992,2.7422,2.764,2.7865,2.8232,2.8545,0.0,2.874,2.9004,2.9303,2.9531,3.0038,3.0792,3.1799,3.2739,3.354,3.3922,3.4739,3.5203,3.4812,3.4586,3.4524,3.4485,3.4485,3.4497,3.4547,3.4547,3.4675,1.7375,1.7054,1.7048,1.7054,1.7054,1.7054,1.7054,1.7061,1.7054,1.7054,1.7041,1.6927,1.6881,1.6881,1.6887,0.0,0.0,0.0,1.7587,1.7757,1.8442,1.9056,1.9628,2.0308,2.0968,2.1522,2.203,2.2415,2.2714,2.2853,2.2886,2.2792,0.0,0.0,2.2856,2.3139,2.3484,2.3785,2.426,2.4587,2.4726,2.5088,2.5382,2.5538,2.5645,2.5684,2.5684,2.5684,2.5615,2.5342,2.5,2.457,0.0,0.0,0.0,0.0,0.0,0.0,0.0,0.0,0.0,0.0,0.0,2.3652,2.4248,0.0,0.0,0.0,2.5488,2.5713,2.5977,2.6093,0.0,0.0,0.0,0.0,0.0,0.0,0.0,2.6611,2.6641,2.6728,2.6982,2.6943,2.6826,2.666,2.7002,2.7373,2.7679,0.0,2.8262,2.8506,2.8906,2.917,2.917,2.9394,2.9797,3.03,3.1263,3.2201,3.2983,3.3748,3.445,3.5028,3.5718,3.6296,3.6581,3.6569,3.6391,3.6022,3.5939,3.5939,3.5939,3.5928,3.5991,1.7582,1.7589,1.7582,1.7582,1.7589,1.7589,1.7582,1.7589,1.7582,1.7589,1.7562,1.7353,1.7239,1.7233,1.7233,0.0,1.7246,1.7789,1.8016,1.8069,1.8907,1.9628,2.0181,2.0712,2.153,2.2476,2.2577,2.3038,2.3746,2.3805,2.3945,2.4183,2.3208,2.294,2.3244,2.3447,2.3776,2.4192,2.439,2.448,2.4538,2.4952,2.5246,2.5236,2.545,2.5577,2.5577,2.5577,2.5586,2.5557,2.4853,2.4394,2.4346,0.0,0.0,0.0,0.0,0.0,0.0,0.0,0.0,0.0,0.0,0.0,0.0,0.0,0.0,0.0,2.6182,0.0,2.6485,2.6777,0.0,0.0,0.0,2.7012,2.7012,2.7012,2.7031,2.706,0.0,0.0,2.7109,2.7471,2.7568,2.7168,2.7461,2.7777,2.7806,2.8418,2.8926,2.8965,2.9346,2.9675,2.9675,2.9744,3.0257,3.1452,3.2776,3.3663,3.4291,3.5024,3.5664,3.6154,3.6742,3.7215,3.7572,3.7767,3.7685,3.6747,3.6579,3.6567,3.6552,3.6564,3.6588,1.743,1.7589,1.7589,1.7589,1.7589,1.7589,1.7589,1.7589,1.7589,1.7589,1.7575,1.7561,1.7534,1.7527,1.7534,1.7527,1.7541,1.7877,1.822,1.8624,1.9056,1.9791,2.0712,2.1275,2.1878,2.2526,2.3188,2.3596,2.3795,2.4003,2.4152,2.4192,2.395,2.3865,2.3956,2.4005,2.411,2.4211,2.4242,2.4341,2.448,2.4532,2.4622,2.4804,2.4582,2.4549,2.469,2.4727,2.468,2.468,2.4531,2.4268,2.3945,2.375,0.0,0.0,0.0,0.0,0.0,0.0,0.0,0.0,0.0,2.4492,2.5067,0.0,2.5391,0.0,2.6621,2.6957,2.7149,2.7238,0.0,0.0,2.7298,2.7206,2.7012,2.7012,2.7139,2.7471,2.7562,2.7627,2.7939,2.8076,2.8105,2.8008,2.8076,2.8262,2.8574,2.8769,2.9043,2.9375,2.9775,3.0039,3.0125,3.0571,3.1257,3.2282,3.3124,3.3818,3.4412,3.54,3.6223,3.6538,3.7089,3.753,3.7838,3.7986,3.7914,3.7661,3.7601,3.7613,3.7601,3.7601,3.7601,1.7279,1.743,1.7536,1.7589,1.7589,1.7589,1.7589,1.7589,1.7589,1.7589,1.7589,1.7589,1.7589,1.7589,1.7589,1.7687,1.7799,1.8069,1.8482,1.9049,1.9583,2.0351,2.1275,2.1818,2.2426,2.3079,2.3546,2.3845,2.3994,2.4102,2.4211,2.4211,2.4211,2.4211,2.4211,2.4211,2.4211,2.4211,2.4211,2.4251,2.4332,2.4195,2.4182,2.4316,2.405,2.4007,2.4239,2.4285,2.4331,2.4404,2.4238,2.4033,2.3799,2.3613,2.3486,0.0,0.0,0.0,0.0,0.0,0.0,0.0,0.0,0.0,0.0,0.0,2.6162,2.7012,2.7459,2.7706,2.7901,2.8071,2.8078,2.7994,2.7994,2.789,2.7588,2.7578,2.7676,2.792,2.7949,2.8037,2.8262,2.8301,2.8301,2.8301,2.8447,2.8652,2.8896,2.9228,2.958,2.9824,3.0225,3.0565,3.0671,3.1156,3.1845,3.2753,3.3434,3.4065,3.4802,3.5676,3.6429,3.6808,3.7262,3.7691,3.7945,3.7974,3.7974,3.7974,3.7974,3.7974,3.7974,3.7974,3.7974,1.7126,1.7232,1.743,1.7582,1.7589,1.7589,1.7589,1.7589,1.7589,1.7589,1.7589,1.7589,1.7589,1.7589,1.7589,1.7747,1.8016,1.8272,1.8743,1.9383,2.0161,2.0925,2.1768,2.2274,2.2987,2.3805,2.3854,2.4003,2.4211,2.4211,2.4211,2.4211,2.4211,2.4211,2.4211,2.4211,2.4211,2.4211,2.4211,2.4211,2.4202,2.3897,2.381,2.3791,2.3589,2.3613,2.39,2.3946,2.4028,2.4192,2.3896,2.373,2.3789,2.3428,2.3428,0.0,2.3867,0.0,0.0,0.0,0.0,0.0,0.0,0.0,0.0,2.6824,2.7282,2.7986,2.8368,2.862,2.8672,2.8963,2.9079,2.8834,2.8781,2.8621,2.8388,2.8291,2.8301,2.8301,2.8301,2.8291,2.8291,2.8301,2.8301,2.833,2.8711,2.9004,2.9072,2.9658,3.0156,3.0254,3.0673,3.0995,3.1285,3.1662,3.2248,3.3105,3.3794,3.4479,3.5257,3.595,3.6549,3.7024,3.7423,3.7744,3.7986,3.7974,3.7974,3.7974,3.7974,3.7974,3.7974,3.7974,3.7974,1.6755,1.7232,1.7279,1.7384,1.7589,1.7589,1.7589,1.7589,1.7589,1.7589,1.7589,1.7589,1.7589,1.7589,1.7589,1.774,1.8016,1.8272,1.884,1.9628,2.0205,2.1019,2.203,2.2568,2.3188,2.3805,2.4003,2.4152,2.4211,2.4211,2.4211,2.4211,2.4211,2.4211,2.4211,0.0,0.0,0.0,2.4211,2.4211,2.4183,2.3485,2.3212,2.3382,2.2757,0.0,2.2999,2.3034,2.3123,2.3335,2.3257,0.0,0.0,0.0,0.0,0.0,0.0,0.0,0.0,0.0,0.0,0.0,2.6133,2.63,2.6715,2.7612,2.8308,2.8665,2.8906,2.9179,2.9661,2.9565,2.9501,2.9448,2.9185,2.892,2.8674,2.8451,2.8301,2.8301,2.8291,2.8291,2.8291,2.8301,2.8291,2.833,2.8955,2.9414,2.9434,2.9873,3.0332,3.0684,3.1053,3.1325,3.1672,3.218,3.2753,3.3445,3.4244,3.4935,3.5368,3.6277,3.6916,3.7131,3.7548,3.7933,3.7986,3.7974,3.7974,3.7974,3.7974,3.7974,3.7974,3.7974,3.7974,1.6537,0.0,1.7126,1.7325,0.0,1.7589,1.7589,1.7589,1.7589,1.7589,1.7589,1.7589,1.7589,1.7589,1.7589,1.7799,1.822,1.8325,1.8938,1.9931,2.0454,2.1173,2.2123,2.2828,2.3388,2.3795,2.4053,2.4211,2.4211,2.4211,2.4211,2.4211,2.4211,2.4211,2.4211,2.4211,2.4211,2.4211,2.4211,2.4211,2.4174,2.3325,2.2998,2.3074,2.2308,0.0,0.0,0.0,0.0,0.0,0.0,0.0,0.0,0.0,0.0,2.4707,2.4736,2.4932,2.5361,2.5605,2.5967,2.6357,2.703,2.752,2.7612,2.8634,2.9331,2.9622,2.9839,3.0088,3.036,3.0141,2.9931,2.9827,2.9554,2.9237,2.893,2.8771,2.8708,2.8717,2.8708,2.8717,2.8717,2.8568,2.8514,2.8554,2.9252,2.9803,2.9862,3.0354,3.0914,3.1305,3.1556,3.1835,3.2238,3.2753,3.3378,3.4009,3.468,3.5301,3.5785,3.6538,3.7143,3.7304,3.7732,3.7986,3.7974,3.7974,3.7974,3.7974,3.7974,3.7974,3.7974,3.7974,3.7974,1.6477,1.673,1.7014,1.7325,1.7589,1.7589,1.7589,1.7589,0.0,0.0,0.0,1.7589,1.7589,1.7589,1.7589,1.7852,1.8318,1.837,1.899,2.0034,2.0609,2.1267,2.2123,2.2937,2.3488,2.3805,2.4053,2.4211,2.4211,2.4211,2.4211,2.4211,2.4211,2.4211,2.4211,2.4211,2.4211,2.4211,2.4211,2.4211,2.4183,2.3437,2.3014,2.3004,2.23,2.2051,2.2311,2.249,2.2713,2.3025,2.3531,2.389,2.4023,2.4346,2.4727,2.5146,2.5185,2.5381,2.5771,2.6182,2.6505,2.6692,2.789,2.8651,2.8651,2.9569,3.0193,3.0505,3.0713,3.0827,3.0868,3.062,3.0401,3.0151,2.9879,2.9596,2.9396,2.929,2.9237,2.9237,2.9237,2.9185,2.9185,2.893,2.8781,2.889,2.9535,3.0237,3.0472,3.1087,3.1506,3.1777,3.2113,3.2514,3.2846,3.3356,3.3942,3.4457,3.5058,3.5664,3.6211,3.6754,3.7197,3.7542,3.7838,3.7974,3.7974,3.7974,3.7974,3.7974,3.7974,3.7974,3.7974,3.7974,3.7974,1.6477,1.6723,1.673,1.7107,1.7589,1.7589,1.7589,1.7589,1.7589,1.7589,1.7589,1.7589,1.7589,1.7589,1.7589,1.7747,1.8069,1.8272,1.8893,1.9783,2.03,2.1121,2.2131,2.2728,2.3238,2.3805,2.4044,2.4211,2.4211,2.4211,2.4211,2.4211,2.4211,2.4211,2.4211,2.4211,2.4211,2.4211,2.4211,2.4211,2.4192,2.3703,2.3416,2.3398,2.2968,2.287,2.3112,2.315,2.3372,2.3815,2.3909,2.426,2.4863,2.4941,2.5176,2.5547,2.5586,2.583,2.626,2.6357,2.685,2.7764,2.8593,2.9137,2.9472,2.9984,3.0547,3.1013,3.0931,3.0879,3.1086,3.092,3.0724,3.0682,3.0453,3.0224,3.0183,2.9994,2.9889,2.9889,2.9659,2.9554,2.9554,2.929,2.9079,2.9199,2.9961,3.0888,3.1922,3.2136,3.2102,3.2227,3.2685,3.314,3.348,3.3998,3.4524,3.4869,3.5412,3.5895,3.6332,3.6808,3.7251,3.7542,3.7838,3.7974,3.7974,3.7974,3.7974,3.7974,3.7974,3.7974,3.7974,3.7974,3.7974,1.653,1.6955,1.6789,1.7047,1.7589,1.7589,1.7589,1.7589,1.7589,1.7589,1.7589,1.7589,1.7589,1.7589,1.7589,1.7747,1.8016,1.8272,1.8788,1.9524,2.0205,2.0917,2.1674,2.2518,2.3138,2.3605,2.4003,2.4211,2.4211,2.4211,2.4211,2.4211,2.4211,2.4211,2.4211,2.4211,2.4211,2.4211,2.4211,2.4211,2.4202,2.3758,2.3499,2.3489,2.3114,2.2951,2.3054,2.3242,2.342,2.3598,2.3956,2.4402,2.4831,2.5111,2.5373,2.5674,2.5684,2.5928,2.6357,2.6968,2.7643,2.8371,2.9126,2.9711,3.0026,3.0547,3.1023,3.1373,3.1589,3.168,3.1618,3.1384,3.1189,3.1034,3.0765,3.062,3.062,3.0505,3.0464,3.0412,3.0349,3.0245,3.0256,2.9973,2.9816,2.9888,3.0609,3.1781,3.324,3.3491,3.3378,3.3332,3.3773,3.4177,3.4345,3.4858,3.5301,3.5621,3.6004,3.6429,3.6874,3.7251,3.7465,3.7732,3.7945,3.7974,3.7974,3.7974,3.7974,3.7974,3.7974,3.7974,3.7974,3.7974,3.7974,1.6747,1.706,1.6895,1.7107,1.7589,1.7589,1.7589,1.7589,1.7589,1.7589,1.7589,1.7589,1.7589,1.7589,1.7589,1.7687,1.7905,1.8167,1.8639,1.9212,1.999,2.0668,2.1326,2.2274,2.2937,2.3397,2.3904,2.4161,2.4211,2.4211,2.4211,2.4211,2.4211,2.4211,2.4211,2.4211,2.4211,2.4211,2.4211,2.4211,2.4192,2.384,2.3684,2.3608,2.3391,2.3226,2.3226,2.3369,2.3511,2.3568,2.4048,2.4458,2.4727,2.5063,2.5342,2.5586,2.5586,2.5878,2.6514,2.7572,2.8413,2.8804,2.9522,3.0141,3.0505,3.1064,3.1476,3.1721,3.2139,3.2342,3.2128,3.1924,3.1732,3.1476,3.1333,3.123,3.1189,3.1178,3.1189,3.1189,3.1137,3.1086,3.1023,3.0858,3.0809,3.1127,3.1721,3.2725,3.4072,3.4691,3.4802,3.4791,3.4969,3.5191,3.5356,3.5687,3.6059,3.6429,3.6646,3.6982,3.737,3.7554,3.7702,3.7892,3.7974,3.7974,3.7974,3.7974,3.7974,3.7974,3.7974,3.7974,3.7974,3.7974,3.7974,1.7193,1.6808,1.702,1.7325,1.7582,1.7589,1.7589,1.7589,1.7589,1.7589,1.7589,1.7589,1.7589,1.7589,1.7589,1.7635,1.7694,1.7911,1.8318,1.8885,1.9465,2.0292,2.1267,2.1928,2.2585,2.3347,2.3705,2.4003,2.4202,2.4211,2.4211,2.4211,2.4211,2.4211,2.4211,2.4211,2.4211,2.4211,2.4211,2.4211,2.4211,2.4174,2.4146,2.4146,2.411,2.4091,2.4045,2.4091,2.423,2.4377,2.4426,2.4571,2.4826,2.4913,2.503,2.5342,2.5352,2.5778,2.6904,2.8025,2.8774,2.9069,2.9679,3.0256,3.0724,3.1465,3.1924,3.2077,3.2331,3.2493,3.2443,3.2454,3.2392,3.2291,3.2302,3.2353,3.2302,3.2342,3.2342,3.2353,3.2037,3.1924,3.1823,3.1618,3.1864,3.2636,3.3013,3.3733,3.5001,3.5664,3.6114,3.6211,3.6091,3.5993,3.632,3.6538,3.67,3.6916,3.7024,3.7251,3.7542,3.7649,3.7691,3.7933,3.7974,3.7974,3.7974,3.7974,3.7974,3.7974,3.7974,3.7974,3.7974,3.7974,3.7974,1.779,1.7259,1.7206,1.7263,1.7391,1.7536,1.7589,1.7589,1.7589,1.7589,1.7589,1.7589,1.7589,1.7589,1.7589,1.7589,1.7641,1.7859,1.822,1.8624,1.9361,2.0189,2.107,2.1979,2.2728,2.3397,2.3854,2.4093,2.4202,2.4211,2.4211,2.4211,2.4211,2.4211,2.4211,2.4211,2.4211,2.4211,2.4211,2.4211,2.4211,2.4211,2.4211,2.4211,2.4211,2.4211,2.4211,2.4211,2.4251,2.4291,2.4291,2.4449,2.4637,2.4627,2.4784,2.5058,2.5714,2.6338,2.6941,2.8179,2.9089,2.9396,3.0088,3.0672,3.123,3.1874,3.2443,3.2757,3.2908,3.2919,3.2768,3.2869,3.2908,3.2757,3.2807,3.2896,3.2896,3.2896,3.2896,3.2896,3.2784,3.2633,3.2482,3.2291,3.2663,3.357,3.3974,3.4569,3.5897,3.6375,3.67,3.7089,3.697,3.6862,3.697,3.6916,3.7089,3.7316,3.737,3.7542,3.7732,3.7838,3.7892,3.7986,3.7974,3.7974,3.7974,3.7974,3.7974,3.7974,3.7974,3.7974,3.7974,3.7974,3.7974,1.8307,1.7618,1.7248,1.7156,1.7337,1.7411,1.7529,1.7589,1.7589,1.7589,1.7589,1.7589,1.7589,1.7589,1.7589,1.7589,1.7641,1.7799,1.8062,1.8475,1.9212,2.0042,2.0925,2.1818,2.2686,2.3347,2.3746,2.4053,2.4161,2.4211,2.4211,2.4211,2.4211,2.4211,2.4211,2.4211,2.4211,2.4211,2.4211,2.4211,2.4211,2.4211,2.4211,2.4211,2.4211,2.4211,2.4211,2.4211,2.4211,2.4211,2.4211,2.4242,2.439,2.444,2.4587,2.4949,2.597,2.6695,2.697,2.8326,2.9237,2.9606,3.0401,3.1137,3.1618,3.2291,3.2857,3.3231,3.3442,3.3431,3.3281,3.3381,3.3369,3.3208,3.3358,3.3457,3.3457,3.3469,3.3457,3.3457,3.3446,3.3358,3.3158,3.3092,3.3435,3.4469,3.4773,3.5235,3.654,3.6982,3.7143,3.7637,3.7691,3.7572,3.74,3.74,3.7465,3.7572,3.7691,3.7797,3.7986,3.7986,3.7986,3.7974,3.7974,3.7974,3.7974,3.7974,3.7974,3.7974,3.7974,3.7974,3.7974,3.7974,3.7974,1.8675,1.7606,1.6954,1.706,1.7564,1.737,1.7391,1.7615,1.7602,1.7589,1.7589,1.7589,1.7589,1.7589,1.7589,1.7589,1.7589,1.7635,1.7898,1.8422,1.9063,1.9894,2.0865,2.1471,2.2333,2.3347,2.3546,2.3805,2.4211,2.4211,2.4211,2.4211,2.4211,2.4211,2.4211,2.4211,2.4211,2.4211,2.4211,2.4211,2.4211,2.4211,2.4211,2.4211,2.4211,2.4211,2.4211,2.4211,2.4211,2.4211,2.4211,2.4202,2.4202,2.4211,2.444,2.4987,2.597,2.6705,2.7129,2.8336,2.929,2.9659,3.0547,3.1333,3.1732,3.2606,3.3231,3.3331,3.3779,3.4014,3.4026,3.3965,3.4026,3.3977,3.4014,3.4075,3.4064,3.4014,3.4064,3.4014,3.4014,3.3965,3.3965,3.4026,3.4395,3.5172,3.554,3.602,3.7139,3.7542,3.7637,3.7826,3.7921,3.7974,3.7921,3.7814,3.788,3.7933,3.788,3.7986,3.7986,3.7974,3.7974,3.7974,3.7974,3.7974,3.7974,3.7974,3.7974,3.7974,3.7974,3.7974,3.7974,3.7974,3.7974,1.9139,1.783,1.7216,1.7208,1.7595,1.765,1.7785,1.7829,1.7883,1.7769,1.7602,1.7589,1.7589,1.7589,1.7589,1.7589,1.7589,1.7589,1.7898,1.8422,1.9011,1.9894,2.0925,2.1776,2.2636,2.3347,2.3746,2.4003,2.4152,2.4211,2.4211,2.4211,2.4211,2.4211,2.4211,2.4211,2.4211,2.4211,2.4211,2.4211,2.4211,2.4211,2.4211,2.4211,2.4211,2.4211,2.4211,2.4211,2.4211,2.4211,2.4211,2.4211,2.4211,2.4211,2.4569,2.5298,2.5961,2.676,2.7629,2.858,2.9396,3.0068,3.0754,3.1476,3.215,3.2869,3.3442,3.3779,3.4113,3.4359,3.4494,3.4396,3.4298,3.4298,3.4445,3.4543,3.4543,3.4543,3.4543,3.4506,3.4396,3.4298,3.4249,3.4174,3.4587,3.5612,3.5837,3.6466,3.7474,3.7826,3.788,3.7974,3.7974,3.7974,3.7974,3.7974,3.7974,3.7974,3.7974,3.7974,3.7974,3.7974,3.7974,3.7974,3.7974,3.7974,3.7974,3.7974,3.7974,3.7974,3.7974,3.7974,3.7974,3.7974,3.7974,1.9117,1.811,1.7377,1.7322,1.7715,1.785,1.7978,1.8142,1.8129,1.807,1.7896,1.7876,1.7876,1.7856,1.7782,1.7729,1.7716,1.7635,1.7898,1.8422,1.9011,1.9843,2.0925,2.1827,2.2636,2.3397,2.3954,2.4211,2.4211,2.4211,2.4211,2.4211,2.4211,2.4211,2.4211,2.4211,2.4211,2.4211,2.4211,2.4211,2.4211,2.4211,2.4211,2.4211,2.4211,2.4211,2.4211,2.4211,2.4211,2.4211,2.4211,2.4211,2.4211,2.433,2.4774,2.5525,2.6138,2.6858,2.7991,2.8723,2.9501,3.0339,3.0972,3.168,3.2443,3.317,3.3679,3.4064,3.4347,3.4628,3.4726,3.4628,3.4531,3.4531,3.4689,3.4775,3.4775,3.4775,3.4775,3.4726,3.4628,3.4531,3.4531,3.4396,3.4861,3.5747,3.5962,3.6629,3.7452,3.789,3.7974,3.7974,3.7974,3.7974,3.7974,3.7974,3.7974,3.7974,3.7974,3.7974,3.7974,3.7974,3.7974,3.7974,3.7974,3.7974,3.7974,3.7974,3.7974,3.7974,3.7974,3.7974,3.7974,3.7974,3.7974,1.8415,1.8241,1.749,1.7494,1.7919,1.7829,1.7961,1.8442,1.849,1.845,1.837,1.8437,1.8397,1.8397,1.8143,1.7989,1.8003,1.7849,1.7952,1.8429,1.9004,1.9843,2.0925,2.1573,2.2485,2.3447,2.3945,2.4211,2.4211,2.4211,2.4211,2.4211,2.4211,2.4211,2.4211,2.4211,2.4211,2.4211,2.4211,2.4211,2.4211,2.4211,2.4211,2.4211,2.4211,2.4211,2.4211,2.4211,2.4211,2.4211,2.4211,2.4211,2.4293,2.4578,2.5029,2.5705,2.6371,2.7179,2.8071,2.8743,2.9501,3.0391,3.1105,3.1823,3.2493,3.3408,3.4014,3.4113,3.4494,3.4775,3.4775,3.4775,3.4787,3.4787,3.4775,3.4775,3.4775,3.4775,3.4775,3.4775,3.4775,3.4775,3.4775,3.4726,3.5002,3.5517,3.6071,3.6564,3.7228,3.7685,3.7938,3.7974,3.7974,3.7974,3.7974,3.7974,3.7974,3.7974,3.7974,3.7974,3.7974,3.7974,3.7974,3.7974,3.7974,3.7974,3.7974,3.7974,3.7974,3.7974,3.7974,3.7974,3.7974,3.7974,3.7974,1.859,1.8357,1.7931,1.7952,1.8223,1.8199,1.8408,1.8741,1.8784,1.8677,1.8517,1.8497,1.8497,1.8484,1.8384,1.835,1.8337,1.8442,1.8467,1.8545,1.9018,1.9902,2.0917,2.1827,2.2828,2.3795,2.4102,2.4211,2.4211,2.4211,2.4211,2.4211,2.4211,2.4211,2.4211,2.4211,2.4211,2.4211,2.4211,2.4211,2.4211,2.4211,2.4211,2.4211,2.4211,2.4211,2.4211,2.4211,2.4211,2.4211,2.4211,2.433,2.4597,2.4753,2.5289,2.6267,2.6655,2.7434,2.8585,2.8978,2.9554,3.0505,3.1281,3.1823,3.2493,3.3457,3.4075,3.4125,3.4506,3.4775,3.4775,3.4775,3.4775,3.4775,3.4775,3.4775,3.4775,3.4775,3.4775,3.4775,3.4775,3.4775,3.4775,3.4775,3.5028,3.5459,3.6062,3.6591,3.7108,3.7613,3.7962,3.7974,3.7974,3.7974,3.7974,3.7974,3.7974,3.7974,3.7974,3.7974,3.7974,3.7974,3.7974,3.7974,3.7974,3.7974,3.7974,3.7974,3.7974,3.7974,3.7974,3.7974,3.7974,3.7974,3.7974,1.8706,1.8415,1.8194,1.8252,1.8421,1.8532,1.879,1.9041,1.9092,1.8978,1.8838,1.8824,1.8818,1.8791,1.8704,1.8657,1.8693,1.8815,1.8925,1.8993,1.9371,2.0127,2.1043,2.2232,2.3197,2.3954,2.4152,2.4211,2.4211,2.4211,2.4211,2.4211,2.4211,2.4211,2.4211,2.4211,2.4211,2.4211,2.4211,2.4211,2.4211,2.4211,2.4211,2.4211,2.4211,2.4211,2.4211,2.4211,2.4211,2.4211,2.4211,2.4413,2.479,2.4983,2.5506,2.6411,2.6967,2.7593,2.8774,2.9006,2.9606,3.0609,3.123,3.1783,3.2443,3.3369,3.3828,3.4113,3.4396,3.4677,3.4775,3.4775,3.4775,3.4775,3.4775,3.4775,3.4775,3.4775,3.4775,3.4775,3.4775,3.4775,3.4775,3.4787,3.4944,3.534,3.5942,3.6459,3.6964,3.7517,3.7793,3.7974,3.7974,3.7974,3.7974,3.7974,3.7974,3.7974,3.7974,3.7974,3.7974,3.7974,3.7974,3.7974,3.7974,3.7974,3.7974,3.7974,3.7974,3.7974,3.7974,3.7974,3.7974,3.7974,3.7974,1.8771,1.8421,1.8415,1.8421,1.848,1.8765,1.9049,1.9352,1.9403,1.9383,1.9377,1.9336,1.937,1.9336,1.9045,1.8951,1.8961,1.911,1.9334,1.9721,2.0121,2.0657,2.1493,2.2782,2.3613,2.3945,2.4139,2.4211,2.4211,2.4211,2.4211,2.4211,2.4211,2.4211,2.4211,2.4211,2.4211,2.4211,2.4211,2.4211,2.4211,2.4211,2.4211,2.4211,2.4211,2.4211,2.4211,2.4211,2.4211,2.4211,2.4257,2.4496,2.4863,2.5249,2.5758,2.6502,2.7062,2.7776,2.8538,2.8963,2.9617,3.0672,3.1075,3.1578,3.2403,3.3069,3.358,3.4064,3.431,3.4531,3.4726,3.4775,3.4775,3.4775,3.4775,3.4775,3.4775,3.4775,3.4775,3.4775,3.4775,3.4775,3.4775,3.4775,3.4799,3.5003,3.5749,3.6338,3.6663,3.7228,3.7817,3.7974,3.7974,3.7974,3.7974,3.7974,3.7974,3.7974,3.7974,3.7974,3.7974,3.7974,3.7974,3.7974,3.7974,3.7974,3.7974,3.7974,3.7974,3.7974,3.7974,3.7974,3.7974,3.7974,3.7974,1.9062,1.8765,1.8765,1.8758,1.8765,1.8881,1.9062,1.9366,1.9424,1.9424,1.9424,1.9424,1.9424,1.941,1.9285,1.9252,1.932,1.9711,1.9829,1.9976,2.0833,2.1897,2.2781,2.3435,2.4044,2.4432,2.4363,2.4211,2.4211,2.4248,2.4229,2.4211,2.422,2.4211,2.4211,2.4211,2.4211,2.4211,2.4211,2.4211,2.4211,2.4211,2.4211,2.4211,2.4211,2.4211,2.4211,2.4211,2.4211,2.4229,2.4473,2.4794,2.517,2.5617,2.6109,2.6747,2.7175,2.7799,2.8538,2.8963,2.9606,3.0672,3.1034,3.1589,3.2454,3.2969,3.3519,3.4014,3.4298,3.4482,3.4726,3.4775,3.4775,3.4775,3.4775,3.4775,3.4775,3.4775,3.4775,3.4775,3.4775,3.4775,3.4775,3.4775,3.4775,3.4992,3.5665,3.6411,3.6615,3.7252,3.7974,3.7974,3.7974,3.7974,3.7974,3.7974,3.7974,3.7974,3.7974,3.7974,3.7974,3.7974,3.7974,3.7974,3.7974,3.7974,3.7974,3.7974,3.7974,3.7974,3.7974,3.7974,3.7974,3.7974,3.7974,1.9185,1.8933,1.9062,1.9004,1.8933,1.9062,1.9243,1.9366,1.9424,1.9424,1.9424,1.9424,1.9424,1.9424,1.9424,1.9424,1.9482,2.0046,2.0337,2.0714,2.1907,2.2958,2.361,2.3991,2.4448,2.4953,2.4826,2.4753,2.4698,2.451,2.4427,2.444,2.4293,2.4211,2.4211,2.4211,2.4211,2.4211,2.4211,2.4211,2.4211,2.4211,2.4211,2.4211,2.4211,2.4211,2.4211,2.4211,2.4211,2.4284,2.4606,2.4968,2.5405,2.5791,2.624,2.6799,2.7152,2.7691,2.8271,2.8814,2.9554,3.0453,3.0868,3.1424,3.2139,3.2706,3.322,3.3679,3.4064,3.4347,3.458,3.4726,3.4775,3.4775,3.4775,3.4775,3.4775,3.4775,3.4775,3.4775,3.4775,3.4775,3.4775,3.4775,3.4775,3.4967,3.5725,3.6194,3.6519,3.7372,3.7974,3.7974,3.7974,3.7974,3.7974,3.7974,3.7974,3.7974,3.7974,3.7974,3.7974,3.7974,3.7974,3.7974,3.7974,3.7974,3.7974,3.7974,3.7974,3.7974,3.7974,3.7974,3.7974,3.7974,3.7974,1.9236,1.8997,1.9243,1.9243,1.9055,1.9301,1.9366,1.9424,1.9424,1.9424,1.9424,1.9424,1.9424,1.9424,1.9424,1.9424,1.9424,2.0046,2.0723,2.1536,2.275,2.3723,2.3956,2.4377,2.4903,2.5356,2.5399,2.5298,2.5179,2.495,2.4858,2.4785,2.4551,2.4385,2.444,2.4367,2.4275,2.4303,2.4238,2.4211,2.4211,2.4211,2.4211,2.4211,2.4211,2.4211,2.4211,2.4211,2.4229,2.4284,2.4611,2.5102,2.5488,2.5865,2.6232,2.6653,2.7107,2.7584,2.795,2.8708,2.9448,3.0235,3.062,3.1137,3.1834,3.2342,3.2818,3.3331,3.3779,3.4211,3.4482,3.4677,3.4775,3.4775,3.4775,3.4775,3.4775,3.4775,3.4775,3.4775,3.4775,3.4775,3.4775,3.4775,3.4775,3.4859,3.5665,3.623,3.6663,3.7348,3.7805,3.7974,3.7974,3.7974,3.7974,3.7974,3.7974,3.7974,3.7974,3.7974,3.7974,3.7974,3.7974,3.7974,3.7974,3.7974,3.7974,3.7974,3.7974,3.7974,3.7974,3.7974,3.7974,3.7974,3.7974,1.9359,1.9307,1.9366,1.9366,1.9307,1.9366,1.9424,1.9424,1.9424,1.9424,1.9424,1.9424,1.9424,1.9424,1.9424,1.9424,1.9482,2.0046,2.0845,2.1995,2.3014,2.3966,2.4407,2.4851,2.5308,2.5678,2.5561,2.5451,2.5353,2.5344,2.5295,2.5267,2.5157,2.5148,2.5032,2.4757,2.4647,2.4643,2.4385,2.4229,2.4211,2.4211,2.4211,2.4211,2.4211,2.4211,2.4211,2.4211,2.4367,2.4647,2.5065,2.5424,2.5819,2.6188,2.6454,2.6645,2.7116,2.753,2.796,2.8601,2.9396,2.9984,3.0568,3.1023,3.1629,3.219,3.2706,3.3269,3.3779,3.4211,3.458,3.4738,3.4775,3.4775,3.4775,3.4775,3.4775,3.4775,3.4775,3.4775,3.4775,3.4775,3.4775,3.4775,3.4823,3.4931,3.5509,3.6254,3.6807,3.7336,3.7661,3.7914,3.7974,3.7974,3.7974,3.7974,3.7974,3.7974,3.7974,3.7974,3.7974,3.7974,3.7974,3.7974,3.7974,3.7974,3.7974,3.7974,3.7974,3.7974,3.7974,3.7974,3.7974,3.7974,3.7974,1.9424,1.9424,1.9424,1.9424,1.9424,1.9424,1.9424,1.9424,1.9424,1.9424,1.9424,1.9424,1.9424,1.9424,1.9424,1.9424,1.9591,2.0155,2.1074,2.2108,2.3078,2.3968,2.477,2.5228,2.5712,2.6161,2.6122,2.5949,2.5903,2.5738,2.569,2.5663,2.5482,2.5326,2.5372,2.5161,2.5001,2.4776,2.4574,2.4422,2.4238,2.4211,2.4211,2.4211,2.4211,2.4211,2.4211,2.4211,2.4542,2.4992,2.5313,2.5598,2.5993,2.6353,2.6564,2.6691,2.6954,2.7377,2.7755,2.8441,2.9175,2.9774,3.0412,3.092,3.1424,3.1936,3.2443,3.2908,3.3419,3.3965,3.4543,3.4775,3.4775,3.4775,3.4775,3.4775,3.4775,3.4775,3.4775,3.4775,3.4775,3.4775,3.4775,3.4775,3.4775,3.4859,3.5279,3.6038,3.6543,3.706,3.7565,3.7829,3.7926,3.7974,3.7974,3.7974,3.7974,3.7974,3.7974,3.7974,3.7974,3.7974,3.7974,3.7974,3.7974,3.7974,3.7974,3.7974,3.7974,3.7974,3.7974,3.7974,3.7974,3.7974,3.7974,1.9424,1.9424,1.9424,1.9424,1.9424,1.9424,1.9424,1.9424,1.9424,1.9424,1.9424,1.9424,1.9424,1.9424,1.9424,1.9424,1.9764,2.0385,2.1303,2.2116,2.3135,2.4024,2.477,2.5368,2.5972,2.6527,2.6499,2.6499,2.6408,2.6324,2.6122,2.6058,2.581,2.5702,2.561,2.5515,2.5341,2.4977,2.4785,2.4578,2.4275,2.4211,2.4211,2.4211,2.4211,2.4211,2.4211,2.4266,2.4569,2.5289,2.5372,2.5681,2.6076,2.6398,2.6591,2.6636,2.689,2.7161,2.753,2.8218,2.8963,2.9501,3.0349,3.0827,3.1178,3.168,3.2179,3.2594,3.3108,3.3729,3.4298,3.458,3.4726,3.4775,3.4775,3.4775,3.4775,3.4775,3.4775,3.4775,3.4775,3.4775,3.4775,3.4775,3.4775,3.4847,3.5328,3.5797,3.6326,3.6843,3.7385,3.7805,3.7926,3.7974,3.7974,3.7974,3.7974,3.7974,3.7974,3.7974,3.7974,3.7974,3.7974,3.7974,3.7974,3.7974,3.7974,3.7974,3.7974,3.7974,3.7974,3.7974,3.7974,3.7974,3.7974,1.9424,1.9424,1.9424,1.9424,1.9424,1.9424,1.9424,1.9424,1.9424,1.9424,1.9424,1.9424,1.9424,1.9424,1.9424,1.9649,2.0104,2.0723,2.141,2.2222,2.3247,2.4136,2.4842,2.5395,2.6017,2.6473,2.6591,2.6591,2.6582,2.6509,2.6417,2.6444,2.6362,2.6307,2.6188,2.6094,2.5663,2.5197,2.4922,2.4574,2.4303,2.4211,2.4211,2.4211,2.4211,2.4211,2.4211,2.4238,2.4578,2.5313,2.5362,2.5837,2.6279,2.6536,2.6582,2.6636,2.6845,2.7053,2.7476,2.8165,2.8751,2.9333,3.0193,3.0724,3.1023,3.1538,3.2077,3.2544,3.3158,3.3828,3.4335,3.4433,3.458,3.4677,3.4775,3.4775,3.4775,3.4775,3.4775,3.4775,3.4775,3.4775,3.4775,3.4775,3.4775,3.4847,3.5123,3.5737,3.6326,3.6819,3.7324,3.7673,3.7962,3.7974,3.7974,3.7974,3.7974,3.7974,3.7974,3.7974,3.7974,3.7974,3.7974,3.7974,3.7974,3.7974,3.7974,3.7974,3.7974,3.7974,3.7974,3.7974,3.7974,3.7974,3.7974,1.9424,1.9424,1.9424,1.9424,1.9424,1.9424,1.9424,1.9424,1.9424,1.9424,1.9424,1.9424,1.9424,1.9424,1.9424,1.9764,2.0277,2.0723,2.1467,2.2392,2.3304,2.4184,2.4944,2.5514,2.6017,2.6473,2.6591,2.6591,2.6582,2.6582,2.6591,2.6582,2.6591,2.6591,2.649,2.6142,2.581,2.5424,2.4977,2.4583,2.4238,2.4211,2.4211,2.4211,2.4211,2.4211,2.4211,2.4211,2.4606,2.5188,2.5372,2.583,2.6325,2.6591,2.6591,2.6636,2.6745,2.7008,2.7431,2.8067,2.8654,2.9185,3.0141,3.0724,3.092,3.1373,3.1975,3.2493,3.3019,3.363,3.3965,3.4249,3.4433,3.458,3.4726,3.4775,3.4775,3.4775,3.4775,3.4775,3.4775,3.4775,3.4775,3.4775,3.4775,3.4883,3.5039,3.5567,3.6254,3.6687,3.712,3.7685,3.7974,3.7974,3.7974,3.7974,3.7974,3.7974,3.7974,3.7974,3.7974,3.7974,3.7974,3.7974,3.7974,3.7974,3.7974,3.7974,3.7974,3.7974,3.7974,3.7974,3.7974,3.7974,3.7974,1.9424,1.9424,1.9424,1.9424,1.9424,1.9424,1.9424,1.9424,1.9424,1.9424,1.9424,1.9424,1.9424,1.9424,1.9482,1.9707,2.0335,2.0666,2.1531,2.2513,2.3304,2.4184,2.5008,2.5569,2.6026,2.6527,2.6591,2.6591,2.6591,2.6591,2.6591,2.6591,2.6591,2.6518,2.6371,2.6159,2.5773,2.5332,2.5019,2.4624,2.4312,2.4211,2.4211,2.4211,2.4211,2.4211,2.4211,2.4211,2.4633,2.5166,2.5445,2.58,2.6417,2.6591,2.6591,2.6591,2.6591,2.6899,2.7377,2.797,2.8558,2.9079,3.0193,3.0672,3.0972,3.1373,3.1936,3.2392,3.2919,3.3342,3.363,3.4014,3.4249,3.4433,3.458,3.4726,3.4775,3.4775,3.4775,3.4775,3.4775,3.4775,3.4775,3.4775,3.4775,3.4775,3.4931,3.5267,3.593,3.6338,3.6843,3.7601,3.7974,3.7974,3.7974,3.7974,3.7974,3.7974,3.7974,3.7974,3.7974,3.7974,3.7974,3.7974,3.7974,3.7974,3.7974,3.7974,3.7974,3.7974,3.7974,3.7974,3.7974,3.7974,3.7974,1.9424,1.9424,1.9424,1.9424,1.9424,1.9424,1.9424,1.9424,1.9424,1.9424,1.9424,1.9424,1.9424,1.9424,1.9424,1.9764,2.0328,2.0895,2.1638,2.2626,2.3472,2.4295,2.5165,2.5514,2.6026,2.6527,2.6591,2.6591,2.6591,2.6591,2.6591,2.6591,2.6518,2.6426,2.6123,2.5938,2.5635,2.4986,2.4803,2.4615,2.4284,2.4211,2.4211,2.4211,2.4211,2.4211,2.4211,2.4238,2.4606,2.5243,2.5372,2.5775,2.6417,2.6591,2.6591,2.6591,2.6636,2.6854,2.7377,2.7916,2.8504,2.9132,3.0141,3.0672,3.1023,3.1424,3.1924,3.2026,3.2606,3.3031,3.3331,3.3618,3.3953,3.4249,3.4433,3.4628,3.4726,3.4775,3.4775,3.4775,3.4775,3.4775,3.4775,3.4775,3.4775,3.4775,3.4847,3.5195,3.5701,3.6206,3.6807,3.7625,3.7974,3.7974,3.7974,3.7974,3.7974,3.7974,3.7974,3.7974,3.7974,3.7974,3.7974,3.7974,3.7974,3.7974,3.7974,3.7974,3.7974,3.7974,3.7974,3.7974,3.7974,3.7974,3.7974,1.9424,1.9424,1.9424,1.9424,1.9424,1.9424,1.9424,1.9424,1.9424,1.9424,1.9424,1.9424,1.9424,1.9424,1.9424,1.9764,2.0335,2.0952,2.1809,2.2788,2.3576,2.4462,2.5293,2.5624,2.6017,2.6473,2.6591,2.6591,2.6582,2.6582,2.6582,2.6545,2.6362,2.6214,2.5883,2.55,2.5161,2.4794,2.4606,2.4395,2.4257,2.4211,2.4211,2.4211,2.4211,2.4211,2.4211,2.422,2.4615,2.524,2.5372,2.5757,2.6362,2.6591,2.6591,2.6591,2.6591,2.6845,2.7377,2.7799,2.8388,2.9132,2.9984,3.0713,3.1178,3.1527,3.1874,3.2015,3.2392,3.2768,3.3081,3.3481,3.3817,3.4101,3.4298,3.4531,3.4726,3.4775,3.4775,3.4775,3.4775,3.4775,3.4775,3.4775,3.4775,3.4775,3.4847,3.5099,3.5749,3.6447,3.7096,3.7817,3.7974,3.7974,3.7974,3.7974,3.7974,3.7974,3.7974,3.7974,3.7974,3.7974,3.7974,3.7974,3.7974,3.7974,3.7974,3.7974,3.7974,3.7974,3.7974,3.7974,3.7974,3.7974,3.7974,1.9424,1.9424,1.9424,1.9424,1.9424,1.9424,1.9424,1.9424,1.9424,1.9424,1.9424,1.9424,1.9424,1.9424,1.9424,1.9707,2.0328,2.0952,2.1923,2.2837,2.3753,2.4637,2.5412,2.5798,2.6081,2.6591,2.6591,2.6591,2.6554,2.6472,2.638,2.6426,2.616,2.5883,2.5589,2.5161,2.4776,2.4624,2.4376,2.4248,2.4211,2.4211,2.4211,2.4211,2.4211,2.4211,2.4211,2.4211,2.4597,2.5249,2.5372,2.5748,2.6435,2.6591,2.6591,2.6591,2.6591,2.6854,2.7323,2.7809,2.8335,2.9079,2.9973,3.0817,3.1322,3.1567,3.1669,3.1874,3.2291,3.2555,3.2818,3.3269,3.3729,3.4026,3.4211,3.4494,3.4726,3.4775,3.4775,3.4775,3.4775,3.4775,3.4775,3.4775,3.4775,3.4775,3.4883,3.5039,3.5689,3.6435,3.7012,3.7613,3.7914,3.7938,3.7974,3.7974,3.7974,3.7974,3.7974,3.7974,3.7974,3.7974,3.7974,3.7974,3.7974,3.7974,3.7974,3.7974,3.7974,3.7974,3.7974,3.7974,3.7974,3.7974,3.7974,1.9424,1.9424,1.9424,1.9424,1.9424,1.9424,1.9424,1.9424,1.9424,1.9424,1.9424,1.9424,1.9424,1.9424,1.9482,1.9707,2.0328,2.0952,2.1923,2.2958,2.3921,2.4812,2.5523,2.5962,2.6245,2.6527,2.6582,2.6582,2.649,2.6215,2.614,2.6021,2.5846,2.5479,2.5166,2.4821,2.4528,2.4404,2.4229,2.4211,2.4211,2.4211,2.4211,2.4211,2.4211,2.4211,2.4211,2.4211,2.4578,2.5298,2.5372,2.5757,2.6417,2.6573,2.6591,2.6591,2.6591,2.6854,2.7269,2.7691,2.8271,2.9122,2.9943,3.0698,3.1141,3.1421,3.1607,3.171,3.219,3.2443,3.2706,3.3008,3.358,3.3927,3.4211,3.4396,3.464,3.4775,3.4775,3.4775,3.4775,3.4775,3.4775,3.4775,3.4775,3.4775,3.4811,3.4967,3.5473,3.6146,3.6663,3.7204,3.7697,3.7878,3.7962,3.7974,3.7974,3.7974,3.7974,3.7974,3.7974,3.7974,3.7974,3.7974,3.7974,3.7974,3.7974,3.7974,3.7974,3.7974,3.7974,3.7974,3.7974,3.7974,3.7974,1.9424,1.9424,1.9424,1.9424,1.9424,1.9424,1.9424,1.9424,1.9424,1.9424,1.9424,1.9424,1.9424,1.9424,1.9424,1.9707,2.0328,2.0895,2.1923,2.2958,2.3977,2.4868,2.5523,2.5962,2.6245,2.6527,2.6573,2.6399,2.6214,2.6021,2.5653,2.546,2.5341,2.5157,2.4803,2.4546,2.4367,2.4284,2.4211,2.4211,2.4211,2.4211,2.4211,2.4211,2.4211,2.4211,2.4211,2.4211,2.4698,2.5133,2.5335,2.5867,2.6435,2.6554,2.6591,2.6591,2.6591,2.68,2.7098,2.7501,2.8004,2.8835,2.9598,3.0205,3.0737,3.1052,3.1327,3.164,3.2128,3.2493,3.2606,3.2969,3.3481,3.3927,3.4211,3.4396,3.4592,3.4726,3.4775,3.4775,3.4775,3.4775,3.4775,3.4775,3.4775,3.4775,3.4823,3.4943,3.5412,3.5809,3.6302,3.6831,3.7324,3.7721,3.7817,3.789,3.7962,3.7974,3.7974,3.7974,3.7974,3.7974,3.7974,3.7974,3.7974,3.7974,3.7974,3.7974,3.7974,3.7974,3.7974,3.7974,3.7974,3.7974,3.7974,1.9424,1.9424,1.9424,1.9424,1.9424,1.9424,1.9424,1.9424,1.9424,1.9424,1.9424,1.9424,1.9424,1.9424,1.9424,1.9707,2.0328,2.0952,2.193,2.2958,2.3977,2.4868,2.5523,2.5962,2.6245,2.6509,2.6408,2.6206,2.6058,2.5738,2.5326,2.4992,2.4707,2.4652,2.4569,2.4395,2.4211,2.4211,2.4211,2.4211,2.4211,2.4211,2.4211,2.4211,2.4211,2.4211,2.4211,2.4248,2.4633,2.5087,2.5454,2.5812,2.627,2.6591,2.6591,2.6591,2.6636,2.6745,2.6989,2.7466,2.7906,2.8683,2.9231,2.9785,3.0267,3.0708,3.116,3.1615,3.2139,3.2493,3.2555,3.3069,3.358,3.4026,3.4211,3.4396,3.4628,3.4775,3.4775,3.4775,3.4775,3.4775,3.4775,3.4775,3.4775,3.4775,3.4787,3.4871,3.5087,3.5521,3.5918,3.6447,3.6964,3.7336,3.7649,3.7793,3.7926,3.7974,3.7974,3.7974,3.7974,3.7974,3.7974,3.7974,3.7974,3.7974,3.7974,3.7974,3.7974,3.7974,3.7974,3.7974,3.7974,3.7974,3.7974,1.941,1.9424,1.9424,1.9424,1.9424,1.9424,1.9424,1.9424,1.9424,1.9424,1.9424,1.9424,1.9424,1.9424,1.9424,1.9764,2.0328,2.0895,2.1809,2.2901,2.3865,2.4804,2.5467,2.5953,2.6191,2.6418,2.6261,2.6085,2.5883,2.535,2.4946,2.4716,2.4468,2.4303,2.4238,2.4229,2.4211,2.4211,2.4211,2.4211,2.4211,2.4211,2.4211,2.4211,2.4211,2.4211,2.4211,2.4211,2.4615,2.5258,2.5362,2.5784,2.6463,2.6573,2.6591,2.6591,2.6591,2.6736,2.698,2.7607,2.7991,2.8358,2.8759,2.9303,2.997,3.0536,3.1057,3.1469,3.2134,3.2493,3.2757,3.3158,3.3668,3.4026,3.4211,3.4445,3.4677,3.4775,3.4775,3.4775,3.4775,3.4775,3.4775,3.4775,3.4775,3.4775,3.4775,3.4847,3.4955,3.5159,3.5569,3.5978,3.6507,3.6964,3.7324,3.7697,3.7878,3.7938,3.7974,3.7974,3.7974,3.7974,3.7974,3.7974,3.7974,3.7974,3.7974,3.7974,3.7974,3.7974,3.7974,3.7974,3.7974,3.7974,3.7974,1.9072,1.9092,1.9285,1.9424,1.9424,1.9424,1.9424,1.9424,1.9424,1.9424,1.9424,1.9424,1.9424,1.9424,1.9482,1.9707,2.027,2.0666,2.1524,2.274,2.3689,2.4509,2.5276,2.579,2.6091,2.6143,2.6021,2.5644,2.5194,2.4882,2.4652,2.4422,2.4321,2.4229,2.4211,2.4211,2.4211,2.4211,2.4211,2.4211,2.4211,2.4211,2.4211,2.4211,2.4211,2.4211,2.4211,2.4211,2.4624,2.5295,2.5362,2.5775,2.6417,2.6591,2.6591,2.6591,2.6646,2.6745,2.6857,2.7118,2.7236,2.7642,2.8078,2.8585,2.9115,2.9991,3.0657,3.1389,3.2096,3.2499,3.2818,3.3331,3.3779,3.4075,3.4261,3.4494,3.4677,3.4775,3.4775,3.4775,3.4775,3.4775,3.4775,3.4775,3.4775,3.4775,3.4775,3.4775,3.4859,3.4907,3.5184,3.5545,3.6002,3.6519,3.6964,3.7252,3.7649,3.7817,3.7902,3.7974,3.7974,3.7974,3.7974,3.7974,3.7974,3.7974,3.7974,3.7974,3.7974,3.7974,3.7974,3.7974,3.7974,3.7974,3.7974,1.8831,1.8938,1.9132,1.9279,1.9417,1.9424,1.9424,1.9424,1.9424,1.9424,1.9424,1.9424,1.9424,1.9424,1.9482,1.9707,2.0277,2.0608,2.136,2.257,2.34,2.4223,2.4974,2.5528,2.5667,2.578,2.561,2.5286,2.4858,2.4656,2.4486,2.4293,2.4211,2.4211,2.4211,2.4211,2.4211,2.4211,2.4211,2.4211,2.4211,2.4211,2.4211,2.4211,2.4211,2.4211,2.4211,2.433,2.4578,2.5157,2.5482,2.5766,2.6316,2.6591,2.6591,2.6591,2.6636,2.6691,2.6714,2.6541,2.6708,2.6992,2.7301,2.7877,2.862,2.958,3.045,3.1219,3.2001,3.2527,3.2919,3.3431,3.3878,3.4174,3.4408,3.4628,3.4726,3.4775,3.4775,3.4775,3.4775,3.4775,3.4775,3.4775,3.4775,3.4775,3.4775,3.4775,3.4775,3.4823,3.4871,3.5159,3.5545,3.6002,3.6411,3.6711,3.7132,3.7625,3.7745,3.7781,3.7974,3.7974,3.7974,3.7974,3.7974,3.7974,3.7974,3.7974,3.7974,3.7974,3.7974,3.7974,3.7974,3.7974,3.7974,1.8644,1.8885,1.8911,1.9092,1.9319,1.941,1.9424,1.9424,1.9424,1.9424,1.9424,1.9424,1.9424,1.9424,1.9424,1.9764,2.0213,2.0551,2.1417,2.2392,2.3183,2.3935,2.4569,2.5044,2.5246,2.5278,2.5151,2.495,2.4711,2.4496,2.4275,2.422,2.4211,2.4211,2.4211,2.4211,2.4211,2.4211,2.4211,2.4211,2.4211,2.4211,2.4211,2.4211,2.4211,2.4211,2.4211,2.4257,2.4689,2.512,2.539,2.5885,2.6289,2.6573,2.6591,2.6591,2.6591,2.6636,2.6562,2.633,2.6361,2.663,2.6969,2.7703,2.8497,2.9268,3.0161,3.1059,3.1861,3.2453,3.2969,3.3519,3.4064,3.431,3.4543,3.4677,3.4775,3.4775,3.4775,3.4775,3.4775,3.4775,3.4775,3.4775,3.4775,3.4775,3.4775,3.4775,3.4775,3.4775,3.4823,3.4859,3.5183,3.5521,3.5869,3.6218,3.6603,3.7084,3.7348,3.7457,3.7697,3.7938,3.7974,3.7974,3.7974,3.7974,3.7974,3.7974,3.7974,3.7974,3.7974,3.7974,3.7974,3.7974,3.7974,1.8169,1.8282,1.8695,1.8978,1.9078,1.9279,1.9424,1.9424,1.9424,1.9424,1.9424,1.9424,1.9424,1.9424,1.9424,1.9764,2.0104,2.05,2.1253,2.2044,2.2862,2.35,2.4107,2.4663,2.4845,2.4828,2.4723,2.4611,2.444,2.4211,2.4211,2.4211,2.4211,2.4211,2.4211,2.4211,2.4211,2.4211,2.4211,2.4211,2.4211,2.4211,2.4211,2.4211,2.4211,2.4211,2.4211,2.4211,2.4643,2.5249,2.5344,2.5766,2.649,2.6591,2.6591,2.6591,2.6591,2.6627,2.6553,2.6296,2.6182,2.642,2.6685,2.7109,2.7877,2.8823,2.984,3.0843,3.1786,3.2411,3.3128,3.3767,3.4162,3.4347,3.4592,3.4726,3.4775,3.4775,3.4775,3.4775,3.4775,3.4775,3.4775,3.4775,3.4775,3.4775,3.4775,3.4775,3.4775,3.4775,3.4775,3.4811,3.4907,3.5244,3.5473,3.5797,3.6158,3.6507,3.6759,3.7084,3.7409,3.7649,3.7866,3.7974,3.7974,3.7974,3.7974,3.7974,3.7974,3.7974,3.7974,3.7974,3.7974,3.7974,3.7974,1.7882,1.8035,1.841,1.8691,1.8931,1.9118,1.9245,1.941,1.9424,1.9424,1.9424,1.9424,1.9424,1.9424,1.9424,1.9707,2.027,2.0385,2.0967,2.2029,2.2598,2.3077,2.3704,2.4251,2.4393,2.4338,2.439,2.4431,2.4248,2.4211,2.4211,2.4211,2.4211,2.4211,2.4211,2.4211,2.4211,2.4211,2.4211,2.4211,2.4211,2.4211,2.4211,2.4211,2.4211,2.4211,2.4211,2.4211,2.4643,2.5277,2.5362,2.5757,2.6417,2.6591,2.6591,2.6591,2.6591,2.6591,2.6562,2.6191,2.621,2.6279,2.6379,2.6714,2.7513,2.845,2.967,3.0793,3.1653,3.2427,3.3241,3.4014,3.4211,3.4396,3.458,3.4775,3.4775,3.4775,3.4775,3.4775,3.4775,3.4775,3.4775,3.4775,3.4775,3.4775,3.4775,3.4775,3.4775,3.4775,3.4775,3.4787,3.4823,3.4931,3.5159,3.54,3.5653,3.5942,3.6146,3.6495,3.6976,3.7385,3.7625,3.7817,3.7974,3.7974,3.7974,3.7974,3.7974,3.7974,3.7974,3.7974,3.7974,3.7974,3.7974,1.7749,1.7949,1.8016,1.8322,1.8851,1.8868,1.9085,1.939,1.9403,1.9424,1.9424,1.9424,1.9424,1.9424,1.9482,1.9758,2.022,2.045,2.1016,2.2055,2.2466,2.2842,2.3203,2.3643,2.3944,2.4011,2.4067,2.4293,2.4238,2.4211,2.4211,2.4211,2.4211,2.4211,2.4211,2.4211,2.4211,2.4211,2.4211,2.4211,2.4211,2.4211,2.4211,2.4211,2.4211,2.4211,2.4211,2.433,2.456,2.5084,2.5463,2.5775,2.6298,2.6591,2.6591,2.6591,2.6591,2.6591,2.6534,2.6231,2.6059,2.6075,2.616,2.6473,2.7246,2.8095,2.9291,3.0493,3.1348,3.2383,3.324,3.3983,3.4335,3.4482,3.4677,3.4775,3.4775,3.4775,3.4775,3.4775,3.4775,3.4775,3.4775,3.4775,3.4775,3.4775,3.4775,3.4775,3.4775,3.4775,3.4775,3.4775,3.4787,3.4811,3.4859,3.5076,3.5172,3.5388,3.5629,3.5966,3.6483,3.694,3.7397,3.7685,3.7974,3.7974,3.7974,3.7974,3.7974,3.7974,3.7974,3.7974,3.7974,3.7974,3.7974,1.7622,1.7716,1.7889,1.8257,1.8604,1.8838,1.8951,1.9052,1.9279,1.941,1.9424,1.9424,1.9424,1.9424,1.9591,1.9931,2.027,2.0673,2.1262,2.1844,2.2356,2.2603,2.2808,2.3471,2.3662,2.3743,2.389,2.4211,2.4211,2.4211,2.4211,2.4211,2.4211,2.4211,2.4211,2.4211,2.4211,2.4211,2.4211,2.4211,2.4211,2.4211,2.4211,2.4211,2.4211,2.4211,2.4211,2.4238,2.4505,2.4849,2.5216,2.5775,2.6509,2.6564,2.6591,2.6591,2.6591,2.6591,2.6499,2.6301,2.6194,2.6163,2.6263,2.6487,2.7033,2.7825,2.8808,3.0013,3.1174,3.2252,3.3235,3.3928,3.447,3.4628,3.4726,3.4775,3.4775,3.4775,3.4775,3.4775,3.4775,3.4775,3.4775,3.4775,3.4775,3.4775,3.4775,3.4775,3.4775,3.4775,3.4775,3.4775,3.4775,3.4775,3.4775,3.4799,3.498,3.5112,3.5352,3.5689,3.605,3.6711,3.7348,3.7721,3.7974,3.7974,3.7974,3.7974,3.7974,3.7974,3.7974,3.7974,3.7974,3.7974,3.7974,1.7589,1.7655,1.7762,1.8016,1.829,1.847,1.8604,1.8771,1.9045,1.9172,1.9199,1.9299,1.9424,1.9482,1.9707,2.0033,2.0343,2.0743,2.1298,2.1834,2.2186,2.2499,2.2882,2.3364,2.3586,2.3682,2.3963,2.4211,2.4211,2.4211,2.4211,2.4211,2.4211,2.4211,2.4211,2.4211,2.4211,2.4211,2.4211,2.4211,2.4211,2.4211,2.4211,2.4211,2.4211,2.4211,2.4211,2.4229,2.4468,2.49,2.5378,2.5764,2.6261,2.6472,2.6573,2.6591,2.6591,2.6582,2.6517,2.6386,2.6309,2.6328,2.6164,2.6349,2.6936,2.7758,2.8795,3.0017,3.1344,3.2448,3.3486,3.4288,3.458,3.4738,3.4775,3.4775,3.4775,3.4775,3.4775,3.4775,3.4775,3.4775,3.4775,3.4775,3.4775,3.4775,3.4775,3.4775,3.4775,3.4775,3.4775,3.4775,3.4775,3.4775,3.4775,3.4775,3.4811,3.4992,3.5124,3.5593,3.6074,3.6735,3.7324,3.7733,3.7974,3.7974,3.7974,3.7974,3.7974,3.7974,3.7974,3.7974,3.7974,3.7974,3.7974,1.7635,1.7635,1.7641,1.7842,1.8023,1.8151,1.8306,1.8623,1.885,1.8978,1.9074,1.9337,1.9414,1.9533,1.9815,2.0069,2.0501,2.1114,2.158,2.1768,2.2062,2.2484,2.2946,2.3331,2.3627,2.3872,2.4102,2.4152,2.4211,2.4211,2.4211,2.4211,2.4211,2.4211,2.4211,2.4211,2.4211,2.4211,2.4211,2.4211,2.4211,2.4211,2.4211,2.4211,2.4211,2.4211,2.4211,2.4266,2.445,2.479,2.5286,2.5653,2.5993,2.6206,2.6434,2.648,2.6545,2.6564,2.6572,2.6361,2.6461,2.6479,2.6174,2.6394,2.7032,2.7837,2.8887,3.0053,3.1385,3.2544,3.3583,3.4409,3.4628,3.4787,3.4775,3.4775,3.4775,3.4775,3.4775,3.4775,3.4775,3.4775,3.4775,3.4775,3.4775,3.4775,3.4775,3.4775,3.4775,3.4775,3.4775,3.4775,3.4775,3.4775,3.4775,3.4775,3.4775,3.4799,3.504,3.5557,3.6062,3.6591,3.7168,3.7793,3.7974,3.7974,3.7974,3.7974,3.7974,3.7974,3.7974,3.7974,3.7974,3.7974,3.7974,1.774,1.7911,1.7911,1.8051,1.8344,1.8619,1.8772,1.8862,1.9078,1.9209,1.9292,1.9534,1.9733,1.9751,2.0328,2.0616,2.0723,2.137,2.1705,2.188,2.2363,2.2758,2.3138,2.3536,2.3872,2.4053,2.4152,2.4202,2.4211,2.4211,2.4211,2.4211,2.4211,2.4211,2.4211,2.4211,2.4211,2.4211,2.4211,2.4211,2.4211,2.4211,2.4211,2.4211,2.4211,2.4211,2.4211,2.4211,2.4248,2.445,2.4766,2.524,2.5571,2.5901,2.6104,2.6296,2.6425,2.6527,2.6463,2.6435,2.663,2.6805,2.6645,2.6853,2.7471,2.8032,2.9091,3.0149,3.139,3.2326,3.3332,3.4278,3.4726,3.4775,3.4775,3.4775,3.4775,3.4775,3.4775,3.4775,3.4775,3.4775,3.4775,3.4775,3.4775,3.4775,3.4775,3.4775,3.4775,3.4775,3.4775,3.4775,3.4775,3.4775,3.4775,3.4775,3.4775,3.4775,3.4956,3.5485,3.593,3.6302,3.6892,3.7709,3.7962,3.7974,3.7974,3.7974,3.7974,3.7974,3.7974,3.7974,3.7974,3.7974,3.7974]}]]